Wetterdaten: Samstag, 05.08.2017
Datum Zeit Temp. A. Temp. A. max Feuchte A. Luftdruck Regen Wind Richtung Richtung Sonnenschein ET UV Solar Taupunkt Windchill Windböen
05.08.2017 00:00 18,6 °C 18,6 °C 86 % 1013,8 hPa 0,0 mm 0,0 km/h (0 Bft) N-NW 347 ° 0 min 0,000 mm 0,0 UV-I 0 W/m² 16,2 °C 18,6 °C 0,0 km/h (0 Bft)
05.08.2017 00:02 18,4 °C 18,6 °C 86 % 1013,8 hPa 0,0 mm 0,0 km/h (0 Bft) N-NW 347 ° 0 min 0,000 mm 0,0 UV-I 0 W/m² 16,0 °C 18,4 °C 0,0 km/h (0 Bft)
05.08.2017 00:03 18,3 °C 18,4 °C 87 % 1013,7 hPa 0,0 mm 0,0 km/h (0 Bft) N-NW 347 ° 0 min 0,000 mm 0,0 UV-I 0 W/m² 16,1 °C 18,3 °C 0,0 km/h (0 Bft)
05.08.2017 00:04 18,3 °C 18,4 °C 87 % 1013,8 hPa 0,0 mm 0,0 km/h (0 Bft) N-NW 347 ° 0 min 0,000 mm 0,0 UV-I 0 W/m² 16,1 °C 18,3 °C 0,0 km/h (0 Bft)
05.08.2017 00:06 18,3 °C 18,3 °C 87 % 1013,7 hPa 0,0 mm 0,0 km/h (0 Bft) N-NW 347 ° 0 min 0,000 mm 0,0 UV-I 0 W/m² 16,1 °C 18,3 °C 0,0 km/h (0 Bft)
05.08.2017 00:07 18,2 °C 18,3 °C 88 % 1013,7 hPa 0,0 mm 0,0 km/h (0 Bft) N-NW 347 ° 0 min 0,000 mm 0,0 UV-I 0 W/m² 16,2 °C 18,2 °C 0,0 km/h (0 Bft)
05.08.2017 00:09 18,1 °C 18,2 °C 88 % 1013,6 hPa 0,0 mm 0,0 km/h (0 Bft) N-NW 347 ° 0 min 0,000 mm 0,0 UV-I 0 W/m² 16,1 °C 18,1 °C 0,0 km/h (0 Bft)
05.08.2017 00:10 18,1 °C 18,2 °C 88 % 1013,6 hPa 0,0 mm 0,0 km/h (0 Bft) N-NW 347 ° 0 min 0,000 mm 0,0 UV-I 0 W/m² 16,1 °C 18,1 °C 0,0 km/h (0 Bft)
05.08.2017 00:12 18,1 °C 18,1 °C 87 % 1013,6 hPa 0,0 mm 0,0 km/h (0 Bft) N-NW 347 ° 0 min 0,000 mm 0,0 UV-I 0 W/m² 15,9 °C 18,1 °C 0,0 km/h (0 Bft)
05.08.2017 00:13 18,2 °C 18,2 °C 87 % 1013,6 hPa 0,0 mm 0,0 km/h (0 Bft) N-NW 347 ° 0 min 0,000 mm 0,0 UV-I 0 W/m² 16,0 °C 18,2 °C 0,0 km/h (0 Bft)
05.08.2017 00:15 18,2 °C 18,3 °C 87 % 1013,5 hPa 0,0 mm 0,0 km/h (0 Bft) N-NW 347 ° 0 min 0,000 mm 0,0 UV-I 0 W/m² 16,0 °C 18,2 °C 0,0 km/h (0 Bft)
05.08.2017 00:16 18,3 °C 18,3 °C 86 % 1013,6 hPa 0,0 mm 0,0 km/h (0 Bft) N-NW 347 ° 0 min 0,000 mm 0,0 UV-I 0 W/m² 15,9 °C 18,3 °C 0,0 km/h (0 Bft)
05.08.2017 00:18 18,3 °C 18,3 °C 87 % 1013,6 hPa 0,0 mm 0,0 km/h (0 Bft) N-NW 347 ° 0 min 0,000 mm 0,0 UV-I 0 W/m² 16,1 °C 18,3 °C 1,6 km/h (1 Bft)
05.08.2017 00:19 18,4 °C 18,4 °C 86 % 1013,6 hPa 0,0 mm 0,4 km/h (0 Bft) N-NW 347 ° 0 min 0,000 mm 0,0 UV-I 0 W/m² 16,0 °C 18,4 °C 1,6 km/h (1 Bft)
05.08.2017 00:21 18,4 °C 18,4 °C 85 % 1013,6 hPa 0,0 mm 0,0 km/h (0 Bft) N-NW 347 ° 0 min 0,000 mm 0,0 UV-I 0 W/m² 15,8 °C 18,4 °C 0,0 km/h (0 Bft)
05.08.2017 00:22 18,4 °C 18,4 °C 85 % 1013,6 hPa 0,0 mm 0,0 km/h (0 Bft) N-NW 347 ° 0 min 0,000 mm 0,0 UV-I 0 W/m² 15,8 °C 18,4 °C 0,0 km/h (0 Bft)
05.08.2017 00:24 18,4 °C 18,4 °C 85 % 1013,6 hPa 0,0 mm 0,0 km/h (0 Bft) N-NW 347 ° 0 min 0,000 mm 0,0 UV-I 0 W/m² 15,8 °C 18,4 °C 0,0 km/h (0 Bft)
05.08.2017 00:25 18,4 °C 18,5 °C 85 % 1013,6 hPa 0,0 mm 0,0 km/h (0 Bft) N-NW 347 ° 0 min 0,000 mm 0,0 UV-I 0 W/m² 15,8 °C 18,4 °C 0,0 km/h (0 Bft)
05.08.2017 00:27 18,4 °C 18,5 °C 86 % 1013,7 hPa 0,0 mm 0,0 km/h (0 Bft) N-NW 347 ° 0 min 0,000 mm 0,0 UV-I 0 W/m² 16,0 °C 18,4 °C 0,0 km/h (0 Bft)
05.08.2017 00:28 18,4 °C 18,4 °C 86 % 1013,7 hPa 0,0 mm 0,0 km/h (0 Bft) N-NW 347 ° 0 min 0,000 mm 0,0 UV-I 0 W/m² 16,0 °C 18,4 °C 0,0 km/h (0 Bft)
05.08.2017 00:30 18,3 °C 18,4 °C 87 % 1013,6 hPa 0,0 mm 0,0 km/h (0 Bft) N-NW 347 ° 0 min 0,000 mm 0,0 UV-I 0 W/m² 16,1 °C 18,3 °C 0,0 km/h (0 Bft)
05.08.2017 00:31 18,3 °C 18,4 °C 87 % 1013,6 hPa 0,0 mm 0,0 km/h (0 Bft) N-NW 347 ° 0 min 0,000 mm 0,0 UV-I 0 W/m² 16,1 °C 18,3 °C 0,0 km/h (0 Bft)
05.08.2017 00:33 18,3 °C 18,3 °C 86 % 1013,7 hPa 0,0 mm 0,0 km/h (0 Bft) N-NW 347 ° 0 min 0,000 mm 0,0 UV-I 0 W/m² 15,9 °C 18,3 °C 0,0 km/h (0 Bft)
05.08.2017 00:34 18,3 °C 18,3 °C 86 % 1013,7 hPa 0,0 mm 0,0 km/h (0 Bft) N-NW 347 ° 0 min 0,000 mm 0,0 UV-I 0 W/m² 15,9 °C 18,3 °C 0,0 km/h (0 Bft)
05.08.2017 00:36 18,3 °C 18,3 °C 86 % 1013,7 hPa 0,0 mm 0,0 km/h (0 Bft) N-NW 347 ° 0 min 0,000 mm 0,0 UV-I 0 W/m² 15,9 °C 18,3 °C 0,0 km/h (0 Bft)
05.08.2017 00:37 18,3 °C 18,3 °C 86 % 1013,7 hPa 0,0 mm 0,0 km/h (0 Bft) N-NW 347 ° 0 min 0,000 mm 0,0 UV-I 0 W/m² 15,9 °C 18,3 °C 0,0 km/h (0 Bft)
05.08.2017 00:39 18,2 °C 18,3 °C 86 % 1013,8 hPa 0,0 mm 0,0 km/h (0 Bft) N-NW 347 ° 0 min 0,000 mm 0,0 UV-I 0 W/m² 15,8 °C 18,2 °C 0,0 km/h (0 Bft)
05.08.2017 00:40 18,3 °C 18,3 °C 86 % 1013,7 hPa 0,0 mm 0,0 km/h (0 Bft) N-NW 347 ° 0 min 0,000 mm 0,0 UV-I 0 W/m² 15,9 °C 18,3 °C 0,0 km/h (0 Bft)
05.08.2017 00:42 18,2 °C 18,3 °C 86 % 1013,8 hPa 0,0 mm 0,0 km/h (0 Bft) N-NW 347 ° 0 min 0,000 mm 0,0 UV-I 0 W/m² 15,8 °C 18,2 °C 0,0 km/h (0 Bft)
05.08.2017 00:43 18,2 °C 18,2 °C 86 % 1013,8 hPa 0,0 mm 0,0 km/h (0 Bft) N-NW 347 ° 0 min 0,000 mm 0,0 UV-I 0 W/m² 15,8 °C 18,2 °C 0,0 km/h (0 Bft)
05.08.2017 00:45 18,1 °C 18,2 °C 86 % 1013,8 hPa 0,0 mm 0,0 km/h (0 Bft) N-NW 347 ° 0 min 0,000 mm 0,0 UV-I 0 W/m² 15,7 °C 18,1 °C 0,0 km/h (0 Bft)
05.08.2017 00:46 18,1 °C 18,1 °C 86 % 1013,8 hPa 0,0 mm 0,0 km/h (0 Bft) N-NW 347 ° 0 min 0,000 mm 0,0 UV-I 0 W/m² 15,7 °C 18,1 °C 0,0 km/h (0 Bft)
05.08.2017 00:48 18,1 °C 18,1 °C 85 % 1013,9 hPa 0,0 mm 1,3 km/h (1 Bft) N-NW 347 ° 0 min 0,000 mm 0,0 UV-I 0 W/m² 15,5 °C 18,1 °C 3,2 km/h (1 Bft)
05.08.2017 00:49 18,1 °C 18,1 °C 85 % 1014,0 hPa 0,0 mm 1,8 km/h (1 Bft) N-NW 347 ° 0 min 0,000 mm 0,0 UV-I 0 W/m² 15,5 °C 18,1 °C 3,2 km/h (1 Bft)
05.08.2017 00:51 17,9 °C 18,1 °C 86 % 1014,0 hPa 0,0 mm 1,4 km/h (1 Bft) N-NW 347 ° 0 min 0,000 mm 0,0 UV-I 0 W/m² 15,5 °C 17,9 °C 3,2 km/h (1 Bft)
05.08.2017 00:52 17,9 °C 17,9 °C 87 % 1014,0 hPa 0,0 mm 0,2 km/h (0 Bft) N-NW 347 ° 0 min 0,000 mm 0,0 UV-I 0 W/m² 15,7 °C 17,9 °C 1,6 km/h (1 Bft)
05.08.2017 00:54 17,8 °C 17,9 °C 87 % 1014,0 hPa 0,0 mm 0,0 km/h (0 Bft) N-NW 347 ° 0 min 0,000 mm 0,0 UV-I 0 W/m² 15,6 °C 17,8 °C 1,6 km/h (1 Bft)
05.08.2017 00:55 17,8 °C 17,8 °C 87 % 1014,0 hPa 0,0 mm 0,0 km/h (0 Bft) N-NW 347 ° 0 min 0,000 mm 0,0 UV-I 0 W/m² 15,6 °C 17,8 °C 0,0 km/h (0 Bft)
05.08.2017 00:57 17,7 °C 17,8 °C 88 % 1014,0 hPa 0,0 mm 0,0 km/h (0 Bft) N-NW 347 ° 0 min 0,000 mm 0,0 UV-I 0 W/m² 15,7 °C 17,7 °C 0,0 km/h (0 Bft)
05.08.2017 00:58 17,6 °C 17,7 °C 88 % 1014,0 hPa 0,0 mm 0,0 km/h (0 Bft) N-NW 347 ° 0 min 0,000 mm 0,0 UV-I 0 W/m² 15,6 °C 17,6 °C 0,0 km/h (0 Bft)
05.08.2017 01:00 17,6 °C 17,6 °C 88 % 1014,0 hPa 0,0 mm 0,0 km/h (0 Bft) N-NW 347 ° 0 min 0,000 mm 0,0 UV-I 0 W/m² 15,6 °C 17,6 °C 0,0 km/h (0 Bft)
05.08.2017 01:01 17,6 °C 17,6 °C 89 % 1014,0 hPa 0,0 mm 0,0 km/h (0 Bft) N-NW 347 ° 0 min 0,000 mm 0,0 UV-I 0 W/m² 15,8 °C 17,6 °C 0,0 km/h (0 Bft)
05.08.2017 01:03 17,6 °C 17,6 °C 89 % 1014,1 hPa 0,0 mm 0,0 km/h (0 Bft) N-NW 347 ° 0 min 0,000 mm 0,0 UV-I 0 W/m² 15,8 °C 17,6 °C 0,0 km/h (0 Bft)
05.08.2017 01:04 17,6 °C 17,6 °C 89 % 1014,1 hPa 0,0 mm 0,0 km/h (0 Bft) N-NW 347 ° 0 min 0,000 mm 0,0 UV-I 0 W/m² 15,8 °C 17,6 °C 0,0 km/h (0 Bft)
05.08.2017 01:06 17,6 °C 17,6 °C 89 % 1013,9 hPa 0,0 mm 0,0 km/h (0 Bft) N-NW 347 ° 0 min 0,000 mm 0,0 UV-I 0 W/m² 15,8 °C 17,6 °C 0,0 km/h (0 Bft)
05.08.2017 01:07 17,6 °C 17,6 °C 89 % 1014,0 hPa 0,0 mm 0,0 km/h (0 Bft) N-NW 347 ° 0 min 0,000 mm 0,0 UV-I 0 W/m² 15,8 °C 17,6 °C 0,0 km/h (0 Bft)
05.08.2017 01:09 17,6 °C 17,6 °C 89 % 1014,0 hPa 0,0 mm 0,0 km/h (0 Bft) N-NW 347 ° 0 min 0,000 mm 0,0 UV-I 0 W/m² 15,8 °C 17,6 °C 0,0 km/h (0 Bft)
05.08.2017 01:10 17,6 °C 17,6 °C 89 % 1014,0 hPa 0,0 mm 0,0 km/h (0 Bft) N-NW 347 ° 0 min 0,000 mm 0,0 UV-I 0 W/m² 15,8 °C 17,6 °C 0,0 km/h (0 Bft)
05.08.2017 01:12 17,6 °C 17,6 °C 89 % 1014,0 hPa 0,0 mm 0,0 km/h (0 Bft) N-NW 347 ° 0 min 0,000 mm 0,0 UV-I 0 W/m² 15,8 °C 17,6 °C 0,0 km/h (0 Bft)
05.08.2017 01:13 17,6 °C 17,6 °C 89 % 1014,0 hPa 0,0 mm 0,0 km/h (0 Bft) N-NW 347 ° 0 min 0,000 mm 0,0 UV-I 0 W/m² 15,8 °C 17,6 °C 0,0 km/h (0 Bft)
05.08.2017 01:15 17,6 °C 17,6 °C 88 % 1014,0 hPa 0,0 mm 0,0 km/h (0 Bft) N-NW 347 ° 0 min 0,000 mm 0,0 UV-I 0 W/m² 15,6 °C 17,6 °C 0,0 km/h (0 Bft)
05.08.2017 01:16 17,6 °C 17,6 °C 88 % 1013,9 hPa 0,0 mm 0,0 km/h (0 Bft) N-NW 347 ° 0 min 0,000 mm 0,0 UV-I 0 W/m² 15,6 °C 17,6 °C 0,0 km/h (0 Bft)
05.08.2017 01:18 17,7 °C 17,7 °C 88 % 1014,0 hPa 0,0 mm 0,0 km/h (0 Bft) N-NW 347 ° 0 min 0,000 mm 0,0 UV-I 0 W/m² 15,7 °C 17,7 °C 0,0 km/h (0 Bft)
05.08.2017 01:19 17,7 °C 17,7 °C 89 % 1014,0 hPa 0,0 mm 0,0 km/h (0 Bft) N-NW 347 ° 0 min 0,000 mm 0,0 UV-I 0 W/m² 15,9 °C 17,7 °C 0,0 km/h (0 Bft)
05.08.2017 01:21 17,7 °C 17,7 °C 88 % 1014,1 hPa 0,0 mm 0,0 km/h (0 Bft) N-NW 347 ° 0 min 0,000 mm 0,0 UV-I 0 W/m² 15,7 °C 17,7 °C 0,0 km/h (0 Bft)
05.08.2017 01:22 17,7 °C 17,7 °C 88 % 1014,0 hPa 0,0 mm 0,0 km/h (0 Bft) N-NW 347 ° 0 min 0,000 mm 0,0 UV-I 0 W/m² 15,7 °C 17,7 °C 0,0 km/h (0 Bft)
05.08.2017 01:24 17,7 °C 17,7 °C 89 % 1014,0 hPa 0,0 mm 0,0 km/h (0 Bft) N-NW 347 ° 0 min 0,000 mm 0,0 UV-I 0 W/m² 15,9 °C 17,7 °C 0,0 km/h (0 Bft)
05.08.2017 01:25 17,7 °C 17,7 °C 89 % 1014,0 hPa 0,0 mm 0,0 km/h (0 Bft) N-NW 347 ° 0 min 0,000 mm 0,0 UV-I 0 W/m² 15,9 °C 17,7 °C 0,0 km/h (0 Bft)
05.08.2017 01:27 17,7 °C 17,7 °C 89 % 1014,0 hPa 0,0 mm 0,0 km/h (0 Bft) N-NW 347 ° 0 min 0,000 mm 0,0 UV-I 0 W/m² 15,9 °C 17,7 °C 0,0 km/h (0 Bft)
05.08.2017 01:28 17,7 °C 17,7 °C 89 % 1014,0 hPa 0,0 mm 0,0 km/h (0 Bft) N-NW 347 ° 0 min 0,000 mm 0,0 UV-I 0 W/m² 15,9 °C 17,7 °C 0,0 km/h (0 Bft)
05.08.2017 01:30 17,6 °C 17,7 °C 89 % 1014,1 hPa 0,0 mm 0,0 km/h (0 Bft) N-NW 347 ° 0 min 0,000 mm 0,0 UV-I 0 W/m² 15,8 °C 17,6 °C 0,0 km/h (0 Bft)
05.08.2017 01:31 17,6 °C 17,7 °C 89 % 1014,0 hPa 0,0 mm 0,0 km/h (0 Bft) N-NW 347 ° 0 min 0,000 mm 0,0 UV-I 0 W/m² 15,8 °C 17,6 °C 0,0 km/h (0 Bft)
05.08.2017 01:33 17,6 °C 17,6 °C 89 % 1014,0 hPa 0,0 mm 0,0 km/h (0 Bft) N-NW 347 ° 0 min 0,000 mm 0,0 UV-I 0 W/m² 15,8 °C 17,6 °C 0,0 km/h (0 Bft)
05.08.2017 01:34 17,6 °C 17,6 °C 89 % 1014,1 hPa 0,0 mm 0,0 km/h (0 Bft) N-NW 347 ° 0 min 0,000 mm 0,0 UV-I 0 W/m² 15,8 °C 17,6 °C 0,0 km/h (0 Bft)
05.08.2017 01:36 17,6 °C 17,6 °C 89 % 1014,1 hPa 0,0 mm 0,0 km/h (0 Bft) N-NW 347 ° 0 min 0,000 mm 0,0 UV-I 0 W/m² 15,8 °C 17,6 °C 0,0 km/h (0 Bft)
05.08.2017 01:37 17,6 °C 17,6 °C 89 % 1014,1 hPa 0,0 mm 0,0 km/h (0 Bft) N-NW 347 ° 0 min 0,000 mm 0,0 UV-I 0 W/m² 15,8 °C 17,6 °C 0,0 km/h (0 Bft)
05.08.2017 01:39 17,5 °C 17,6 °C 90 % 1014,1 hPa 0,0 mm 0,0 km/h (0 Bft) N-NW 347 ° 0 min 0,000 mm 0,0 UV-I 0 W/m² 15,8 °C 17,5 °C 0,0 km/h (0 Bft)
05.08.2017 01:40 17,5 °C 17,5 °C 90 % 1014,1 hPa 0,0 mm 0,0 km/h (0 Bft) N-NW 347 ° 0 min 0,000 mm 0,0 UV-I 0 W/m² 15,8 °C 17,5 °C 0,0 km/h (0 Bft)
05.08.2017 01:42 17,4 °C 17,5 °C 90 % 1014,0 hPa 0,0 mm 0,0 km/h (0 Bft) N-NW 347 ° 0 min 0,000 mm 0,0 UV-I 0 W/m² 15,7 °C 17,4 °C 0,0 km/h (0 Bft)
05.08.2017 01:43 17,5 °C 17,5 °C 90 % 1014,0 hPa 0,0 mm 1,0 km/h (0 Bft) N-NW 347 ° 0 min 0,000 mm 0,0 UV-I 0 W/m² 15,8 °C 17,5 °C 1,6 km/h (1 Bft)
05.08.2017 01:45 17,6 °C 17,6 °C 90 % 1014,0 hPa 0,0 mm 1,2 km/h (1 Bft) N-NW 347 ° 0 min 0,000 mm 0,0 UV-I 0 W/m² 15,9 °C 17,6 °C 3,2 km/h (1 Bft)
05.08.2017 01:46 17,6 °C 17,6 °C 90 % 1014,0 hPa 0,0 mm 0,1 km/h (0 Bft) N-NW 347 ° 0 min 0,000 mm 0,0 UV-I 0 W/m² 15,9 °C 17,6 °C 1,6 km/h (1 Bft)
05.08.2017 01:48 17,6 °C 17,7 °C 90 % 1013,9 hPa 0,0 mm 0,5 km/h (0 Bft) N-NW 347 ° 0 min 0,000 mm 0,0 UV-I 0 W/m² 15,9 °C 17,6 °C 1,6 km/h (1 Bft)
05.08.2017 01:49 17,6 °C 17,7 °C 90 % 1013,9 hPa 0,0 mm 1,1 km/h (1 Bft) N-NW 347 ° 0 min 0,000 mm 0,0 UV-I 0 W/m² 15,9 °C 17,6 °C 3,2 km/h (1 Bft)
05.08.2017 01:51 17,6 °C 17,6 °C 90 % 1014,0 hPa 0,0 mm 0,1 km/h (0 Bft) N-NW 347 ° 0 min 0,000 mm 0,0 UV-I 0 W/m² 15,9 °C 17,6 °C 1,6 km/h (1 Bft)
05.08.2017 01:52 17,6 °C 17,6 °C 90 % 1014,0 hPa 0,0 mm 0,0 km/h (0 Bft) N-NW 347 ° 0 min 0,000 mm 0,0 UV-I 0 W/m² 15,9 °C 17,6 °C 0,0 km/h (0 Bft)
05.08.2017 01:54 17,4 °C 17,6 °C 90 % 1014,0 hPa 0,0 mm 0,0 km/h (0 Bft) N-NW 347 ° 0 min 0,000 mm 0,0 UV-I 0 W/m² 15,7 °C 17,4 °C 0,0 km/h (0 Bft)
05.08.2017 01:55 17,3 °C 17,4 °C 89 % 1014,0 hPa 0,0 mm 0,0 km/h (0 Bft) N-NW 347 ° 0 min 0,000 mm 0,0 UV-I 0 W/m² 15,5 °C 17,3 °C 0,0 km/h (0 Bft)
05.08.2017 01:57 17,2 °C 17,3 °C 90 % 1014,0 hPa 0,0 mm 0,0 km/h (0 Bft) N-NW 347 ° 0 min 0,000 mm 0,0 UV-I 0 W/m² 15,5 °C 17,2 °C 0,0 km/h (0 Bft)
05.08.2017 01:58 17,2 °C 17,2 °C 90 % 1013,9 hPa 0,0 mm 0,0 km/h (0 Bft) N-NW 347 ° 0 min 0,000 mm 0,0 UV-I 0 W/m² 15,5 °C 17,2 °C 0,0 km/h (0 Bft)
05.08.2017 02:00 17,2 °C 17,2 °C 90 % 1013,9 hPa 0,0 mm 0,0 km/h (0 Bft) N-NW 347 ° 0 min 0,000 mm 0,0 UV-I 0 W/m² 15,5 °C 17,2 °C 0,0 km/h (0 Bft)
05.08.2017 02:01 17,3 °C 17,3 °C 90 % 1013,9 hPa 0,0 mm 1,2 km/h (1 Bft) N-NO 28 ° 0 min 0,000 mm 0,0 UV-I 0 W/m² 15,6 °C 17,3 °C 3,2 km/h (1 Bft)
05.08.2017 02:03 17,3 °C 17,3 °C 89 % 1013,9 hPa 0,0 mm 0,8 km/h (0 Bft) N-NO 28 ° 0 min 0,000 mm 0,0 UV-I 0 W/m² 15,5 °C 17,3 °C 3,2 km/h (1 Bft)
05.08.2017 02:04 17,3 °C 17,3 °C 90 % 1013,9 hPa 0,0 mm 0,0 km/h (0 Bft) N-NO 28 ° 0 min 0,000 mm 0,0 UV-I 0 W/m² 15,6 °C 17,3 °C 0,0 km/h (0 Bft)
05.08.2017 02:06 17,3 °C 17,3 °C 89 % 1014,0 hPa 0,0 mm 0,2 km/h (0 Bft) N-NO 28 ° 0 min 0,000 mm 0,0 UV-I 0 W/m² 15,5 °C 17,3 °C 1,6 km/h (1 Bft)
05.08.2017 02:07 17,3 °C 17,3 °C 89 % 1014,0 hPa 0,0 mm 0,0 km/h (0 Bft) N-NO 28 ° 0 min 0,000 mm 0,0 UV-I 0 W/m² 15,5 °C 17,3 °C 0,0 km/h (0 Bft)
05.08.2017 02:09 17,3 °C 17,3 °C 89 % 1013,9 hPa 0,0 mm 0,4 km/h (0 Bft) N-NO 28 ° 0 min 0,000 mm 0,0 UV-I 0 W/m² 15,5 °C 17,3 °C 3,2 km/h (1 Bft)
05.08.2017 02:10 17,3 °C 17,3 °C 89 % 1014,0 hPa 0,0 mm 0,2 km/h (0 Bft) N-NO 28 ° 0 min 0,000 mm 0,0 UV-I 0 W/m² 15,5 °C 17,3 °C 1,6 km/h (1 Bft)
05.08.2017 02:12 17,2 °C 17,3 °C 89 % 1014,0 hPa 0,0 mm 0,0 km/h (0 Bft) N-NO 28 ° 0 min 0,000 mm 0,0 UV-I 0 W/m² 15,4 °C 17,2 °C 0,0 km/h (0 Bft)
05.08.2017 02:13 17,1 °C 17,2 °C 89 % 1014,0 hPa 0,0 mm 0,0 km/h (0 Bft) N-NO 28 ° 0 min 0,000 mm 0,0 UV-I 0 W/m² 15,3 °C 17,1 °C 0,0 km/h (0 Bft)
05.08.2017 02:15 17,1 °C 17,1 °C 90 % 1014,0 hPa 0,0 mm 0,0 km/h (0 Bft) N-NO 28 ° 0 min 0,000 mm 0,0 UV-I 0 W/m² 15,4 °C 17,1 °C 0,0 km/h (0 Bft)
05.08.2017 02:16 17,1 °C 17,1 °C 90 % 1014,0 hPa 0,0 mm 0,0 km/h (0 Bft) N-NO 28 ° 0 min 0,000 mm 0,0 UV-I 0 W/m² 15,4 °C 17,1 °C 0,0 km/h (0 Bft)
05.08.2017 02:18 17,1 °C 17,1 °C 90 % 1014,0 hPa 0,0 mm 0,0 km/h (0 Bft) N-NO 28 ° 0 min 0,000 mm 0,0 UV-I 0 W/m² 15,4 °C 17,1 °C 0,0 km/h (0 Bft)
05.08.2017 02:19 17,1 °C 17,1 °C 90 % 1014,1 hPa 0,0 mm 0,0 km/h (0 Bft) N-NO 28 ° 0 min 0,000 mm 0,0 UV-I 0 W/m² 15,4 °C 17,1 °C 0,0 km/h (0 Bft)
05.08.2017 02:21 17,1 °C 17,1 °C 90 % 1014,0 hPa 0,0 mm 0,3 km/h (0 Bft) N-NO 28 ° 0 min 0,000 mm 0,0 UV-I 0 W/m² 15,4 °C 17,1 °C 3,2 km/h (1 Bft)
05.08.2017 02:22 17,1 °C 17,1 °C 90 % 1014,0 hPa 0,0 mm 1,4 km/h (1 Bft) N-NO 28 ° 0 min 0,000 mm 0,0 UV-I 0 W/m² 15,4 °C 17,1 °C 3,2 km/h (1 Bft)
05.08.2017 02:24 17,1 °C 17,1 °C 90 % 1014,0 hPa 0,0 mm 0,2 km/h (0 Bft) N-NO 28 ° 0 min 0,000 mm 0,0 UV-I 0 W/m² 15,4 °C 17,1 °C 1,6 km/h (1 Bft)
05.08.2017 02:25 17,0 °C 17,1 °C 90 % 1014,0 hPa 0,0 mm 1,8 km/h (1 Bft) NO 40 ° 0 min 0,000 mm 0,0 UV-I 0 W/m² 15,3 °C 17,0 °C 3,2 km/h (1 Bft)
05.08.2017 02:27 17,1 °C 17,1 °C 90 % 1014,0 hPa 0,0 mm 1,0 km/h (0 Bft) NO 40 ° 0 min 0,000 mm 0,0 UV-I 0 W/m² 15,4 °C 17,1 °C 3,2 km/h (1 Bft)
05.08.2017 02:28 17,1 °C 17,1 °C 90 % 1014,0 hPa 0,0 mm 1,8 km/h (1 Bft) NO 40 ° 0 min 0,000 mm 0,0 UV-I 0 W/m² 15,4 °C 17,1 °C 3,2 km/h (1 Bft)
05.08.2017 02:30 17,1 °C 17,1 °C 90 % 1014,0 hPa 0,0 mm 0,3 km/h (0 Bft) NO 40 ° 0 min 0,000 mm 0,0 UV-I 0 W/m² 15,4 °C 17,1 °C 3,2 km/h (1 Bft)
05.08.2017 02:31 17,1 °C 17,1 °C 90 % 1014,0 hPa 0,0 mm 0,0 km/h (0 Bft) NO 40 ° 0 min 0,000 mm 0,0 UV-I 0 W/m² 15,4 °C 17,1 °C 0,0 km/h (0 Bft)
05.08.2017 02:33 17,0 °C 17,1 °C 90 % 1014,0 hPa 0,0 mm 0,0 km/h (0 Bft) NO 55 ° 0 min 0,000 mm 0,0 UV-I 0 W/m² 15,3 °C 17,0 °C 0,0 km/h (0 Bft)
05.08.2017 02:34 17,0 °C 17,0 °C 90 % 1014,0 hPa 0,0 mm 0,0 km/h (0 Bft) NO 55 ° 0 min 0,000 mm 0,0 UV-I 0 W/m² 15,3 °C 17,0 °C 0,0 km/h (0 Bft)
05.08.2017 02:36 17,1 °C 17,1 °C 89 % 1014,0 hPa 0,0 mm 0,0 km/h (0 Bft) NO 55 ° 0 min 0,000 mm 0,0 UV-I 0 W/m² 15,3 °C 17,1 °C 0,0 km/h (0 Bft)
05.08.2017 02:37 17,1 °C 17,1 °C 88 % 1014,0 hPa 0,0 mm 0,0 km/h (0 Bft) NO 55 ° 0 min 0,000 mm 0,0 UV-I 0 W/m² 15,1 °C 17,1 °C 0,0 km/h (0 Bft)
05.08.2017 02:39 17,0 °C 17,1 °C 89 % 1014,0 hPa 0,0 mm 0,0 km/h (0 Bft) NO 55 ° 0 min 0,000 mm 0,0 UV-I 0 W/m² 15,2 °C 17,0 °C 0,0 km/h (0 Bft)
05.08.2017 02:40 16,9 °C 17,0 °C 89 % 1014,0 hPa 0,0 mm 0,0 km/h (0 Bft) NO 55 ° 0 min 0,000 mm 0,0 UV-I 0 W/m² 15,1 °C 16,9 °C 0,0 km/h (0 Bft)
05.08.2017 02:42 16,8 °C 16,9 °C 89 % 1013,9 hPa 0,0 mm 0,0 km/h (0 Bft) NO 55 ° 0 min 0,000 mm 0,0 UV-I 0 W/m² 15,0 °C 16,8 °C 0,0 km/h (0 Bft)
05.08.2017 02:43 16,8 °C 16,9 °C 89 % 1013,9 hPa 0,0 mm 0,0 km/h (0 Bft) NO 55 ° 0 min 0,000 mm 0,0 UV-I 0 W/m² 15,0 °C 16,8 °C 0,0 km/h (0 Bft)
05.08.2017 02:45 17,0 °C 17,0 °C 88 % 1013,9 hPa 0,0 mm 0,0 km/h (0 Bft) NO 55 ° 0 min 0,000 mm 0,0 UV-I 0 W/m² 15,0 °C 17,0 °C 0,0 km/h (0 Bft)
05.08.2017 02:46 17,1 °C 17,1 °C 87 % 1013,9 hPa 0,0 mm 0,0 km/h (0 Bft) NO 55 ° 0 min 0,000 mm 0,0 UV-I 0 W/m² 14,9 °C 17,1 °C 0,0 km/h (0 Bft)
05.08.2017 02:48 17,2 °C 17,2 °C 86 % 1013,8 hPa 0,0 mm 0,0 km/h (0 Bft) NO 56 ° 0 min 0,000 mm 0,0 UV-I 0 W/m² 14,8 °C 17,2 °C 0,0 km/h (0 Bft)
05.08.2017 02:49 17,2 °C 17,2 °C 86 % 1013,9 hPa 0,0 mm 0,0 km/h (0 Bft) NO 56 ° 0 min 0,000 mm 0,0 UV-I 0 W/m² 14,8 °C 17,2 °C 0,0 km/h (0 Bft)
05.08.2017 02:51 17,2 °C 17,2 °C 86 % 1013,9 hPa 0,0 mm 0,0 km/h (0 Bft) NO 56 ° 0 min 0,000 mm 0,0 UV-I 0 W/m² 14,8 °C 17,2 °C 0,0 km/h (0 Bft)
05.08.2017 02:52 17,2 °C 17,2 °C 86 % 1013,9 hPa 0,0 mm 0,0 km/h (0 Bft) NO 56 ° 0 min 0,000 mm 0,0 UV-I 0 W/m² 14,8 °C 17,2 °C 0,0 km/h (0 Bft)
05.08.2017 02:54 17,1 °C 17,2 °C 87 % 1013,8 hPa 0,0 mm 0,0 km/h (0 Bft) NO 56 ° 0 min 0,000 mm 0,0 UV-I 0 W/m² 14,9 °C 17,1 °C 0,0 km/h (0 Bft)
05.08.2017 02:55 17,1 °C 17,1 °C 87 % 1013,8 hPa 0,0 mm 0,0 km/h (0 Bft) NO 56 ° 0 min 0,000 mm 0,0 UV-I 0 W/m² 14,9 °C 17,1 °C 0,0 km/h (0 Bft)
05.08.2017 02:57 17,1 °C 17,1 °C 86 % 1013,8 hPa 0,0 mm 0,0 km/h (0 Bft) NO 56 ° 0 min 0,000 mm 0,0 UV-I 0 W/m² 14,7 °C 17,1 °C 0,0 km/h (0 Bft)
05.08.2017 02:58 17,1 °C 17,1 °C 86 % 1013,8 hPa 0,0 mm 0,0 km/h (0 Bft) NO 56 ° 0 min 0,000 mm 0,0 UV-I 0 W/m² 14,7 °C 17,1 °C 0,0 km/h (0 Bft)
05.08.2017 03:00 17,0 °C 17,2 °C 87 % 1013,8 hPa 0,0 mm 0,0 km/h (0 Bft) NO 56 ° 0 min 0,000 mm 0,0 UV-I 0 W/m² 14,8 °C 17,0 °C 0,0 km/h (0 Bft)
05.08.2017 03:01 16,9 °C 17,0 °C 88 % 1013,9 hPa 0,0 mm 0,0 km/h (0 Bft) NO 56 ° 0 min 0,000 mm 0,0 UV-I 0 W/m² 14,9 °C 16,9 °C 0,0 km/h (0 Bft)
05.08.2017 03:03 16,8 °C 16,9 °C 87 % 1013,9 hPa 0,0 mm 0,0 km/h (0 Bft) NO 56 ° 0 min 0,000 mm 0,0 UV-I 0 W/m² 14,6 °C 16,8 °C 0,0 km/h (0 Bft)
05.08.2017 03:04 16,7 °C 16,8 °C 88 % 1013,9 hPa 0,0 mm 0,0 km/h (0 Bft) NO 56 ° 0 min 0,000 mm 0,0 UV-I 0 W/m² 14,7 °C 16,7 °C 0,0 km/h (0 Bft)
05.08.2017 03:06 16,7 °C 16,7 °C 88 % 1013,9 hPa 0,0 mm 0,0 km/h (0 Bft) NO 56 ° 0 min 0,000 mm 0,0 UV-I 0 W/m² 14,7 °C 16,7 °C 0,0 km/h (0 Bft)
05.08.2017 03:07 16,7 °C 16,7 °C 88 % 1013,9 hPa 0,0 mm 0,0 km/h (0 Bft) NO 56 ° 0 min 0,000 mm 0,0 UV-I 0 W/m² 14,7 °C 16,7 °C 0,0 km/h (0 Bft)
05.08.2017 03:09 16,7 °C 16,7 °C 88 % 1013,9 hPa 0,0 mm 0,0 km/h (0 Bft) NO 56 ° 0 min 0,000 mm 0,0 UV-I 0 W/m² 14,7 °C 16,7 °C 0,0 km/h (0 Bft)
05.08.2017 03:10 16,7 °C 16,7 °C 88 % 1013,9 hPa 0,0 mm 0,0 km/h (0 Bft) NO 56 ° 0 min 0,000 mm 0,0 UV-I 0 W/m² 14,7 °C 16,7 °C 0,0 km/h (0 Bft)
05.08.2017 03:12 16,6 °C 16,7 °C 88 % 1013,9 hPa 0,0 mm 0,0 km/h (0 Bft) NO 56 ° 0 min 0,000 mm 0,0 UV-I 0 W/m² 14,6 °C 16,6 °C 0,0 km/h (0 Bft)
05.08.2017 03:13 16,6 °C 16,6 °C 88 % 1013,9 hPa 0,0 mm 0,0 km/h (0 Bft) NO 56 ° 0 min 0,000 mm 0,0 UV-I 0 W/m² 14,6 °C 16,6 °C 0,0 km/h (0 Bft)
05.08.2017 03:15 16,4 °C 16,6 °C 89 % 1013,9 hPa 0,0 mm 0,0 km/h (0 Bft) NO 56 ° 0 min 0,000 mm 0,0 UV-I 0 W/m² 14,6 °C 16,4 °C 0,0 km/h (0 Bft)
05.08.2017 03:16 16,3 °C 16,4 °C 88 % 1013,9 hPa 0,0 mm 0,0 km/h (0 Bft) NO 56 ° 0 min 0,000 mm 0,0 UV-I 0 W/m² 14,3 °C 16,3 °C 0,0 km/h (0 Bft)
05.08.2017 03:18 16,3 °C 16,3 °C 89 % 1013,8 hPa 0,0 mm 0,0 km/h (0 Bft) NO 56 ° 0 min 0,000 mm 0,0 UV-I 0 W/m² 14,5 °C 16,3 °C 0,0 km/h (0 Bft)
05.08.2017 03:19 16,2 °C 16,3 °C 89 % 1013,9 hPa 0,0 mm 0,0 km/h (0 Bft) NO 56 ° 0 min 0,000 mm 0,0 UV-I 0 W/m² 14,4 °C 16,2 °C 0,0 km/h (0 Bft)
05.08.2017 03:21 16,2 °C 16,3 °C 89 % 1013,9 hPa 0,0 mm 0,0 km/h (0 Bft) NO 56 ° 0 min 0,000 mm 0,0 UV-I 0 W/m² 14,4 °C 16,2 °C 0,0 km/h (0 Bft)
05.08.2017 03:22 16,2 °C 16,2 °C 89 % 1013,9 hPa 0,0 mm 0,0 km/h (0 Bft) NO 56 ° 0 min 0,000 mm 0,0 UV-I 0 W/m² 14,4 °C 16,2 °C 0,0 km/h (0 Bft)
05.08.2017 03:24 16,2 °C 16,2 °C 89 % 1013,9 hPa 0,0 mm 0,0 km/h (0 Bft) NO 56 ° 0 min 0,000 mm 0,0 UV-I 0 W/m² 14,4 °C 16,2 °C 0,0 km/h (0 Bft)
05.08.2017 03:25 16,2 °C 16,2 °C 89 % 1013,8 hPa 0,0 mm 0,0 km/h (0 Bft) NO 56 ° 0 min 0,000 mm 0,0 UV-I 0 W/m² 14,4 °C 16,2 °C 0,0 km/h (0 Bft)
05.08.2017 03:27 16,2 °C 16,2 °C 89 % 1013,9 hPa 0,0 mm 0,0 km/h (0 Bft) NO 56 ° 0 min 0,000 mm 0,0 UV-I 0 W/m² 14,4 °C 16,2 °C 0,0 km/h (0 Bft)
05.08.2017 03:28 16,2 °C 16,2 °C 89 % 1013,9 hPa 0,0 mm 0,0 km/h (0 Bft) NO 56 ° 0 min 0,000 mm 0,0 UV-I 0 W/m² 14,4 °C 16,2 °C 0,0 km/h (0 Bft)
05.08.2017 03:30 16,2 °C 16,2 °C 89 % 1013,9 hPa 0,0 mm 0,0 km/h (0 Bft) NO 56 ° 0 min 0,000 mm 0,0 UV-I 0 W/m² 14,4 °C 16,2 °C 0,0 km/h (0 Bft)
05.08.2017 03:31 16,2 °C 16,2 °C 89 % 1013,9 hPa 0,0 mm 0,0 km/h (0 Bft) NO 56 ° 0 min 0,000 mm 0,0 UV-I 0 W/m² 14,4 °C 16,2 °C 0,0 km/h (0 Bft)
05.08.2017 03:33 16,2 °C 16,2 °C 89 % 1013,8 hPa 0,0 mm 0,0 km/h (0 Bft) NO 56 ° 0 min 0,000 mm 0,0 UV-I 0 W/m² 14,4 °C 16,2 °C 0,0 km/h (0 Bft)
05.08.2017 03:34 16,1 °C 16,2 °C 89 % 1013,7 hPa 0,0 mm 0,0 km/h (0 Bft) NO 56 ° 0 min 0,000 mm 0,0 UV-I 0 W/m² 14,3 °C 16,1 °C 0,0 km/h (0 Bft)
05.08.2017 03:36 16,1 °C 16,1 °C 89 % 1013,7 hPa 0,0 mm 0,0 km/h (0 Bft) NO 56 ° 0 min 0,000 mm 0,0 UV-I 0 W/m² 14,3 °C 16,1 °C 0,0 km/h (0 Bft)
05.08.2017 03:37 16,1 °C 16,1 °C 89 % 1013,7 hPa 0,0 mm 0,0 km/h (0 Bft) NO 56 ° 0 min 0,000 mm 0,0 UV-I 0 W/m² 14,3 °C 16,1 °C 0,0 km/h (0 Bft)
05.08.2017 03:39 16,0 °C 16,1 °C 89 % 1013,8 hPa 0,0 mm 0,0 km/h (0 Bft) NO 56 ° 0 min 0,000 mm 0,0 UV-I 0 W/m² 14,2 °C 16,0 °C 0,0 km/h (0 Bft)
05.08.2017 03:40 15,9 °C 16,0 °C 89 % 1013,8 hPa 0,0 mm 0,0 km/h (0 Bft) NO 56 ° 0 min 0,000 mm 0,0 UV-I 0 W/m² 14,1 °C 15,9 °C 0,0 km/h (0 Bft)
05.08.2017 03:42 15,8 °C 15,9 °C 89 % 1013,8 hPa 0,0 mm 0,0 km/h (0 Bft) NO 56 ° 0 min 0,000 mm 0,0 UV-I 0 W/m² 14,0 °C 15,8 °C 0,0 km/h (0 Bft)
05.08.2017 03:43 15,8 °C 15,8 °C 89 % 1013,8 hPa 0,0 mm 0,0 km/h (0 Bft) NO 56 ° 0 min 0,000 mm 0,0 UV-I 0 W/m² 14,0 °C 15,8 °C 0,0 km/h (0 Bft)
05.08.2017 03:45 15,8 °C 15,8 °C 89 % 1013,8 hPa 0,0 mm 0,0 km/h (0 Bft) NO 56 ° 0 min 0,000 mm 0,0 UV-I 0 W/m² 14,0 °C 15,8 °C 0,0 km/h (0 Bft)
05.08.2017 03:46 15,7 °C 15,8 °C 89 % 1013,7 hPa 0,0 mm 0,0 km/h (0 Bft) NO 56 ° 0 min 0,000 mm 0,0 UV-I 0 W/m² 13,9 °C 15,7 °C 0,0 km/h (0 Bft)
05.08.2017 03:48 15,7 °C 15,8 °C 90 % 1013,7 hPa 0,0 mm 0,0 km/h (0 Bft) NO 56 ° 0 min 0,000 mm 0,0 UV-I 0 W/m² 14,1 °C 15,7 °C 0,0 km/h (0 Bft)
05.08.2017 03:49 15,7 °C 15,7 °C 90 % 1013,7 hPa 0,0 mm 0,0 km/h (0 Bft) NO 56 ° 0 min 0,000 mm 0,0 UV-I 0 W/m² 14,1 °C 15,7 °C 0,0 km/h (0 Bft)
05.08.2017 03:51 15,6 °C 15,7 °C 90 % 1013,7 hPa 0,0 mm 0,0 km/h (0 Bft) NO 56 ° 0 min 0,000 mm 0,0 UV-I 0 W/m² 14,0 °C 15,6 °C 0,0 km/h (0 Bft)
05.08.2017 03:52 15,6 °C 15,6 °C 90 % 1013,7 hPa 0,0 mm 0,0 km/h (0 Bft) NO 56 ° 0 min 0,000 mm 0,0 UV-I 0 W/m² 14,0 °C 15,6 °C 0,0 km/h (0 Bft)
05.08.2017 03:54 15,6 °C 15,6 °C 90 % 1013,7 hPa 0,0 mm 0,0 km/h (0 Bft) NO 56 ° 0 min 0,000 mm 0,0 UV-I 0 W/m² 14,0 °C 15,6 °C 0,0 km/h (0 Bft)
05.08.2017 03:55 15,6 °C 15,6 °C 90 % 1013,7 hPa 0,0 mm 0,0 km/h (0 Bft) NO 56 ° 0 min 0,000 mm 0,0 UV-I 0 W/m² 14,0 °C 15,6 °C 0,0 km/h (0 Bft)
05.08.2017 03:57 15,6 °C 15,7 °C 90 % 1013,7 hPa 0,0 mm 0,0 km/h (0 Bft) NO 56 ° 0 min 0,000 mm 0,0 UV-I 0 W/m² 14,0 °C 15,6 °C 0,0 km/h (0 Bft)
05.08.2017 03:58 15,6 °C 15,7 °C 90 % 1013,7 hPa 0,0 mm 0,0 km/h (0 Bft) NO 56 ° 0 min 0,000 mm 0,0 UV-I 0 W/m² 14,0 °C 15,6 °C 0,0 km/h (0 Bft)
05.08.2017 04:00 15,5 °C 15,6 °C 90 % 1013,7 hPa 0,0 mm 0,0 km/h (0 Bft) NO 56 ° 0 min 0,000 mm 0,0 UV-I 0 W/m² 13,9 °C 15,5 °C 0,0 km/h (0 Bft)
05.08.2017 04:03 15,4 °C 15,6 °C 90 % 1013,7 hPa 0,0 mm 0,0 km/h (0 Bft) NO 56 ° 0 min 0,000 mm 0,0 UV-I 0 W/m² 13,8 °C 15,4 °C 0,0 km/h (0 Bft)
05.08.2017 04:04 15,4 °C 15,4 °C 90 % 1013,7 hPa 0,0 mm 0,0 km/h (0 Bft) NO 56 ° 0 min 0,000 mm 0,0 UV-I 0 W/m² 13,8 °C 15,4 °C 0,0 km/h (0 Bft)
05.08.2017 04:05 15,4 °C 15,4 °C 90 % 1013,7 hPa 0,0 mm 0,0 km/h (0 Bft) NO 56 ° 0 min 0,000 mm 0,0 UV-I 0 W/m² 13,8 °C 15,4 °C 0,0 km/h (0 Bft)
05.08.2017 04:07 15,4 °C 15,4 °C 90 % 1013,7 hPa 0,0 mm 0,0 km/h (0 Bft) NO 56 ° 0 min 0,000 mm 0,0 UV-I 0 W/m² 13,8 °C 15,4 °C 0,0 km/h (0 Bft)
05.08.2017 04:08 15,4 °C 15,4 °C 90 % 1013,7 hPa 0,0 mm 0,0 km/h (0 Bft) NO 56 ° 0 min 0,000 mm 0,0 UV-I 0 W/m² 13,8 °C 15,4 °C 0,0 km/h (0 Bft)
05.08.2017 04:10 15,4 °C 15,4 °C 90 % 1013,7 hPa 0,0 mm 0,0 km/h (0 Bft) NO 56 ° 0 min 0,000 mm 0,0 UV-I 0 W/m² 13,8 °C 15,4 °C 0,0 km/h (0 Bft)
05.08.2017 04:11 15,4 °C 15,4 °C 90 % 1013,7 hPa 0,0 mm 0,0 km/h (0 Bft) NO 56 ° 0 min 0,000 mm 0,0 UV-I 0 W/m² 13,8 °C 15,4 °C 0,0 km/h (0 Bft)
05.08.2017 04:13 15,3 °C 15,4 °C 90 % 1013,7 hPa 0,0 mm 0,0 km/h (0 Bft) NO 56 ° 0 min 0,000 mm 0,0 UV-I 0 W/m² 13,7 °C 15,3 °C 0,0 km/h (0 Bft)
05.08.2017 04:14 15,2 °C 15,3 °C 90 % 1013,7 hPa 0,0 mm 0,0 km/h (0 Bft) NO 56 ° 0 min 0,000 mm 0,0 UV-I 0 W/m² 13,6 °C 15,2 °C 0,0 km/h (0 Bft)
05.08.2017 04:16 15,1 °C 15,2 °C 91 % 1013,7 hPa 0,0 mm 0,0 km/h (0 Bft) NO 56 ° 0 min 0,000 mm 0,0 UV-I 0 W/m² 13,6 °C 15,1 °C 0,0 km/h (0 Bft)
05.08.2017 04:17 15,1 °C 15,1 °C 91 % 1013,7 hPa 0,0 mm 0,0 km/h (0 Bft) NO 56 ° 0 min 0,000 mm 0,0 UV-I 0 W/m² 13,6 °C 15,1 °C 0,0 km/h (0 Bft)
05.08.2017 04:19 15,1 °C 15,1 °C 91 % 1013,7 hPa 0,0 mm 0,0 km/h (0 Bft) NO 56 ° 0 min 0,000 mm 0,0 UV-I 0 W/m² 13,6 °C 15,1 °C 0,0 km/h (0 Bft)
05.08.2017 04:20 15,1 °C 15,1 °C 91 % 1013,7 hPa 0,0 mm 0,0 km/h (0 Bft) NO 56 ° 0 min 0,000 mm 0,0 UV-I 0 W/m² 13,6 °C 15,1 °C 0,0 km/h (0 Bft)
05.08.2017 04:22 15,1 °C 15,1 °C 91 % 1013,7 hPa 0,0 mm 0,0 km/h (0 Bft) NO 56 ° 0 min 0,000 mm 0,0 UV-I 0 W/m² 13,6 °C 15,1 °C 0,0 km/h (0 Bft)
05.08.2017 04:23 15,1 °C 15,1 °C 91 % 1013,7 hPa 0,0 mm 0,0 km/h (0 Bft) NO 56 ° 0 min 0,000 mm 0,0 UV-I 0 W/m² 13,6 °C 15,1 °C 0,0 km/h (0 Bft)
05.08.2017 04:25 15,1 °C 15,1 °C 91 % 1013,8 hPa 0,0 mm 0,0 km/h (0 Bft) NO 56 ° 0 min 0,000 mm 0,0 UV-I 0 W/m² 13,6 °C 15,1 °C 0,0 km/h (0 Bft)
05.08.2017 04:26 15,1 °C 15,1 °C 91 % 1013,8 hPa 0,0 mm 0,0 km/h (0 Bft) NO 56 ° 0 min 0,000 mm 0,0 UV-I 0 W/m² 13,6 °C 15,1 °C 0,0 km/h (0 Bft)
05.08.2017 04:28 15,2 °C 15,2 °C 91 % 1013,7 hPa 0,0 mm 0,0 km/h (0 Bft) NO 56 ° 0 min 0,000 mm 0,0 UV-I 0 W/m² 13,7 °C 15,2 °C 0,0 km/h (0 Bft)
05.08.2017 04:29 15,2 °C 15,2 °C 91 % 1013,7 hPa 0,0 mm 0,0 km/h (0 Bft) NO 56 ° 0 min 0,000 mm 0,0 UV-I 0 W/m² 13,7 °C 15,2 °C 0,0 km/h (0 Bft)
05.08.2017 04:31 15,1 °C 15,2 °C 91 % 1013,7 hPa 0,0 mm 0,0 km/h (0 Bft) NO 56 ° 0 min 0,000 mm 0,0 UV-I 0 W/m² 13,6 °C 15,1 °C 0,0 km/h (0 Bft)
05.08.2017 04:32 15,1 °C 15,1 °C 91 % 1013,7 hPa 0,0 mm 0,0 km/h (0 Bft) NO 56 ° 0 min 0,000 mm 0,0 UV-I 0 W/m² 13,6 °C 15,1 °C 0,0 km/h (0 Bft)
05.08.2017 04:34 14,9 °C 15,1 °C 91 % 1013,6 hPa 0,0 mm 0,0 km/h (0 Bft) NO 56 ° 0 min 0,000 mm 0,0 UV-I 0 W/m² 13,4 °C 14,9 °C 0,0 km/h (0 Bft)
05.08.2017 04:35 14,9 °C 14,9 °C 92 % 1013,6 hPa 0,0 mm 0,0 km/h (0 Bft) NO 56 ° 0 min 0,000 mm 0,0 UV-I 0 W/m² 13,6 °C 14,9 °C 0,0 km/h (0 Bft)
05.08.2017 04:37 14,9 °C 14,9 °C 92 % 1013,6 hPa 0,0 mm 0,0 km/h (0 Bft) NO 56 ° 0 min 0,000 mm 0,0 UV-I 0 W/m² 13,6 °C 14,9 °C 0,0 km/h (0 Bft)
05.08.2017 04:38 14,9 °C 14,9 °C 92 % 1013,6 hPa 0,0 mm 0,0 km/h (0 Bft) NO 56 ° 0 min 0,000 mm 0,0 UV-I 0 W/m² 13,6 °C 14,9 °C 0,0 km/h (0 Bft)
05.08.2017 04:40 14,9 °C 14,9 °C 91 % 1013,6 hPa 0,0 mm 0,0 km/h (0 Bft) NO 56 ° 0 min 0,000 mm 0,0 UV-I 0 W/m² 13,4 °C 14,9 °C 0,0 km/h (0 Bft)
05.08.2017 04:41 14,8 °C 14,9 °C 91 % 1013,6 hPa 0,0 mm 0,0 km/h (0 Bft) NO 56 ° 0 min 0,000 mm 0,0 UV-I 0 W/m² 13,3 °C 14,8 °C 0,0 km/h (0 Bft)
05.08.2017 04:43 14,8 °C 14,8 °C 92 % 1013,6 hPa 0,0 mm 0,0 km/h (0 Bft) NO 56 ° 0 min 0,000 mm 0,0 UV-I 0 W/m² 13,5 °C 14,8 °C 0,0 km/h (0 Bft)
05.08.2017 04:44 14,8 °C 14,8 °C 92 % 1013,6 hPa 0,0 mm 0,0 km/h (0 Bft) NO 56 ° 0 min 0,000 mm 0,0 UV-I 0 W/m² 13,5 °C 14,8 °C 0,0 km/h (0 Bft)
05.08.2017 04:46 14,8 °C 14,8 °C 92 % 1013,6 hPa 0,0 mm 0,0 km/h (0 Bft) NO 56 ° 0 min 0,000 mm 0,0 UV-I 0 W/m² 13,5 °C 14,8 °C 0,0 km/h (0 Bft)
05.08.2017 04:47 14,8 °C 14,8 °C 92 % 1013,6 hPa 0,0 mm 0,0 km/h (0 Bft) NO 56 ° 0 min 0,000 mm 0,0 UV-I 0 W/m² 13,5 °C 14,8 °C 0,0 km/h (0 Bft)
05.08.2017 04:49 14,8 °C 14,8 °C 92 % 1013,6 hPa 0,0 mm 0,0 km/h (0 Bft) NO 56 ° 0 min 0,000 mm 0,0 UV-I 0 W/m² 13,5 °C 14,8 °C 0,0 km/h (0 Bft)
05.08.2017 04:50 14,8 °C 14,8 °C 92 % 1013,6 hPa 0,0 mm 0,0 km/h (0 Bft) NO 56 ° 0 min 0,000 mm 0,0 UV-I 0 W/m² 13,5 °C 14,8 °C 0,0 km/h (0 Bft)
05.08.2017 04:52 14,9 °C 14,9 °C 92 % 1013,5 hPa 0,0 mm 0,0 km/h (0 Bft) NO 56 ° 0 min 0,000 mm 0,0 UV-I 0 W/m² 13,6 °C 14,9 °C 0,0 km/h (0 Bft)
05.08.2017 04:53 14,9 °C 14,9 °C 92 % 1013,5 hPa 0,0 mm 0,0 km/h (0 Bft) NO 56 ° 0 min 0,000 mm 0,0 UV-I 0 W/m² 13,6 °C 14,9 °C 0,0 km/h (0 Bft)
05.08.2017 04:54 14,9 °C 14,9 °C 92 % 1013,5 hPa 0,0 mm 0,0 km/h (0 Bft) NO 56 ° 0 min 0,000 mm 0,0 UV-I 0 W/m² 13,6 °C 14,9 °C 0,0 km/h (0 Bft)
05.08.2017 04:56 14,9 °C 14,9 °C 92 % 1013,5 hPa 0,0 mm 0,0 km/h (0 Bft) NO 56 ° 0 min 0,000 mm 0,0 UV-I 0 W/m² 13,6 °C 14,9 °C 0,0 km/h (0 Bft)
05.08.2017 04:57 14,9 °C 14,9 °C 92 % 1013,5 hPa 0,0 mm 0,0 km/h (0 Bft) NO 56 ° 0 min 0,000 mm 0,0 UV-I 0 W/m² 13,6 °C 14,9 °C 0,0 km/h (0 Bft)
05.08.2017 04:58 14,9 °C 14,9 °C 92 % 1013,5 hPa 0,0 mm 0,0 km/h (0 Bft) NO 56 ° 0 min 0,000 mm 0,0 UV-I 0 W/m² 13,6 °C 14,9 °C 0,0 km/h (0 Bft)
05.08.2017 05:00 14,8 °C 14,9 °C 92 % 1013,5 hPa 0,0 mm 0,0 km/h (0 Bft) NO 56 ° 0 min 0,000 mm 0,0 UV-I 0 W/m² 13,5 °C 14,8 °C 0,0 km/h (0 Bft)
05.08.2017 05:01 14,8 °C 14,8 °C 92 % 1013,5 hPa 0,0 mm 0,0 km/h (0 Bft) NO 56 ° 0 min 0,000 mm 0,0 UV-I 0 W/m² 13,5 °C 14,8 °C 0,0 km/h (0 Bft)
05.08.2017 05:03 14,8 °C 14,8 °C 92 % 1013,4 hPa 0,0 mm 0,0 km/h (0 Bft) NO 56 ° 0 min 0,000 mm 0,0 UV-I 0 W/m² 13,5 °C 14,8 °C 0,0 km/h (0 Bft)
05.08.2017 05:04 14,7 °C 14,8 °C 92 % 1013,4 hPa 0,0 mm 0,0 km/h (0 Bft) NO 56 ° 0 min 0,000 mm 0,0 UV-I 0 W/m² 13,4 °C 14,7 °C 0,0 km/h (0 Bft)
05.08.2017 05:06 14,6 °C 14,7 °C 92 % 1013,5 hPa 0,0 mm 0,0 km/h (0 Bft) NO 56 ° 0 min 0,000 mm 0,0 UV-I 0 W/m² 13,3 °C 14,6 °C 0,0 km/h (0 Bft)
05.08.2017 05:07 14,6 °C 14,6 °C 92 % 1013,5 hPa 0,0 mm 0,0 km/h (0 Bft) NO 56 ° 0 min 0,000 mm 0,0 UV-I 0 W/m² 13,3 °C 14,6 °C 0,0 km/h (0 Bft)
05.08.2017 05:09 14,6 °C 14,6 °C 93 % 1013,4 hPa 0,0 mm 0,0 km/h (0 Bft) NO 56 ° 0 min 0,000 mm 0,0 UV-I 0 W/m² 13,5 °C 14,6 °C 0,0 km/h (0 Bft)
05.08.2017 05:10 14,6 °C 14,6 °C 93 % 1013,4 hPa 0,0 mm 0,0 km/h (0 Bft) NO 56 ° 0 min 0,000 mm 0,0 UV-I 0 W/m² 13,5 °C 14,6 °C 0,0 km/h (0 Bft)
05.08.2017 05:12 14,6 °C 14,7 °C 93 % 1013,4 hPa 0,0 mm 0,0 km/h (0 Bft) NO 56 ° 0 min 0,000 mm 0,0 UV-I 0 W/m² 13,5 °C 14,6 °C 0,0 km/h (0 Bft)
05.08.2017 05:13 14,7 °C 14,7 °C 93 % 1013,4 hPa 0,0 mm 0,0 km/h (0 Bft) N 0 ° 0 min 0,000 mm 0,0 UV-I 0 W/m² 13,6 °C 14,7 °C 0,0 km/h (0 Bft)
05.08.2017 05:14 14,7 °C 14,7 °C 93 % 1013,4 hPa 0,0 mm 0,0 km/h (0 Bft) N 0 ° 0 min 0,000 mm 0,0 UV-I 0 W/m² 13,6 °C 14,7 °C 0,0 km/h (0 Bft)
05.08.2017 05:15 14,7 °C 14,7 °C 93 % 1013,4 hPa 0,0 mm 0,0 km/h (0 Bft) N 0 ° 0 min 0,000 mm 0,0 UV-I 0 W/m² 13,6 °C 14,7 °C 0,0 km/h (0 Bft)
05.08.2017 05:16 14,7 °C 14,7 °C 93 % 1013,4 hPa 0,0 mm 0,0 km/h (0 Bft) N 0 ° 0 min 0,000 mm 0,0 UV-I 0 W/m² 13,6 °C 14,7 °C 0,0 km/h (0 Bft)
05.08.2017 05:17 14,7 °C 14,7 °C 93 % 1013,4 hPa 0,0 mm 0,0 km/h (0 Bft) N 0 ° 0 min 0,000 mm 0,0 UV-I 0 W/m² 13,6 °C 14,7 °C 0,0 km/h (0 Bft)
05.08.2017 05:18 14,7 °C 14,7 °C 93 % 1013,3 hPa 0,0 mm 0,0 km/h (0 Bft) N 0 ° 0 min 0,000 mm 0,0 UV-I 0 W/m² 13,6 °C 14,7 °C 0,0 km/h (0 Bft)
05.08.2017 05:19 14,7 °C 14,7 °C 93 % 1013,4 hPa 0,0 mm 0,0 km/h (0 Bft) N 0 ° 0 min 0,000 mm 0,0 UV-I 0 W/m² 13,6 °C 14,7 °C 0,0 km/h (0 Bft)
05.08.2017 05:20 14,6 °C 14,7 °C 92 % 1013,3 hPa 0,0 mm 0,0 km/h (0 Bft) N 0 ° 0 min 0,000 mm 0,0 UV-I 0 W/m² 13,3 °C 14,6 °C 0,0 km/h (0 Bft)
05.08.2017 05:21 14,6 °C 14,6 °C 92 % 1013,4 hPa 0,0 mm 0,0 km/h (0 Bft) N 0 ° 0 min 0,000 mm 0,0 UV-I 0 W/m² 13,3 °C 14,6 °C 0,0 km/h (0 Bft)
05.08.2017 05:25 14,6 °C 14,6 °C 93 % 1013,3 hPa 0,0 mm 0,0 km/h (0 Bft) NO 56 ° 0 min 0,000 mm 0,0 UV-I 0 W/m² 13,5 °C 14,6 °C 0,0 km/h (0 Bft)
05.08.2017 05:26 14,7 °C 14,7 °C 93 % 1013,3 hPa 0,0 mm 0,0 km/h (0 Bft) NO 56 ° 0 min 0,000 mm 0,0 UV-I 0 W/m² 13,6 °C 14,7 °C 0,0 km/h (0 Bft)
05.08.2017 05:27 14,7 °C 14,7 °C 93 % 1013,4 hPa 0,0 mm 0,0 km/h (0 Bft) NO 56 ° 0 min 0,000 mm 0,0 UV-I 0 W/m² 13,6 °C 14,7 °C 0,0 km/h (0 Bft)
05.08.2017 05:28 14,6 °C 14,7 °C 93 % 1013,4 hPa 0,0 mm 0,0 km/h (0 Bft) NO 56 ° 0 min 0,000 mm 0,0 UV-I 0 W/m² 13,5 °C 14,6 °C 0,0 km/h (0 Bft)
05.08.2017 05:29 14,6 °C 14,6 °C 93 % 1013,4 hPa 0,0 mm 0,0 km/h (0 Bft) NO 56 ° 0 min 0,000 mm 0,0 UV-I 0 W/m² 13,5 °C 14,6 °C 0,0 km/h (0 Bft)
05.08.2017 05:30 14,6 °C 14,6 °C 93 % 1013,4 hPa 0,0 mm 0,0 km/h (0 Bft) NO 56 ° 0 min 0,000 mm 0,0 UV-I 0 W/m² 13,5 °C 14,6 °C 0,0 km/h (0 Bft)
05.08.2017 05:31 14,4 °C 14,6 °C 93 % 1013,4 hPa 0,0 mm 0,0 km/h (0 Bft) NO 56 ° 0 min 0,000 mm 0,0 UV-I 0 W/m² 13,3 °C 14,4 °C 0,0 km/h (0 Bft)
05.08.2017 05:32 14,4 °C 14,4 °C 93 % 1013,4 hPa 0,0 mm 0,0 km/h (0 Bft) NO 56 ° 0 min 0,000 mm 0,0 UV-I 0 W/m² 13,3 °C 14,4 °C 0,0 km/h (0 Bft)
05.08.2017 05:34 14,3 °C 14,4 °C 93 % 1013,4 hPa 0,0 mm 0,0 km/h (0 Bft) NO 56 ° 0 min 0,000 mm 0,0 UV-I 0 W/m² 13,2 °C 14,3 °C 0,0 km/h (0 Bft)
05.08.2017 05:35 14,3 °C 14,4 °C 93 % 1013,4 hPa 0,0 mm 0,0 km/h (0 Bft) NO 56 ° 0 min 0,000 mm 0,0 UV-I 0 W/m² 13,2 °C 14,3 °C 0,0 km/h (0 Bft)
05.08.2017 05:36 14,3 °C 14,3 °C 93 % 1013,4 hPa 0,0 mm 0,0 km/h (0 Bft) NO 56 ° 0 min 0,000 mm 0,0 UV-I 0 W/m² 13,2 °C 14,3 °C 0,0 km/h (0 Bft)
05.08.2017 05:37 14,4 °C 14,4 °C 93 % 1013,4 hPa 0,0 mm 0,0 km/h (0 Bft) NO 56 ° 0 min 0,000 mm 0,0 UV-I 0 W/m² 13,3 °C 14,4 °C 0,0 km/h (0 Bft)
05.08.2017 05:38 14,4 °C 14,4 °C 94 % 1013,4 hPa 0,0 mm 0,0 km/h (0 Bft) NO 56 ° 0 min 0,000 mm 0,0 UV-I 0 W/m² 13,4 °C 14,4 °C 0,0 km/h (0 Bft)
05.08.2017 05:39 14,5 °C 14,5 °C 94 % 1013,4 hPa 0,0 mm 0,0 km/h (0 Bft) NO 56 ° 0 min 0,000 mm 0,0 UV-I 0 W/m² 13,5 °C 14,5 °C 0,0 km/h (0 Bft)
05.08.2017 05:40 14,6 °C 14,6 °C 94 % 1013,3 hPa 0,0 mm 0,0 km/h (0 Bft) NO 56 ° 0 min 0,000 mm 0,0 UV-I 0 W/m² 13,6 °C 14,6 °C 0,0 km/h (0 Bft)
05.08.2017 05:41 14,5 °C 14,6 °C 94 % 1013,4 hPa 0,0 mm 0,0 km/h (0 Bft) NO 56 ° 0 min 0,000 mm 0,0 UV-I 0 W/m² 13,5 °C 14,5 °C 0,0 km/h (0 Bft)
05.08.2017 05:42 14,4 °C 14,5 °C 94 % 1013,4 hPa 0,0 mm 0,0 km/h (0 Bft) NO 56 ° 0 min 0,000 mm 0,0 UV-I 0 W/m² 13,4 °C 14,4 °C 0,0 km/h (0 Bft)
05.08.2017 05:43 14,4 °C 14,4 °C 94 % 1013,4 hPa 0,0 mm 0,0 km/h (0 Bft) NO 56 ° 0 min 0,000 mm 0,0 UV-I 0 W/m² 13,4 °C 14,4 °C 0,0 km/h (0 Bft)
05.08.2017 05:44 14,4 °C 14,4 °C 94 % 1013,4 hPa 0,0 mm 0,0 km/h (0 Bft) NO 56 ° 0 min 0,000 mm 0,0 UV-I 0 W/m² 13,4 °C 14,4 °C 0,0 km/h (0 Bft)
05.08.2017 05:45 14,4 °C 14,4 °C 93 % 1013,4 hPa 0,0 mm 0,0 km/h (0 Bft) NO 56 ° 0 min 0,000 mm 0,0 UV-I 0 W/m² 13,3 °C 14,4 °C 0,0 km/h (0 Bft)
05.08.2017 05:46 14,3 °C 14,4 °C 94 % 1013,5 hPa 0,0 mm 0,0 km/h (0 Bft) NO 56 ° 0 min 0,000 mm 0,0 UV-I 0 W/m² 13,3 °C 14,3 °C 0,0 km/h (0 Bft)
05.08.2017 05:47 14,4 °C 14,4 °C 94 % 1013,5 hPa 0,0 mm 0,0 km/h (0 Bft) NO 56 ° 0 min 0,000 mm 0,0 UV-I 0 W/m² 13,4 °C 14,4 °C 0,0 km/h (0 Bft)
05.08.2017 05:48 14,4 °C 14,4 °C 94 % 1013,4 hPa 0,0 mm 0,0 km/h (0 Bft) NO 56 ° 0 min 0,000 mm 0,0 UV-I 0 W/m² 13,4 °C 14,4 °C 0,0 km/h (0 Bft)
05.08.2017 05:49 14,3 °C 14,4 °C 94 % 1013,4 hPa 0,0 mm 0,0 km/h (0 Bft) NO 56 ° 0 min 0,000 mm 0,0 UV-I 0 W/m² 13,3 °C 14,3 °C 0,0 km/h (0 Bft)
05.08.2017 05:50 14,4 °C 14,4 °C 94 % 1013,4 hPa 0,0 mm 0,0 km/h (0 Bft) NO 56 ° 0 min 0,000 mm 0,0 UV-I 0 W/m² 13,4 °C 14,4 °C 0,0 km/h (0 Bft)
05.08.2017 05:51 14,5 °C 14,5 °C 94 % 1013,4 hPa 0,0 mm 0,0 km/h (0 Bft) NO 56 ° 0 min 0,000 mm 0,0 UV-I 0 W/m² 13,5 °C 14,5 °C 0,0 km/h (0 Bft)
05.08.2017 05:52 14,4 °C 14,5 °C 94 % 1013,4 hPa 0,0 mm 0,0 km/h (0 Bft) NO 56 ° 0 min 0,000 mm 0,0 UV-I 0 W/m² 13,4 °C 14,4 °C 0,0 km/h (0 Bft)
05.08.2017 05:53 14,4 °C 14,4 °C 94 % 1013,4 hPa 0,0 mm 0,0 km/h (0 Bft) NO 56 ° 0 min 0,000 mm 0,0 UV-I 0 W/m² 13,4 °C 14,4 °C 0,0 km/h (0 Bft)
05.08.2017 05:54 14,4 °C 14,4 °C 94 % 1013,4 hPa 0,0 mm 0,0 km/h (0 Bft) NO 56 ° 0 min 0,000 mm 0,0 UV-I 0 W/m² 13,4 °C 14,4 °C 0,0 km/h (0 Bft)
05.08.2017 05:55 14,4 °C 14,4 °C 94 % 1013,4 hPa 0,0 mm 0,0 km/h (0 Bft) NO 56 ° 0 min 0,000 mm 0,0 UV-I 0 W/m² 13,4 °C 14,4 °C 0,0 km/h (0 Bft)
05.08.2017 05:56 14,4 °C 14,4 °C 94 % 1013,4 hPa 0,0 mm 0,0 km/h (0 Bft) NO 56 ° 0 min 0,000 mm 0,0 UV-I 0 W/m² 13,4 °C 14,4 °C 0,0 km/h (0 Bft)
05.08.2017 05:57 14,4 °C 14,4 °C 94 % 1013,3 hPa 0,0 mm 0,0 km/h (0 Bft) NO 56 ° 0 min 0,000 mm 0,0 UV-I 0 W/m² 13,4 °C 14,4 °C 0,0 km/h (0 Bft)
05.08.2017 05:58 14,4 °C 14,4 °C 94 % 1013,4 hPa 0,0 mm 0,0 km/h (0 Bft) NO 56 ° 0 min 0,000 mm 0,0 UV-I 0 W/m² 13,4 °C 14,4 °C 0,0 km/h (0 Bft)
05.08.2017 05:59 14,4 °C 14,4 °C 94 % 1013,4 hPa 0,0 mm 0,0 km/h (0 Bft) NO 56 ° 0 min 0,000 mm 0,0 UV-I 0 W/m² 13,4 °C 14,4 °C 0,0 km/h (0 Bft)
05.08.2017 06:00 14,4 °C 14,4 °C 94 % 1013,3 hPa 0,0 mm 0,0 km/h (0 Bft) NO 56 ° 0 min 0,000 mm 0,0 UV-I 0 W/m² 13,4 °C 14,4 °C 0,0 km/h (0 Bft)
05.08.2017 06:01 14,4 °C 14,4 °C 94 % 1013,3 hPa 0,0 mm 0,0 km/h (0 Bft) NO 56 ° 0 min 0,000 mm 0,0 UV-I 0 W/m² 13,4 °C 14,4 °C 0,0 km/h (0 Bft)
05.08.2017 06:02 14,4 °C 14,4 °C 94 % 1013,3 hPa 0,0 mm 0,0 km/h (0 Bft) NO 56 ° 0 min 0,000 mm 0,0 UV-I 5 W/m² 13,4 °C 14,4 °C 0,0 km/h (0 Bft)
05.08.2017 06:03 14,4 °C 14,4 °C 94 % 1013,3 hPa 0,0 mm 0,0 km/h (0 Bft) NO 56 ° 0 min 0,000 mm 0,0 UV-I 5 W/m² 13,4 °C 14,4 °C 0,0 km/h (0 Bft)
05.08.2017 06:04 14,5 °C 14,5 °C 94 % 1013,3 hPa 0,0 mm 0,0 km/h (0 Bft) NO 56 ° 0 min 0,000 mm 0,0 UV-I 5 W/m² 13,5 °C 14,5 °C 0,0 km/h (0 Bft)
05.08.2017 06:05 14,5 °C 14,5 °C 94 % 1013,3 hPa 0,0 mm 0,0 km/h (0 Bft) NO 56 ° 0 min 0,000 mm 0,0 UV-I 5 W/m² 13,5 °C 14,5 °C 0,0 km/h (0 Bft)
05.08.2017 06:06 14,5 °C 14,6 °C 94 % 1013,3 hPa 0,0 mm 0,0 km/h (0 Bft) NO 56 ° 0 min 0,000 mm 0,0 UV-I 7 W/m² 13,5 °C 14,5 °C 0,0 km/h (0 Bft)
05.08.2017 06:07 14,6 °C 14,6 °C 94 % 1013,3 hPa 0,0 mm 0,0 km/h (0 Bft) NO 56 ° 0 min 0,000 mm 0,0 UV-I 7 W/m² 13,6 °C 14,6 °C 0,0 km/h (0 Bft)
05.08.2017 06:08 14,6 °C 14,6 °C 94 % 1013,3 hPa 0,0 mm 0,0 km/h (0 Bft) NO 56 ° 0 min 0,000 mm 0,0 UV-I 7 W/m² 13,6 °C 14,6 °C 0,0 km/h (0 Bft)
05.08.2017 06:09 14,7 °C 14,7 °C 95 % 1013,3 hPa 0,0 mm 0,0 km/h (0 Bft) NO 56 ° 0 min 0,000 mm 0,0 UV-I 7 W/m² 13,9 °C 14,7 °C 0,0 km/h (0 Bft)
05.08.2017 06:10 14,7 °C 14,7 °C 95 % 1013,3 hPa 0,0 mm 0,0 km/h (0 Bft) NO 56 ° 0 min 0,000 mm 0,0 UV-I 7 W/m² 13,9 °C 14,7 °C 0,0 km/h (0 Bft)
05.08.2017 06:11 14,7 °C 14,7 °C 95 % 1013,3 hPa 0,0 mm 0,0 km/h (0 Bft) NO 56 ° 0 min 0,000 mm 0,0 UV-I 9 W/m² 13,9 °C 14,7 °C 0,0 km/h (0 Bft)
05.08.2017 06:12 14,7 °C 14,7 °C 94 % 1013,3 hPa 0,0 mm 0,0 km/h (0 Bft) NO 56 ° 0 min 0,000 mm 0,0 UV-I 9 W/m² 13,7 °C 14,7 °C 0,0 km/h (0 Bft)
05.08.2017 06:13 14,7 °C 14,8 °C 94 % 1013,4 hPa 0,0 mm 0,0 km/h (0 Bft) NO 56 ° 0 min 0,000 mm 0,0 UV-I 11 W/m² 13,7 °C 14,7 °C 0,0 km/h (0 Bft)
05.08.2017 06:14 14,7 °C 14,8 °C 94 % 1013,4 hPa 0,0 mm 0,0 km/h (0 Bft) NO 56 ° 0 min 0,000 mm 0,0 UV-I 11 W/m² 13,7 °C 14,7 °C 0,0 km/h (0 Bft)
05.08.2017 06:15 14,7 °C 14,7 °C 94 % 1013,3 hPa 0,0 mm 0,0 km/h (0 Bft) NO 56 ° 0 min 0,000 mm 0,0 UV-I 11 W/m² 13,7 °C 14,7 °C 0,0 km/h (0 Bft)
05.08.2017 06:16 14,7 °C 14,8 °C 94 % 1013,3 hPa 0,0 mm 0,0 km/h (0 Bft) NO 56 ° 0 min 0,000 mm 0,0 UV-I 11 W/m² 13,7 °C 14,7 °C 0,0 km/h (0 Bft)
05.08.2017 06:17 14,8 °C 14,8 °C 94 % 1013,3 hPa 0,0 mm 0,0 km/h (0 Bft) NO 56 ° 0 min 0,000 mm 0,0 UV-I 11 W/m² 13,8 °C 14,8 °C 0,0 km/h (0 Bft)
05.08.2017 06:18 14,8 °C 14,8 °C 94 % 1013,3 hPa 0,0 mm 0,0 km/h (0 Bft) NO 56 ° 0 min 0,000 mm 0,0 UV-I 11 W/m² 13,8 °C 14,8 °C 0,0 km/h (0 Bft)
05.08.2017 06:19 14,7 °C 14,8 °C 94 % 1013,4 hPa 0,0 mm 0,0 km/h (0 Bft) NO 56 ° 0 min 0,000 mm 0,0 UV-I 11 W/m² 13,7 °C 14,7 °C 0,0 km/h (0 Bft)
05.08.2017 06:20 14,7 °C 14,7 °C 94 % 1013,4 hPa 0,0 mm 0,0 km/h (0 Bft) NO 56 ° 0 min 0,000 mm 0,0 UV-I 11 W/m² 13,7 °C 14,7 °C 0,0 km/h (0 Bft)
05.08.2017 06:21 14,7 °C 14,8 °C 94 % 1013,3 hPa 0,0 mm 0,0 km/h (0 Bft) NO 56 ° 0 min 0,000 mm 0,0 UV-I 12 W/m² 13,7 °C 14,7 °C 0,0 km/h (0 Bft)
05.08.2017 06:22 14,7 °C 14,7 °C 94 % 1013,3 hPa 0,0 mm 0,0 km/h (0 Bft) NO 56 ° 0 min 0,000 mm 0,0 UV-I 14 W/m² 13,7 °C 14,7 °C 0,0 km/h (0 Bft)
05.08.2017 06:23 14,7 °C 14,7 °C 94 % 1013,4 hPa 0,0 mm 0,0 km/h (0 Bft) NO 56 ° 0 min 0,000 mm 0,0 UV-I 14 W/m² 13,7 °C 14,7 °C 0,0 km/h (0 Bft)
05.08.2017 06:24 14,7 °C 14,7 °C 94 % 1013,4 hPa 0,0 mm 0,0 km/h (0 Bft) NO 56 ° 0 min 0,000 mm 0,0 UV-I 14 W/m² 13,7 °C 14,7 °C 0,0 km/h (0 Bft)
05.08.2017 06:25 14,7 °C 14,7 °C 94 % 1013,3 hPa 0,0 mm 0,0 km/h (0 Bft) NO 56 ° 0 min 0,000 mm 0,0 UV-I 16 W/m² 13,7 °C 14,7 °C 0,0 km/h (0 Bft)
05.08.2017 06:26 14,8 °C 14,8 °C 94 % 1013,4 hPa 0,0 mm 0,0 km/h (0 Bft) NO 56 ° 0 min 0,000 mm 0,0 UV-I 16 W/m² 13,8 °C 14,8 °C 0,0 km/h (0 Bft)
05.08.2017 06:27 14,7 °C 14,8 °C 94 % 1013,4 hPa 0,0 mm 0,0 km/h (0 Bft) NO 56 ° 0 min 0,000 mm 0,0 UV-I 18 W/m² 13,7 °C 14,7 °C 0,0 km/h (0 Bft)
05.08.2017 06:28 14,7 °C 14,7 °C 94 % 1013,4 hPa 0,0 mm 0,0 km/h (0 Bft) NO 56 ° 0 min 0,000 mm 0,0 UV-I 18 W/m² 13,7 °C 14,7 °C 0,0 km/h (0 Bft)
05.08.2017 06:29 14,7 °C 14,7 °C 94 % 1013,4 hPa 0,0 mm 0,0 km/h (0 Bft) NO 56 ° 0 min 0,000 mm 0,0 UV-I 19 W/m² 13,7 °C 14,7 °C 0,0 km/h (0 Bft)
05.08.2017 06:30 14,7 °C 14,7 °C 94 % 1013,4 hPa 0,0 mm 0,0 km/h (0 Bft) NO 56 ° 0 min 0,000 mm 0,0 UV-I 19 W/m² 13,7 °C 14,7 °C 0,0 km/h (0 Bft)
05.08.2017 06:31 14,8 °C 14,8 °C 94 % 1013,4 hPa 0,0 mm 0,0 km/h (0 Bft) NO 56 ° 0 min 0,000 mm 0,0 UV-I 21 W/m² 13,8 °C 14,8 °C 0,0 km/h (0 Bft)
05.08.2017 06:32 14,8 °C 14,8 °C 94 % 1013,4 hPa 0,0 mm 0,0 km/h (0 Bft) NO 56 ° 0 min 0,000 mm 0,0 UV-I 21 W/m² 13,8 °C 14,8 °C 0,0 km/h (0 Bft)
05.08.2017 06:33 14,8 °C 14,8 °C 94 % 1013,4 hPa 0,0 mm 0,0 km/h (0 Bft) NO 56 ° 0 min 0,000 mm 0,0 UV-I 21 W/m² 13,8 °C 14,8 °C 0,0 km/h (0 Bft)
05.08.2017 06:34 14,8 °C 14,8 °C 94 % 1013,3 hPa 0,0 mm 0,0 km/h (0 Bft) NO 56 ° 0 min 0,000 mm 0,0 UV-I 21 W/m² 13,8 °C 14,8 °C 0,0 km/h (0 Bft)
05.08.2017 06:35 14,8 °C 14,8 °C 94 % 1013,3 hPa 0,0 mm 0,0 km/h (0 Bft) NO 56 ° 0 min 0,000 mm 0,0 UV-I 23 W/m² 13,8 °C 14,8 °C 0,0 km/h (0 Bft)
05.08.2017 06:36 14,8 °C 14,8 °C 94 % 1013,3 hPa 0,0 mm 0,0 km/h (0 Bft) NO 56 ° 0 min 0,000 mm 0,0 UV-I 23 W/m² 13,8 °C 14,8 °C 0,0 km/h (0 Bft)
05.08.2017 06:37 14,9 °C 14,9 °C 94 % 1013,3 hPa 0,0 mm 0,0 km/h (0 Bft) NO 56 ° 0 min 0,000 mm 0,0 UV-I 23 W/m² 13,9 °C 14,9 °C 0,0 km/h (0 Bft)
05.08.2017 06:38 14,8 °C 14,9 °C 94 % 1013,3 hPa 0,0 mm 0,0 km/h (0 Bft) NO 56 ° 0 min 0,000 mm 0,0 UV-I 25 W/m² 13,8 °C 14,8 °C 0,0 km/h (0 Bft)
05.08.2017 06:39 14,9 °C 14,9 °C 95 % 1013,3 hPa 0,0 mm 0,0 km/h (0 Bft) NO 56 ° 0 min 0,000 mm 0,0 UV-I 25 W/m² 14,1 °C 14,9 °C 0,0 km/h (0 Bft)
05.08.2017 06:40 14,9 °C 14,9 °C 95 % 1013,3 hPa 0,0 mm 0,0 km/h (0 Bft) NO 56 ° 0 min 0,000 mm 0,0 UV-I 26 W/m² 14,1 °C 14,9 °C 0,0 km/h (0 Bft)
05.08.2017 06:41 14,9 °C 14,9 °C 94 % 1013,3 hPa 0,0 mm 0,0 km/h (0 Bft) NO 56 ° 0 min 0,000 mm 0,0 UV-I 28 W/m² 13,9 °C 14,9 °C 0,0 km/h (0 Bft)
05.08.2017 06:42 14,9 °C 14,9 °C 94 % 1013,2 hPa 0,0 mm 0,0 km/h (0 Bft) NO 56 ° 0 min 0,000 mm 0,0 UV-I 28 W/m² 13,9 °C 14,9 °C 0,0 km/h (0 Bft)
05.08.2017 06:43 14,9 °C 14,9 °C 94 % 1013,3 hPa 0,0 mm 0,0 km/h (0 Bft) NO 56 ° 0 min 0,000 mm 0,0 UV-I 30 W/m² 13,9 °C 14,9 °C 0,0 km/h (0 Bft)
05.08.2017 06:44 14,9 °C 14,9 °C 95 % 1013,2 hPa 0,0 mm 0,0 km/h (0 Bft) NO 56 ° 0 min 0,000 mm 0,0 UV-I 32 W/m² 14,1 °C 14,9 °C 0,0 km/h (0 Bft)
05.08.2017 06:45 15,0 °C 15,0 °C 95 % 1013,2 hPa 0,0 mm 0,0 km/h (0 Bft) NO 56 ° 0 min 0,000 mm 0,0 UV-I 33 W/m² 14,2 °C 15,0 °C 0,0 km/h (0 Bft)
05.08.2017 06:46 15,0 °C 15,0 °C 95 % 1013,2 hPa 0,0 mm 0,0 km/h (0 Bft) NO 56 ° 0 min 0,000 mm 0,0 UV-I 33 W/m² 14,2 °C 15,0 °C 0,0 km/h (0 Bft)
05.08.2017 06:47 15,0 °C 15,0 °C 94 % 1013,3 hPa 0,0 mm 0,0 km/h (0 Bft) NO 56 ° 0 min 0,000 mm 0,0 UV-I 35 W/m² 14,0 °C 15,0 °C 0,0 km/h (0 Bft)
05.08.2017 06:48 15,0 °C 15,0 °C 94 % 1013,3 hPa 0,0 mm 0,0 km/h (0 Bft) NO 56 ° 0 min 0,000 mm 0,0 UV-I 33 W/m² 14,0 °C 15,0 °C 0,0 km/h (0 Bft)
05.08.2017 06:49 15,0 °C 15,0 °C 94 % 1013,3 hPa 0,0 mm 0,0 km/h (0 Bft) NO 56 ° 0 min 0,000 mm 0,0 UV-I 33 W/m² 14,0 °C 15,0 °C 0,0 km/h (0 Bft)
05.08.2017 06:50 14,9 °C 15,0 °C 94 % 1013,2 hPa 0,0 mm 0,0 km/h (0 Bft) NO 56 ° 0 min 0,000 mm 0,0 UV-I 40 W/m² 13,9 °C 14,9 °C 0,0 km/h (0 Bft)
05.08.2017 06:51 14,9 °C 15,0 °C 94 % 1013,2 hPa 0,0 mm 0,0 km/h (0 Bft) NO 56 ° 0 min 0,000 mm 0,0 UV-I 37 W/m² 13,9 °C 14,9 °C 0,0 km/h (0 Bft)
05.08.2017 06:52 15,0 °C 15,0 °C 94 % 1013,2 hPa 0,0 mm 0,0 km/h (0 Bft) NO 56 ° 0 min 0,000 mm 0,0 UV-I 39 W/m² 14,0 °C 15,0 °C 0,0 km/h (0 Bft)
05.08.2017 06:53 15,0 °C 15,0 °C 94 % 1013,3 hPa 0,0 mm 0,0 km/h (0 Bft) NO 56 ° 0 min 0,000 mm 0,0 UV-I 40 W/m² 14,0 °C 15,0 °C 0,0 km/h (0 Bft)
05.08.2017 06:54 15,0 °C 15,0 °C 94 % 1013,2 hPa 0,0 mm 0,0 km/h (0 Bft) NO 56 ° 0 min 0,000 mm 0,0 UV-I 42 W/m² 14,0 °C 15,0 °C 0,0 km/h (0 Bft)
05.08.2017 06:55 15,1 °C 15,1 °C 94 % 1013,2 hPa 0,0 mm 0,0 km/h (0 Bft) NO 56 ° 0 min 0,000 mm 0,0 UV-I 44 W/m² 14,1 °C 15,1 °C 0,0 km/h (0 Bft)
05.08.2017 06:56 15,1 °C 15,1 °C 94 % 1013,2 hPa 0,0 mm 0,0 km/h (0 Bft) NO 56 ° 0 min 0,000 mm 0,0 UV-I 53 W/m² 14,1 °C 15,1 °C 0,0 km/h (0 Bft)
05.08.2017 06:57 15,1 °C 15,1 °C 94 % 1013,3 hPa 0,0 mm 0,0 km/h (0 Bft) NO 56 ° 0 min 0,000 mm 0,0 UV-I 56 W/m² 14,1 °C 15,1 °C 0,0 km/h (0 Bft)
05.08.2017 06:58 15,1 °C 15,1 °C 94 % 1013,3 hPa 0,0 mm 0,0 km/h (0 Bft) NO 56 ° 0 min 0,000 mm 0,0 UV-I 63 W/m² 14,1 °C 15,1 °C 0,0 km/h (0 Bft)
05.08.2017 06:59 15,2 °C 15,2 °C 94 % 1013,3 hPa 0,0 mm 0,0 km/h (0 Bft) NO 56 ° 0 min 0,000 mm 0,0 UV-I 63 W/m² 14,2 °C 15,2 °C 0,0 km/h (0 Bft)
05.08.2017 07:00 15,2 °C 15,2 °C 94 % 1013,2 hPa 0,0 mm 0,0 km/h (0 Bft) NO 56 ° 0 min 0,000 mm 0,0 UV-I 70 W/m² 14,2 °C 15,2 °C 0,0 km/h (0 Bft)
05.08.2017 07:01 15,2 °C 15,2 °C 94 % 1013,2 hPa 0,0 mm 0,0 km/h (0 Bft) NO 56 ° 0 min 0,025 mm 0,0 UV-I 76 W/m² 14,2 °C 15,2 °C 0,0 km/h (0 Bft)
05.08.2017 07:02 15,3 °C 15,3 °C 94 % 1013,2 hPa 0,0 mm 0,0 km/h (0 Bft) NO 56 ° 0 min 0,000 mm 0,0 UV-I 84 W/m² 14,3 °C 15,3 °C 0,0 km/h (0 Bft)
05.08.2017 07:03 15,3 °C 15,3 °C 94 % 1013,3 hPa 0,0 mm 0,0 km/h (0 Bft) NO 56 ° 0 min 0,000 mm 0,0 UV-I 95 W/m² 14,3 °C 15,3 °C 0,0 km/h (0 Bft)
05.08.2017 07:04 15,3 °C 15,4 °C 94 % 1013,3 hPa 0,0 mm 0,0 km/h (0 Bft) NO 56 ° 0 min 0,000 mm 0,0 UV-I 100 W/m² 14,3 °C 15,3 °C 0,0 km/h (0 Bft)
05.08.2017 07:05 15,4 °C 15,4 °C 94 % 1013,3 hPa 0,0 mm 0,0 km/h (0 Bft) NO 56 ° 0 min 0,000 mm 0,0 UV-I 93 W/m² 14,4 °C 15,4 °C 0,0 km/h (0 Bft)
05.08.2017 07:06 15,4 °C 15,4 °C 94 % 1013,2 hPa 0,0 mm 0,0 km/h (0 Bft) NO 56 ° 0 min 0,000 mm 0,0 UV-I 107 W/m² 14,4 °C 15,4 °C 0,0 km/h (0 Bft)
05.08.2017 07:07 15,5 °C 15,5 °C 94 % 1013,2 hPa 0,0 mm 0,0 km/h (0 Bft) NO 56 ° 0 min 0,000 mm 0,0 UV-I 58 W/m² 14,5 °C 15,5 °C 0,0 km/h (0 Bft)
05.08.2017 07:08 15,5 °C 15,5 °C 94 % 1013,2 hPa 0,0 mm 0,0 km/h (0 Bft) NO 56 ° 0 min 0,000 mm 0,0 UV-I 76 W/m² 14,5 °C 15,5 °C 0,0 km/h (0 Bft)
05.08.2017 07:09 15,6 °C 15,6 °C 94 % 1013,3 hPa 0,0 mm 0,0 km/h (0 Bft) NO 56 ° 0 min 0,000 mm 0,0 UV-I 98 W/m² 14,6 °C 15,6 °C 0,0 km/h (0 Bft)
05.08.2017 07:10 15,6 °C 15,6 °C 94 % 1013,3 hPa 0,0 mm 0,0 km/h (0 Bft) NO 56 ° 0 min 0,000 mm 0,0 UV-I 107 W/m² 14,6 °C 15,6 °C 0,0 km/h (0 Bft)
05.08.2017 07:11 15,7 °C 15,7 °C 94 % 1013,3 hPa 0,0 mm 0,0 km/h (0 Bft) NO 56 ° 0 min 0,000 mm 0,0 UV-I 123 W/m² 14,7 °C 15,7 °C 0,0 km/h (0 Bft)
05.08.2017 07:12 15,7 °C 15,7 °C 94 % 1013,3 hPa 0,0 mm 0,0 km/h (0 Bft) NO 56 ° 0 min 0,000 mm 0,0 UV-I 141 W/m² 14,7 °C 15,7 °C 0,0 km/h (0 Bft)
05.08.2017 07:13 15,8 °C 15,8 °C 93 % 1013,3 hPa 0,0 mm 0,0 km/h (0 Bft) NO 56 ° 0 min 0,000 mm 0,5 UV-I 139 W/m² 14,7 °C 15,8 °C 0,0 km/h (0 Bft)
05.08.2017 07:14 15,8 °C 15,8 °C 93 % 1013,3 hPa 0,0 mm 0,0 km/h (0 Bft) NO 56 ° 0 min 0,000 mm 0,5 UV-I 146 W/m² 14,7 °C 15,8 °C 0,0 km/h (0 Bft)
05.08.2017 07:15 15,9 °C 15,9 °C 94 % 1013,3 hPa 0,0 mm 0,0 km/h (0 Bft) NO 56 ° 0 min 0,000 mm 0,5 UV-I 148 W/m² 14,9 °C 15,9 °C 0,0 km/h (0 Bft)
05.08.2017 07:16 15,9 °C 15,9 °C 93 % 1013,3 hPa 0,0 mm 0,0 km/h (0 Bft) NO 56 ° 0 min 0,000 mm 0,5 UV-I 123 W/m² 14,8 °C 15,9 °C 0,0 km/h (0 Bft)
05.08.2017 07:17 15,9 °C 15,9 °C 93 % 1013,3 hPa 0,0 mm 0,0 km/h (0 Bft) NO 56 ° 0 min 0,000 mm 0,5 UV-I 93 W/m² 14,8 °C 15,9 °C 0,0 km/h (0 Bft)
05.08.2017 07:18 15,9 °C 16,0 °C 93 % 1013,3 hPa 0,0 mm 0,0 km/h (0 Bft) NO 56 ° 0 min 0,000 mm 0,5 UV-I 98 W/m² 14,8 °C 15,9 °C 0,0 km/h (0 Bft)
05.08.2017 07:19 16,1 °C 16,1 °C 93 % 1013,3 hPa 0,0 mm 0,0 km/h (0 Bft) NO 56 ° 0 min 0,000 mm 0,5 UV-I 98 W/m² 15,0 °C 16,1 °C 0,0 km/h (0 Bft)
05.08.2017 07:20 16,1 °C 16,1 °C 93 % 1013,3 hPa 0,0 mm 0,0 km/h (0 Bft) NO 56 ° 0 min 0,000 mm 0,5 UV-I 81 W/m² 15,0 °C 16,1 °C 0,0 km/h (0 Bft)
05.08.2017 07:21 16,2 °C 16,2 °C 93 % 1013,3 hPa 0,0 mm 0,0 km/h (0 Bft) NO 56 ° 0 min 0,000 mm 0,5 UV-I 81 W/m² 15,1 °C 16,2 °C 0,0 km/h (0 Bft)
05.08.2017 07:22 16,3 °C 16,3 °C 93 % 1013,3 hPa 0,0 mm 0,0 km/h (0 Bft) NO 56 ° 0 min 0,000 mm 0,5 UV-I 83 W/m² 15,2 °C 16,3 °C 0,0 km/h (0 Bft)
05.08.2017 07:23 16,3 °C 16,3 °C 92 % 1013,3 hPa 0,0 mm 0,0 km/h (0 Bft) NO 56 ° 0 min 0,000 mm 0,5 UV-I 84 W/m² 15,0 °C 16,3 °C 0,0 km/h (0 Bft)
05.08.2017 07:24 16,3 °C 16,3 °C 92 % 1013,3 hPa 0,0 mm 0,0 km/h (0 Bft) NO 56 ° 0 min 0,000 mm 0,5 UV-I 86 W/m² 15,0 °C 16,3 °C 0,0 km/h (0 Bft)
05.08.2017 07:25 16,3 °C 16,3 °C 92 % 1013,3 hPa 0,0 mm 0,0 km/h (0 Bft) NO 56 ° 0 min 0,000 mm 0,5 UV-I 79 W/m² 15,0 °C 16,3 °C 0,0 km/h (0 Bft)
05.08.2017 07:26 16,4 °C 16,4 °C 92 % 1013,3 hPa 0,0 mm 0,0 km/h (0 Bft) NO 56 ° 0 min 0,000 mm 0,6 UV-I 84 W/m² 15,1 °C 16,4 °C 0,0 km/h (0 Bft)
05.08.2017 07:27 16,4 °C 16,4 °C 92 % 1013,3 hPa 0,0 mm 0,0 km/h (0 Bft) NO 56 ° 0 min 0,000 mm 0,6 UV-I 86 W/m² 15,1 °C 16,4 °C 0,0 km/h (0 Bft)
05.08.2017 07:28 16,4 °C 16,4 °C 92 % 1013,3 hPa 0,0 mm 0,0 km/h (0 Bft) NO 56 ° 0 min 0,000 mm 0,6 UV-I 83 W/m² 15,1 °C 16,4 °C 0,0 km/h (0 Bft)
05.08.2017 07:29 16,5 °C 16,5 °C 92 % 1013,2 hPa 0,0 mm 0,0 km/h (0 Bft) NO 56 ° 0 min 0,000 mm 0,6 UV-I 88 W/m² 15,2 °C 16,5 °C 0,0 km/h (0 Bft)
05.08.2017 07:30 16,6 °C 16,6 °C 92 % 1013,2 hPa 0,0 mm 0,0 km/h (0 Bft) NO 56 ° 0 min 0,000 mm 0,6 UV-I 79 W/m² 15,3 °C 16,6 °C 0,0 km/h (0 Bft)
05.08.2017 07:31 16,6 °C 16,6 °C 92 % 1013,2 hPa 0,0 mm 0,0 km/h (0 Bft) NO 56 ° 0 min 0,000 mm 0,6 UV-I 90 W/m² 15,3 °C 16,6 °C 0,0 km/h (0 Bft)
05.08.2017 07:32 16,7 °C 16,7 °C 92 % 1013,2 hPa 0,0 mm 0,0 km/h (0 Bft) NO 56 ° 0 min 0,000 mm 0,6 UV-I 93 W/m² 15,4 °C 16,7 °C 0,0 km/h (0 Bft)
05.08.2017 07:33 16,7 °C 16,7 °C 92 % 1013,3 hPa 0,0 mm 0,0 km/h (0 Bft) NO 56 ° 0 min 0,000 mm 0,6 UV-I 98 W/m² 15,4 °C 16,7 °C 0,0 km/h (0 Bft)
05.08.2017 07:34 16,7 °C 16,7 °C 92 % 1013,2 hPa 0,0 mm 0,0 km/h (0 Bft) NO 56 ° 0 min 0,000 mm 0,7 UV-I 100 W/m² 15,4 °C 16,7 °C 0,0 km/h (0 Bft)
05.08.2017 07:35 16,8 °C 16,8 °C 92 % 1013,2 hPa 0,0 mm 0,0 km/h (0 Bft) NO 56 ° 0 min 0,000 mm 0,7 UV-I 100 W/m² 15,5 °C 16,8 °C 0,0 km/h (0 Bft)
05.08.2017 07:36 16,8 °C 16,9 °C 91 % 1013,2 hPa 0,0 mm 0,0 km/h (0 Bft) NO 56 ° 0 min 0,000 mm 0,7 UV-I 100 W/m² 15,3 °C 16,8 °C 0,0 km/h (0 Bft)
05.08.2017 07:37 17,0 °C 17,0 °C 91 % 1013,2 hPa 0,0 mm 0,0 km/h (0 Bft) NO 56 ° 0 min 0,000 mm 0,7 UV-I 107 W/m² 15,5 °C 17,0 °C 0,0 km/h (0 Bft)
05.08.2017 07:38 17,1 °C 17,1 °C 91 % 1013,2 hPa 0,0 mm 0,9 km/h (0 Bft) NO 56 ° 0 min 0,000 mm 0,7 UV-I 111 W/m² 15,6 °C 17,1 °C 3,2 km/h (1 Bft)
05.08.2017 07:39 17,1 °C 17,1 °C 91 % 1013,2 hPa 0,0 mm 3,6 km/h (1 Bft) NO 56 ° 0 min 0,000 mm 0,7 UV-I 113 W/m² 15,6 °C 17,1 °C 6,4 km/h (2 Bft)
05.08.2017 07:40 17,2 °C 17,2 °C 90 % 1013,2 hPa 0,0 mm 0,3 km/h (0 Bft) NO 56 ° 0 min 0,000 mm 0,7 UV-I 123 W/m² 15,5 °C 17,2 °C 1,6 km/h (1 Bft)
05.08.2017 07:41 17,3 °C 17,3 °C 90 % 1013,2 hPa 0,0 mm 0,0 km/h (0 Bft) NO 56 ° 0 min 0,000 mm 0,7 UV-I 125 W/m² 15,6 °C 17,3 °C 0,0 km/h (0 Bft)
05.08.2017 07:42 17,4 °C 17,4 °C 89 % 1013,2 hPa 0,0 mm 0,0 km/h (0 Bft) NO 56 ° 0 min 0,000 mm 0,8 UV-I 160 W/m² 15,6 °C 17,4 °C 0,0 km/h (0 Bft)
05.08.2017 07:43 17,4 °C 17,4 °C 88 % 1013,2 hPa 0,0 mm 1,1 km/h (1 Bft) NO 56 ° 0 min 0,000 mm 0,8 UV-I 114 W/m² 15,4 °C 17,4 °C 3,2 km/h (1 Bft)
05.08.2017 07:44 17,6 °C 17,6 °C 89 % 1013,2 hPa 0,0 mm 0,9 km/h (0 Bft) NO 56 ° 0 min 0,000 mm 0,8 UV-I 144 W/m² 15,8 °C 17,6 °C 3,2 km/h (1 Bft)
05.08.2017 07:45 17,6 °C 17,6 °C 89 % 1013,2 hPa 0,0 mm 0,3 km/h (0 Bft) NO 56 ° 0 min 0,000 mm 0,8 UV-I 160 W/m² 15,8 °C 17,6 °C 1,6 km/h (1 Bft)
05.08.2017 07:46 17,6 °C 17,6 °C 89 % 1013,2 hPa 0,0 mm 1,2 km/h (1 Bft) NO 56 ° 0 min 0,000 mm 0,8 UV-I 116 W/m² 15,8 °C 17,6 °C 3,2 km/h (1 Bft)
05.08.2017 07:47 17,6 °C 17,6 °C 88 % 1013,2 hPa 0,0 mm 0,6 km/h (0 Bft) NO 56 ° 0 min 0,000 mm 0,8 UV-I 105 W/m² 15,6 °C 17,6 °C 1,6 km/h (1 Bft)
05.08.2017 07:48 17,6 °C 17,6 °C 88 % 1013,2 hPa 0,0 mm 0,9 km/h (0 Bft) NO 56 ° 0 min 0,000 mm 0,8 UV-I 107 W/m² 15,6 °C 17,6 °C 3,2 km/h (1 Bft)
05.08.2017 07:49 17,6 °C 17,6 °C 87 % 1013,1 hPa 0,0 mm 0,3 km/h (0 Bft) NO 56 ° 0 min 0,000 mm 0,8 UV-I 111 W/m² 15,4 °C 17,6 °C 3,2 km/h (1 Bft)
05.08.2017 07:50 17,7 °C 17,7 °C 88 % 1013,1 hPa 0,0 mm 0,0 km/h (0 Bft) NO 56 ° 0 min 0,000 mm 0,8 UV-I 113 W/m² 15,7 °C 17,7 °C 0,0 km/h (0 Bft)
05.08.2017 07:51 17,7 °C 17,7 °C 88 % 1013,2 hPa 0,0 mm 0,0 km/h (0 Bft) NO 56 ° 0 min 0,000 mm 0,8 UV-I 114 W/m² 15,7 °C 17,7 °C 0,0 km/h (0 Bft)
05.08.2017 07:52 17,7 °C 17,7 °C 89 % 1013,2 hPa 0,0 mm 3,2 km/h (1 Bft) O-NO 57 ° 0 min 0,000 mm 0,8 UV-I 116 W/m² 15,9 °C 17,7 °C 6,4 km/h (2 Bft)
05.08.2017 07:53 17,7 °C 17,7 °C 88 % 1013,2 hPa 0,0 mm 3,9 km/h (1 Bft) O-NO 73 ° 0 min 0,000 mm 0,8 UV-I 118 W/m² 15,7 °C 17,7 °C 4,8 km/h (1 Bft)
05.08.2017 07:54 17,7 °C 17,7 °C 87 % 1013,2 hPa 0,0 mm 1,9 km/h (1 Bft) O-NO 73 ° 0 min 0,000 mm 0,8 UV-I 121 W/m² 15,5 °C 17,7 °C 3,2 km/h (1 Bft)
05.08.2017 07:55 17,8 °C 17,8 °C 87 % 1013,2 hPa 0,0 mm 2,0 km/h (1 Bft) N-NO 24 ° 0 min 0,000 mm 0,8 UV-I 120 W/m² 15,6 °C 17,8 °C 3,2 km/h (1 Bft)
05.08.2017 07:56 17,8 °C 17,8 °C 87 % 1013,2 hPa 0,0 mm 0,3 km/h (0 Bft) N-NO 24 ° 0 min 0,000 mm 0,9 UV-I 120 W/m² 15,6 °C 17,8 °C 1,6 km/h (1 Bft)
05.08.2017 07:57 17,9 °C 17,9 °C 87 % 1013,2 hPa 0,0 mm 1,2 km/h (1 Bft) N-NO 24 ° 0 min 0,000 mm 0,9 UV-I 121 W/m² 15,7 °C 17,9 °C 1,6 km/h (1 Bft)
05.08.2017 07:58 18,0 °C 18,0 °C 87 % 1013,2 hPa 0,0 mm 1,1 km/h (1 Bft) N-NO 24 ° 0 min 0,000 mm 0,9 UV-I 121 W/m² 15,8 °C 18,0 °C 1,6 km/h (1 Bft)
05.08.2017 07:59 18,0 °C 18,0 °C 87 % 1013,2 hPa 0,0 mm 0,6 km/h (0 Bft) N-NO 24 ° 0 min 0,000 mm 0,9 UV-I 121 W/m² 15,8 °C 18,0 °C 3,2 km/h (1 Bft)
05.08.2017 08:00 18,0 °C 18,0 °C 87 % 1013,2 hPa 0,0 mm 0,0 km/h (0 Bft) N-NO 24 ° 0 min 0,051 mm 0,9 UV-I 125 W/m² 15,8 °C 18,0 °C 0,0 km/h (0 Bft)
05.08.2017 08:01 17,9 °C 18,1 °C 88 % 1013,2 hPa 0,0 mm 0,0 km/h (0 Bft) N-NO 24 ° 0 min 0,000 mm 1,0 UV-I 199 W/m² 15,9 °C 17,9 °C 0,0 km/h (0 Bft)
05.08.2017 08:02 17,9 °C 18,0 °C 88 % 1013,1 hPa 0,0 mm 0,0 km/h (0 Bft) N-NO 24 ° 0 min 0,000 mm 1,1 UV-I 135 W/m² 15,9 °C 17,9 °C 0,0 km/h (0 Bft)
05.08.2017 08:03 17,9 °C 18,0 °C 89 % 1013,1 hPa 0,0 mm 0,9 km/h (0 Bft) O-NO 66 ° 0 min 0,000 mm 1,0 UV-I 144 W/m² 16,1 °C 17,9 °C 4,8 km/h (1 Bft)
05.08.2017 08:04 17,9 °C 17,9 °C 87 % 1013,1 hPa 0,0 mm 5,6 km/h (1 Bft) O-NO 64 ° 0 min 0,000 mm 1,2 UV-I 188 W/m² 15,7 °C 17,9 °C 6,4 km/h (2 Bft)
05.08.2017 08:05 18,0 °C 18,0 °C 88 % 1013,1 hPa 0,0 mm 2,7 km/h (1 Bft) O-NO 64 ° 0 min 0,000 mm 1,2 UV-I 199 W/m² 16,0 °C 18,0 °C 4,8 km/h (1 Bft)
05.08.2017 08:06 18,1 °C 18,1 °C 88 % 1013,1 hPa 0,0 mm 1,4 km/h (1 Bft) O-NO 64 ° 0 min 0,000 mm 1,3 UV-I 258 W/m² 16,1 °C 18,1 °C 3,2 km/h (1 Bft)
05.08.2017 08:07 18,2 °C 18,2 °C 88 % 1013,1 hPa 0,0 mm 1,1 km/h (1 Bft) O-NO 64 ° 0 min 0,000 mm 1,3 UV-I 258 W/m² 16,2 °C 18,2 °C 3,2 km/h (1 Bft)
05.08.2017 08:08 18,3 °C 18,3 °C 87 % 1013,1 hPa 0,0 mm 1,8 km/h (1 Bft) O-NO 65 ° 1 min 0,000 mm 1,4 UV-I 327 W/m² 16,1 °C 18,3 °C 3,2 km/h (1 Bft)
05.08.2017 08:09 18,3 °C 18,3 °C 86 % 1013,1 hPa 0,0 mm 3,2 km/h (1 Bft) O-NO 71 ° 1 min 0,000 mm 1,3 UV-I 334 W/m² 15,9 °C 18,3 °C 4,8 km/h (1 Bft)
05.08.2017 08:10 18,4 °C 18,4 °C 85 % 1013,1 hPa 0,0 mm 1,2 km/h (1 Bft) O-NO 70 ° 0 min 0,000 mm 1,4 UV-I 241 W/m² 15,8 °C 18,4 °C 4,8 km/h (1 Bft)
05.08.2017 08:11 18,4 °C 18,4 °C 84 % 1013,2 hPa 0,0 mm 2,9 km/h (1 Bft) O-NO 70 ° 0 min 0,000 mm 1,2 UV-I 248 W/m² 15,6 °C 18,4 °C 4,8 km/h (1 Bft)
05.08.2017 08:12 18,5 °C 18,5 °C 84 % 1013,2 hPa 0,0 mm 4,0 km/h (1 Bft) O-NO 78 ° 0 min 0,000 mm 1,1 UV-I 248 W/m² 15,7 °C 18,5 °C 6,4 km/h (2 Bft)
05.08.2017 08:13 18,5 °C 18,6 °C 84 % 1013,1 hPa 0,0 mm 0,7 km/h (0 Bft) O-NO 78 ° 0 min 0,000 mm 1,2 UV-I 248 W/m² 15,7 °C 18,5 °C 3,2 km/h (1 Bft)
05.08.2017 08:14 18,4 °C 18,5 °C 84 % 1013,1 hPa 0,0 mm 0,8 km/h (0 Bft) O-NO 78 ° 1 min 0,000 mm 1,5 UV-I 367 W/m² 15,6 °C 18,4 °C 3,2 km/h (1 Bft)
05.08.2017 08:15 18,6 °C 18,6 °C 84 % 1013,1 hPa 0,0 mm 3,4 km/h (1 Bft) O 88 ° 1 min 0,000 mm 1,4 UV-I 338 W/m² 15,8 °C 18,6 °C 6,4 km/h (2 Bft)
05.08.2017 08:16 18,6 °C 18,6 °C 83 % 1013,1 hPa 0,0 mm 2,3 km/h (1 Bft) O-NO 71 ° 1 min 0,000 mm 1,5 UV-I 357 W/m² 15,7 °C 18,6 °C 4,8 km/h (1 Bft)
05.08.2017 08:17 18,7 °C 18,7 °C 83 % 1013,1 hPa 0,0 mm 4,6 km/h (1 Bft) NO 38 ° 1 min 0,000 mm 1,5 UV-I 380 W/m² 15,8 °C 18,7 °C 6,4 km/h (2 Bft)
05.08.2017 08:18 18,7 °C 18,7 °C 82 % 1013,1 hPa 0,0 mm 5,8 km/h (2 Bft) N-NO 28 ° 1 min 0,000 mm 1,6 UV-I 301 W/m² 15,6 °C 18,7 °C 8,0 km/h (2 Bft)
05.08.2017 08:19 18,7 °C 18,7 °C 82 % 1013,1 hPa 0,0 mm 3,4 km/h (1 Bft) N-NO 31 ° 1 min 0,000 mm 1,3 UV-I 301 W/m² 15,6 °C 18,7 °C 6,4 km/h (2 Bft)
05.08.2017 08:20 18,7 °C 18,7 °C 83 % 1013,1 hPa 0,0 mm 5,7 km/h (1 Bft) NO 53 ° 0 min 0,000 mm 1,6 UV-I 274 W/m² 15,8 °C 18,7 °C 8,0 km/h (2 Bft)
05.08.2017 08:21 18,8 °C 18,8 °C 83 % 1013,2 hPa 0,0 mm 3,5 km/h (1 Bft) NO 51 ° 0 min 0,000 mm 1,3 UV-I 192 W/m² 15,8 °C 18,8 °C 4,8 km/h (1 Bft)
05.08.2017 08:22 18,9 °C 18,9 °C 84 % 1013,2 hPa 0,0 mm 5,1 km/h (1 Bft) NO 37 ° 0 min 0,000 mm 1,6 UV-I 192 W/m² 16,1 °C 18,9 °C 8,0 km/h (2 Bft)
05.08.2017 08:23 18,9 °C 18,9 °C 84 % 1013,2 hPa 0,0 mm 5,2 km/h (1 Bft) NO 56 ° 1 min 0,000 mm 1,7 UV-I 422 W/m² 16,1 °C 18,9 °C 9,7 km/h (2 Bft)
05.08.2017 08:24 19,1 °C 19,1 °C 84 % 1013,2 hPa 0,0 mm 3,5 km/h (1 Bft) NO 39 ° 1 min 0,000 mm 1,7 UV-I 434 W/m² 16,3 °C 19,1 °C 4,8 km/h (1 Bft)
05.08.2017 08:25 19,2 °C 19,2 °C 84 % 1013,2 hPa 0,0 mm 2,3 km/h (1 Bft) NO 48 ° 1 min 0,000 mm 1,7 UV-I 438 W/m² 16,4 °C 19,2 °C 3,2 km/h (1 Bft)
05.08.2017 08:26 19,2 °C 19,2 °C 83 % 1013,2 hPa 0,0 mm 3,7 km/h (1 Bft) O-NO 74 ° 1 min 0,000 mm 1,6 UV-I 438 W/m² 16,2 °C 19,2 °C 6,4 km/h (2 Bft)
05.08.2017 08:27 19,1 °C 19,2 °C 84 % 1013,2 hPa 0,0 mm 5,1 km/h (1 Bft) O 81 ° 1 min 0,000 mm 1,5 UV-I 290 W/m² 16,3 °C 19,1 °C 6,4 km/h (2 Bft)
05.08.2017 08:28 19,1 °C 19,1 °C 85 % 1013,2 hPa 0,0 mm 2,3 km/h (1 Bft) O-NO 74 ° 1 min 0,000 mm 1,4 UV-I 332 W/m² 16,5 °C 19,1 °C 4,8 km/h (1 Bft)
05.08.2017 08:29 19,0 °C 19,1 °C 84 % 1013,2 hPa 0,0 mm 2,7 km/h (1 Bft) O-SO 106 ° 1 min 0,000 mm 1,7 UV-I 343 W/m² 16,2 °C 19,0 °C 6,4 km/h (2 Bft)
05.08.2017 08:30 18,9 °C 19,0 °C 84 % 1013,2 hPa 0,0 mm 6,6 km/h (2 Bft) O-NO 76 ° 0 min 0,000 mm 1,3 UV-I 181 W/m² 16,1 °C 18,9 °C 9,7 km/h (2 Bft)
05.08.2017 08:31 18,9 °C 18,9 °C 84 % 1013,2 hPa 0,0 mm 3,2 km/h (1 Bft) O-NO 76 ° 0 min 0,000 mm 1,3 UV-I 243 W/m² 16,1 °C 18,9 °C 4,8 km/h (1 Bft)
05.08.2017 08:32 18,9 °C 18,9 °C 84 % 1013,2 hPa 0,0 mm 3,4 km/h (1 Bft) O-NO 72 ° 0 min 0,000 mm 1,3 UV-I 172 W/m² 16,1 °C 18,9 °C 4,8 km/h (1 Bft)
05.08.2017 08:33 18,8 °C 18,9 °C 84 % 1013,2 hPa 0,0 mm 1,5 km/h (1 Bft) O-NO 72 ° 0 min 0,000 mm 1,3 UV-I 165 W/m² 16,0 °C 18,8 °C 3,2 km/h (1 Bft)
05.08.2017 08:34 18,8 °C 18,8 °C 84 % 1013,2 hPa 0,0 mm 2,0 km/h (1 Bft) O-NO 72 ° 0 min 0,000 mm 1,4 UV-I 163 W/m² 16,0 °C 18,8 °C 3,2 km/h (1 Bft)
05.08.2017 08:35 18,8 °C 18,8 °C 85 % 1013,1 hPa 0,0 mm 3,0 km/h (1 Bft) O-NO 72 ° 0 min 0,000 mm 1,4 UV-I 162 W/m² 16,2 °C 18,8 °C 4,8 km/h (1 Bft)
05.08.2017 08:36 18,8 °C 18,8 °C 83 % 1013,1 hPa 0,0 mm 4,0 km/h (1 Bft) O-NO 78 ° 0 min 0,000 mm 1,4 UV-I 142 W/m² 15,8 °C 18,8 °C 6,4 km/h (2 Bft)
05.08.2017 08:37 18,7 °C 18,8 °C 83 % 1013,1 hPa 0,0 mm 4,7 km/h (1 Bft) NO 50 ° 0 min 0,000 mm 1,4 UV-I 135 W/m² 15,8 °C 18,7 °C 6,4 km/h (2 Bft)
05.08.2017 08:38 18,7 °C 18,7 °C 83 % 1013,1 hPa 0,0 mm 4,1 km/h (1 Bft) NO 46 ° 0 min 0,000 mm 1,7 UV-I 158 W/m² 15,8 °C 18,7 °C 4,8 km/h (1 Bft)
05.08.2017 08:39 18,8 °C 18,8 °C 83 % 1013,1 hPa 0,0 mm 3,2 km/h (1 Bft) NO 46 ° 0 min 0,000 mm 1,7 UV-I 158 W/m² 15,8 °C 18,8 °C 4,8 km/h (1 Bft)
05.08.2017 08:40 18,8 °C 18,8 °C 84 % 1013,1 hPa 0,0 mm 2,6 km/h (1 Bft) O-NO 74 ° 1 min 0,000 mm 2,0 UV-I 383 W/m² 16,0 °C 18,8 °C 4,8 km/h (1 Bft)
05.08.2017 08:41 18,8 °C 18,8 °C 84 % 1013,1 hPa 0,0 mm 2,6 km/h (1 Bft) NO 44 ° 1 min 0,000 mm 2,0 UV-I 383 W/m² 16,0 °C 18,8 °C 6,4 km/h (2 Bft)
05.08.2017 08:42 19,0 °C 19,0 °C 84 % 1013,1 hPa 0,0 mm 1,3 km/h (1 Bft) NO 44 ° 1 min 0,000 mm 2,0 UV-I 383 W/m² 16,2 °C 19,0 °C 3,2 km/h (1 Bft)
05.08.2017 08:43 19,3 °C 19,3 °C 85 % 1013,1 hPa 0,0 mm 4,0 km/h (1 Bft) NO 36 ° 1 min 0,000 mm 2,0 UV-I 381 W/m² 16,7 °C 19,3 °C 6,4 km/h (2 Bft)
05.08.2017 08:44 19,3 °C 19,3 °C 84 % 1013,2 hPa 0,0 mm 3,9 km/h (1 Bft) N-NO 13 ° 1 min 0,000 mm 2,0 UV-I 383 W/m² 16,5 °C 19,3 °C 4,8 km/h (1 Bft)
05.08.2017 08:45 19,3 °C 19,3 °C 82 % 1013,2 hPa 0,0 mm 3,9 km/h (1 Bft) N 355 ° 1 min 0,000 mm 2,0 UV-I 378 W/m² 16,1 °C 19,3 °C 6,4 km/h (2 Bft)
05.08.2017 08:46 19,4 °C 19,4 °C 82 % 1013,2 hPa 0,0 mm 4,2 km/h (1 Bft) NO 42 ° 1 min 0,000 mm 1,9 UV-I 378 W/m² 16,2 °C 19,4 °C 6,4 km/h (2 Bft)
05.08.2017 08:47 19,4 °C 19,4 °C 83 % 1013,2 hPa 0,0 mm 3,0 km/h (1 Bft) NO 48 ° 1 min 0,000 mm 2,1 UV-I 378 W/m² 16,4 °C 19,4 °C 4,8 km/h (1 Bft)
05.08.2017 08:48 19,5 °C 19,5 °C 83 % 1013,3 hPa 0,0 mm 4,6 km/h (1 Bft) NO 49 ° 1 min 0,000 mm 2,1 UV-I 408 W/m² 16,5 °C 19,5 °C 6,4 km/h (2 Bft)
05.08.2017 08:49 19,4 °C 19,5 °C 82 % 1013,2 hPa 0,0 mm 5,7 km/h (1 Bft) O-NO 59 ° 1 min 0,000 mm 1,7 UV-I 408 W/m² 16,2 °C 19,4 °C 8,0 km/h (2 Bft)
05.08.2017 08:50 19,3 °C 19,4 °C 83 % 1013,2 hPa 0,0 mm 3,9 km/h (1 Bft) O-NO 59 ° 0 min 0,000 mm 1,8 UV-I 199 W/m² 16,3 °C 19,3 °C 4,8 km/h (1 Bft)
05.08.2017 08:51 19,3 °C 19,3 °C 83 % 1013,2 hPa 0,0 mm 1,4 km/h (1 Bft) O-NO 59 ° 0 min 0,000 mm 1,5 UV-I 125 W/m² 16,3 °C 19,3 °C 3,2 km/h (1 Bft)
05.08.2017 08:52 19,2 °C 19,3 °C 83 % 1013,2 hPa 0,0 mm 1,4 km/h (1 Bft) O-NO 59 ° 0 min 0,000 mm 1,5 UV-I 118 W/m² 16,2 °C 19,2 °C 3,2 km/h (1 Bft)
05.08.2017 08:53 19,2 °C 19,2 °C 84 % 1013,2 hPa 0,0 mm 2,7 km/h (1 Bft) O-NO 59 ° 0 min 0,000 mm 1,5 UV-I 134 W/m² 16,4 °C 19,2 °C 4,8 km/h (1 Bft)
05.08.2017 08:54 19,2 °C 19,2 °C 85 % 1013,2 hPa 0,0 mm 4,5 km/h (1 Bft) O 79 ° 0 min 0,000 mm 1,6 UV-I 151 W/m² 16,6 °C 19,2 °C 6,4 km/h (2 Bft)
05.08.2017 08:55 18,9 °C 19,2 °C 85 % 1013,2 hPa 0,0 mm 3,1 km/h (1 Bft) O 79 ° 0 min 0,000 mm 1,7 UV-I 162 W/m² 16,3 °C 18,9 °C 4,8 km/h (1 Bft)
05.08.2017 08:56 18,9 °C 19,0 °C 84 % 1013,2 hPa 0,0 mm 2,3 km/h (1 Bft) O-NO 74 ° 0 min 0,000 mm 1,6 UV-I 169 W/m² 16,1 °C 18,9 °C 3,2 km/h (1 Bft)
05.08.2017 08:57 18,9 °C 18,9 °C 85 % 1013,2 hPa 0,0 mm 3,1 km/h (1 Bft) O-NO 74 ° 0 min 0,000 mm 1,6 UV-I 163 W/m² 16,3 °C 18,9 °C 4,8 km/h (1 Bft)
05.08.2017 08:58 18,9 °C 18,9 °C 83 % 1013,3 hPa 0,0 mm 1,7 km/h (1 Bft) O-NO 74 ° 0 min 0,000 mm 1,6 UV-I 160 W/m² 15,9 °C 18,9 °C 3,2 km/h (1 Bft)
05.08.2017 08:59 18,9 °C 18,9 °C 83 % 1013,3 hPa 0,0 mm 2,7 km/h (1 Bft) O-NO 74 ° 0 min 0,000 mm 1,6 UV-I 151 W/m² 15,9 °C 18,9 °C 4,8 km/h (1 Bft)
05.08.2017 09:00 18,9 °C 18,9 °C 82 % 1013,2 hPa 0,0 mm 4,1 km/h (1 Bft) O-NO 74 ° 0 min 0,000 mm 1,7 UV-I 153 W/m² 15,8 °C 18,9 °C 4,8 km/h (1 Bft)
05.08.2017 09:01 18,9 °C 18,9 °C 83 % 1013,3 hPa 0,0 mm 3,0 km/h (1 Bft) O-NO 74 ° 0 min 0,153 mm 1,7 UV-I 149 W/m² 15,9 °C 18,9 °C 4,8 km/h (1 Bft)
05.08.2017 09:02 18,9 °C 18,9 °C 83 % 1013,2 hPa 0,0 mm 0,9 km/h (0 Bft) O-NO 74 ° 0 min 0,000 mm 1,7 UV-I 195 W/m² 15,9 °C 18,9 °C 3,2 km/h (1 Bft)
05.08.2017 09:03 18,9 °C 18,9 °C 83 % 1013,3 hPa 0,0 mm 0,1 km/h (0 Bft) O-NO 74 ° 0 min 0,000 mm 2,0 UV-I 156 W/m² 15,9 °C 18,9 °C 1,6 km/h (1 Bft)
05.08.2017 09:04 18,9 °C 18,9 °C 83 % 1013,3 hPa 0,0 mm 1,5 km/h (1 Bft) O-NO 74 ° 0 min 0,000 mm 1,7 UV-I 158 W/m² 15,9 °C 18,9 °C 3,2 km/h (1 Bft)
05.08.2017 09:05 18,9 °C 18,9 °C 83 % 1013,3 hPa 0,0 mm 0,0 km/h (0 Bft) O-NO 74 ° 1 min 0,000 mm 2,1 UV-I 334 W/m² 15,9 °C 18,9 °C 0,0 km/h (0 Bft)
05.08.2017 09:06 18,9 °C 18,9 °C 84 % 1013,3 hPa 0,0 mm 0,5 km/h (0 Bft) O-NO 74 ° 1 min 0,000 mm 2,2 UV-I 334 W/m² 16,1 °C 18,9 °C 1,6 km/h (1 Bft)
05.08.2017 09:07 19,1 °C 19,1 °C 84 % 1013,3 hPa 0,0 mm 2,1 km/h (1 Bft) O-NO 74 ° 1 min 0,000 mm 1,9 UV-I 334 W/m² 16,3 °C 19,1 °C 3,2 km/h (1 Bft)
05.08.2017 09:08 19,1 °C 19,1 °C 84 % 1013,3 hPa 0,0 mm 2,5 km/h (1 Bft) O-NO 74 ° 0 min 0,000 mm 1,8 UV-I 128 W/m² 16,3 °C 19,1 °C 3,2 km/h (1 Bft)
05.08.2017 09:09 19,2 °C 19,2 °C 85 % 1013,3 hPa 0,0 mm 3,2 km/h (1 Bft) O-NO 74 ° 0 min 0,000 mm 1,8 UV-I 127 W/m² 16,6 °C 19,2 °C 4,8 km/h (1 Bft)
05.08.2017 09:10 19,1 °C 19,2 °C 83 % 1013,3 hPa 0,0 mm 1,9 km/h (1 Bft) O-NO 74 ° 0 min 0,000 mm 1,8 UV-I 137 W/m² 16,1 °C 19,1 °C 3,2 km/h (1 Bft)
05.08.2017 09:11 19,2 °C 19,2 °C 85 % 1013,3 hPa 0,0 mm 3,4 km/h (1 Bft) O-NO 74 ° 0 min 0,000 mm 2,4 UV-I 137 W/m² 16,6 °C 19,2 °C 4,8 km/h (1 Bft)
05.08.2017 09:12 19,2 °C 19,2 °C 83 % 1013,3 hPa 0,0 mm 3,6 km/h (1 Bft) NO 54 ° 1 min 0,000 mm 2,7 UV-I 311 W/m² 16,2 °C 19,2 °C 4,8 km/h (1 Bft)
05.08.2017 09:13 19,3 °C 19,3 °C 84 % 1013,3 hPa 0,0 mm 3,1 km/h (1 Bft) NO 54 ° 0 min 0,000 mm 2,2 UV-I 274 W/m² 16,5 °C 19,3 °C 4,8 km/h (1 Bft)
05.08.2017 09:14 19,3 °C 19,3 °C 84 % 1013,3 hPa 0,0 mm 2,1 km/h (1 Bft) NO 54 ° 0 min 0,000 mm 2,6 UV-I 246 W/m² 16,5 °C 19,3 °C 3,2 km/h (1 Bft)
05.08.2017 09:15 19,4 °C 19,4 °C 84 % 1013,3 hPa 0,0 mm 1,7 km/h (1 Bft) NO 54 ° 0 min 0,000 mm 2,3 UV-I 246 W/m² 16,6 °C 19,4 °C 3,2 km/h (1 Bft)
05.08.2017 09:16 19,6 °C 19,6 °C 85 % 1013,3 hPa 0,0 mm 1,2 km/h (1 Bft) NO 54 ° 1 min 0,000 mm 3,0 UV-I 585 W/m² 17,0 °C 19,6 °C 3,2 km/h (1 Bft)
05.08.2017 09:17 19,7 °C 19,7 °C 83 % 1013,4 hPa 0,0 mm 2,9 km/h (1 Bft) NO 54 ° 1 min 0,000 mm 3,1 UV-I 591 W/m² 16,7 °C 19,7 °C 4,8 km/h (1 Bft)
05.08.2017 09:18 19,7 °C 19,7 °C 82 % 1013,4 hPa 0,0 mm 4,1 km/h (1 Bft) NO 54 ° 1 min 0,000 mm 2,8 UV-I 591 W/m² 16,5 °C 19,7 °C 4,8 km/h (1 Bft)
05.08.2017 09:19 19,7 °C 19,7 °C 82 % 1013,3 hPa 0,0 mm 3,6 km/h (1 Bft) NO 54 ° 1 min 0,000 mm 2,2 UV-I 591 W/m² 16,5 °C 19,7 °C 4,8 km/h (1 Bft)
05.08.2017 09:20 19,7 °C 19,7 °C 82 % 1013,3 hPa 0,0 mm 0,6 km/h (0 Bft) NO 54 ° 0 min 0,000 mm 2,3 UV-I 227 W/m² 16,5 °C 19,7 °C 1,6 km/h (1 Bft)
05.08.2017 09:21 19,6 °C 19,7 °C 82 % 1013,3 hPa 0,0 mm 0,5 km/h (0 Bft) NO 54 ° 1 min 0,000 mm 3,0 UV-I 297 W/m² 16,4 °C 19,6 °C 1,6 km/h (1 Bft)
05.08.2017 09:22 19,7 °C 19,7 °C 82 % 1013,3 hPa 0,0 mm 0,0 km/h (0 Bft) NO 54 ° 1 min 0,000 mm 2,2 UV-I 297 W/m² 16,5 °C 19,7 °C 0,0 km/h (0 Bft)
05.08.2017 09:23 19,7 °C 19,7 °C 82 % 1013,2 hPa 0,0 mm 2,7 km/h (1 Bft) NO 54 ° 1 min 0,000 mm 2,5 UV-I 554 W/m² 16,5 °C 19,7 °C 4,8 km/h (1 Bft)
05.08.2017 09:24 19,7 °C 19,7 °C 82 % 1013,2 hPa 0,0 mm 4,6 km/h (1 Bft) NO 54 ° 1 min 0,000 mm 3,1 UV-I 536 W/m² 16,5 °C 19,7 °C 8,0 km/h (2 Bft)
05.08.2017 09:25 19,7 °C 19,8 °C 82 % 1013,2 hPa 0,0 mm 2,6 km/h (1 Bft) NO 54 ° 1 min 0,000 mm 2,7 UV-I 536 W/m² 16,5 °C 19,7 °C 3,2 km/h (1 Bft)
05.08.2017 09:26 19,7 °C 19,8 °C 82 % 1013,2 hPa 0,0 mm 0,1 km/h (0 Bft) NO 54 ° 1 min 0,000 mm 3,1 UV-I 536 W/m² 16,5 °C 19,7 °C 1,6 km/h (1 Bft)
05.08.2017 09:27 19,8 °C 19,8 °C 82 % 1013,2 hPa 0,0 mm 3,9 km/h (1 Bft) N 360 ° 1 min 0,000 mm 3,1 UV-I 503 W/m² 16,6 °C 19,8 °C 4,8 km/h (1 Bft)
05.08.2017 09:28 19,9 °C 19,9 °C 82 % 1013,2 hPa 0,0 mm 4,9 km/h (1 Bft) N 355 ° 1 min 0,000 mm 2,8 UV-I 490 W/m² 16,7 °C 19,9 °C 6,4 km/h (2 Bft)
05.08.2017 09:29 20,0 °C 20,0 °C 82 % 1013,2 hPa 0,0 mm 4,8 km/h (1 Bft) N 360 ° 1 min 0,000 mm 3,1 UV-I 475 W/m² 16,8 °C 20,0 °C 6,4 km/h (2 Bft)
05.08.2017 09:30 20,1 °C 20,1 °C 82 % 1013,2 hPa 0,0 mm 4,0 km/h (1 Bft) N 360 ° 1 min 0,000 mm 3,1 UV-I 492 W/m² 16,9 °C 20,1 °C 4,8 km/h (1 Bft)
05.08.2017 09:31 20,2 °C 20,2 °C 83 % 1013,2 hPa 0,0 mm 1,4 km/h (1 Bft) N 360 ° 1 min 0,000 mm 3,2 UV-I 494 W/m² 17,2 °C 20,2 °C 1,6 km/h (1 Bft)
05.08.2017 09:32 20,2 °C 20,2 °C 83 % 1013,2 hPa 0,0 mm 3,0 km/h (1 Bft) N 360 ° 1 min 0,000 mm 3,2 UV-I 497 W/m² 17,2 °C 20,2 °C 4,8 km/h (1 Bft)
05.08.2017 09:34 20,3 °C 20,3 °C 81 % 1013,2 hPa 0,0 mm 3,6 km/h (1 Bft) N 9 ° 2 min 0,000 mm 3,3 UV-I 503 W/m² 16,9 °C 20,3 °C 6,4 km/h (2 Bft)
05.08.2017 09:35 20,3 °C 20,3 °C 81 % 1013,2 hPa 0,0 mm 4,5 km/h (1 Bft) N 360 ° 1 min 0,000 mm 3,3 UV-I 503 W/m² 16,9 °C 20,3 °C 6,4 km/h (2 Bft)
05.08.2017 09:36 20,4 °C 20,4 °C 81 % 1013,2 hPa 0,0 mm 3,0 km/h (1 Bft) N 360 ° 1 min 0,000 mm 3,3 UV-I 501 W/m² 17,0 °C 20,4 °C 4,8 km/h (1 Bft)
05.08.2017 09:37 20,4 °C 20,4 °C 81 % 1013,2 hPa 0,0 mm 2,4 km/h (1 Bft) N 360 ° 1 min 0,000 mm 3,3 UV-I 503 W/m² 17,0 °C 20,4 °C 3,2 km/h (1 Bft)
05.08.2017 09:38 20,4 °C 20,5 °C 82 % 1013,2 hPa 0,0 mm 2,3 km/h (1 Bft) N 355 ° 1 min 0,000 mm 3,4 UV-I 506 W/m² 17,2 °C 20,4 °C 3,2 km/h (1 Bft)
05.08.2017 09:39 20,4 °C 20,5 °C 79 % 1013,2 hPa 0,0 mm 1,4 km/h (1 Bft) N 355 ° 1 min 0,000 mm 1,5 UV-I 512 W/m² 16,6 °C 20,4 °C 3,2 km/h (1 Bft)
05.08.2017 09:40 20,4 °C 20,4 °C 81 % 1013,2 hPa 0,0 mm 2,1 km/h (1 Bft) N 360 ° 1 min 0,000 mm 3,1 UV-I 508 W/m² 17,0 °C 20,4 °C 4,8 km/h (1 Bft)
05.08.2017 09:41 20,5 °C 20,5 °C 83 % 1013,2 hPa 0,0 mm 3,1 km/h (1 Bft) N-NO 19 ° 1 min 0,000 mm 2,9 UV-I 513 W/m² 17,5 °C 20,5 °C 4,8 km/h (1 Bft)
05.08.2017 09:42 20,6 °C 20,6 °C 80 % 1013,2 hPa 0,0 mm 3,3 km/h (1 Bft) N-NO 26 ° 1 min 0,000 mm 1,9 UV-I 517 W/m² 17,0 °C 20,6 °C 6,4 km/h (2 Bft)
05.08.2017 09:43 20,6 °C 20,6 °C 81 % 1013,2 hPa 0,0 mm 2,7 km/h (1 Bft) N-NO 26 ° 1 min 0,000 mm 2,0 UV-I 519 W/m² 17,2 °C 20,6 °C 4,8 km/h (1 Bft)
05.08.2017 09:44 20,6 °C 20,6 °C 79 % 1013,2 hPa 0,0 mm 2,2 km/h (1 Bft) N-NO 26 ° 1 min 0,000 mm 3,5 UV-I 519 W/m² 16,8 °C 20,6 °C 3,2 km/h (1 Bft)
05.08.2017 09:45 20,5 °C 20,6 °C 80 % 1013,2 hPa 0,0 mm 1,8 km/h (1 Bft) N-NO 26 ° 1 min 0,000 mm 3,5 UV-I 519 W/m² 16,9 °C 20,5 °C 3,2 km/h (1 Bft)
05.08.2017 09:46 20,6 °C 20,6 °C 81 % 1013,2 hPa 0,0 mm 1,5 km/h (1 Bft) N-NO 26 ° 1 min 0,000 mm 3,6 UV-I 524 W/m² 17,2 °C 20,6 °C 3,2 km/h (1 Bft)
05.08.2017 09:47 20,5 °C 20,6 °C 80 % 1013,2 hPa 0,0 mm 3,2 km/h (1 Bft) N-NW 342 ° 1 min 0,000 mm 3,6 UV-I 526 W/m² 16,9 °C 20,5 °C 4,8 km/h (1 Bft)
05.08.2017 09:48 20,4 °C 20,5 °C 80 % 1013,3 hPa 0,0 mm 4,0 km/h (1 Bft) NW 324 ° 1 min 0,000 mm 3,6 UV-I 527 W/m² 16,8 °C 20,4 °C 4,8 km/h (1 Bft)
05.08.2017 09:49 20,4 °C 20,5 °C 82 % 1013,3 hPa 0,0 mm 4,6 km/h (1 Bft) NW 323 ° 1 min 0,000 mm 3,6 UV-I 529 W/m² 17,2 °C 20,4 °C 4,8 km/h (1 Bft)
05.08.2017 09:50 20,5 °C 20,5 °C 82 % 1013,2 hPa 0,0 mm 4,1 km/h (1 Bft) NW 323 ° 1 min 0,000 mm 3,7 UV-I 529 W/m² 17,3 °C 20,5 °C 4,8 km/h (1 Bft)
05.08.2017 09:51 20,6 °C 20,6 °C 82 % 1013,3 hPa 0,0 mm 1,4 km/h (1 Bft) NW 323 ° 1 min 0,000 mm 3,7 UV-I 534 W/m² 17,4 °C 20,6 °C 3,2 km/h (1 Bft)
05.08.2017 09:52 20,7 °C 20,7 °C 81 % 1013,3 hPa 0,0 mm 2,3 km/h (1 Bft) NW 323 ° 1 min 0,000 mm 3,7 UV-I 540 W/m² 17,3 °C 20,7 °C 3,2 km/h (1 Bft)
05.08.2017 09:53 20,7 °C 20,7 °C 82 % 1013,3 hPa 0,0 mm 0,0 km/h (0 Bft) NW 323 ° 1 min 0,000 mm 3,8 UV-I 543 W/m² 17,5 °C 20,7 °C 0,0 km/h (0 Bft)
05.08.2017 09:54 20,7 °C 20,8 °C 81 % 1013,2 hPa 0,0 mm 0,9 km/h (0 Bft) NW 323 ° 1 min 0,000 mm 3,8 UV-I 545 W/m² 17,3 °C 20,7 °C 4,8 km/h (1 Bft)
05.08.2017 09:55 20,7 °C 20,8 °C 81 % 1013,3 hPa 0,0 mm 2,8 km/h (1 Bft) NW 317 ° 1 min 0,000 mm 3,9 UV-I 547 W/m² 17,3 °C 20,7 °C 4,8 km/h (1 Bft)
05.08.2017 09:56 20,7 °C 20,8 °C 80 % 1013,2 hPa 0,0 mm 2,2 km/h (1 Bft) NW 314 ° 1 min 0,000 mm 3,9 UV-I 548 W/m² 17,1 °C 20,7 °C 4,8 km/h (1 Bft)
05.08.2017 09:57 20,8 °C 20,8 °C 82 % 1013,2 hPa 0,0 mm 1,9 km/h (1 Bft) NW 313 ° 1 min 0,000 mm 3,9 UV-I 552 W/m² 17,6 °C 20,8 °C 3,2 km/h (1 Bft)
05.08.2017 09:58 20,8 °C 20,8 °C 80 % 1013,2 hPa 0,0 mm 1,9 km/h (1 Bft) NW 314 ° 1 min 0,000 mm 3,9 UV-I 566 W/m² 17,2 °C 20,8 °C 3,2 km/h (1 Bft)
05.08.2017 09:59 20,9 °C 20,9 °C 80 % 1013,2 hPa 0,0 mm 1,7 km/h (1 Bft) NW 314 ° 1 min 0,000 mm 4,0 UV-I 573 W/m² 17,3 °C 20,9 °C 3,2 km/h (1 Bft)
05.08.2017 10:00 20,9 °C 20,9 °C 80 % 1013,2 hPa 0,0 mm 2,6 km/h (1 Bft) NW 314 ° 1 min 0,254 mm 4,0 UV-I 584 W/m² 17,3 °C 20,9 °C 4,8 km/h (1 Bft)
05.08.2017 10:01 21,0 °C 21,0 °C 81 % 1013,3 hPa 0,0 mm 2,6 km/h (1 Bft) N 5 ° 1 min 0,000 mm 4,1 UV-I 598 W/m² 17,6 °C 21,0 °C 3,2 km/h (1 Bft)
05.08.2017 10:02 21,1 °C 21,1 °C 79 % 1013,2 hPa 0,0 mm 2,3 km/h (1 Bft) N 5 ° 1 min 0,000 mm 4,1 UV-I 605 W/m² 17,3 °C 21,1 °C 3,2 km/h (1 Bft)
05.08.2017 10:03 21,1 °C 21,1 °C 79 % 1013,2 hPa 0,0 mm 1,9 km/h (1 Bft) N 5 ° 1 min 0,000 mm 4,1 UV-I 605 W/m² 17,3 °C 21,1 °C 4,8 km/h (1 Bft)
05.08.2017 10:04 21,2 °C 21,2 °C 79 % 1013,2 hPa 0,0 mm 4,9 km/h (1 Bft) NO 34 ° 1 min 0,000 mm 4,2 UV-I 603 W/m² 17,4 °C 21,2 °C 6,4 km/h (2 Bft)
05.08.2017 10:05 21,2 °C 21,2 °C 79 % 1013,2 hPa 0,0 mm 2,9 km/h (1 Bft) NO 34 ° 1 min 0,000 mm 4,2 UV-I 599 W/m² 17,4 °C 21,2 °C 3,2 km/h (1 Bft)
05.08.2017 10:06 21,2 °C 21,2 °C 79 % 1013,2 hPa 0,0 mm 0,4 km/h (0 Bft) NO 34 ° 1 min 0,000 mm 4,1 UV-I 596 W/m² 17,4 °C 21,2 °C 1,6 km/h (1 Bft)
05.08.2017 10:07 21,2 °C 21,2 °C 80 % 1013,2 hPa 0,0 mm 0,7 km/h (0 Bft) NO 34 ° 1 min 0,000 mm 4,1 UV-I 589 W/m² 17,6 °C 21,2 °C 1,6 km/h (1 Bft)
05.08.2017 10:08 21,2 °C 21,2 °C 82 % 1013,3 hPa 0,0 mm 3,1 km/h (1 Bft) NW 319 ° 1 min 0,000 mm 4,1 UV-I 589 W/m² 18,0 °C 21,2 °C 4,8 km/h (1 Bft)
05.08.2017 10:09 21,3 °C 21,3 °C 80 % 1013,2 hPa 0,0 mm 2,5 km/h (1 Bft) NW 319 ° 1 min 0,000 mm 4,2 UV-I 596 W/m² 17,7 °C 21,3 °C 4,8 km/h (1 Bft)
05.08.2017 10:10 21,3 °C 21,3 °C 80 % 1013,2 hPa 0,0 mm 2,3 km/h (1 Bft) NW 319 ° 1 min 0,000 mm 4,2 UV-I 599 W/m² 17,7 °C 21,3 °C 3,2 km/h (1 Bft)
05.08.2017 10:11 21,5 °C 21,5 °C 80 % 1013,3 hPa 0,0 mm 3,4 km/h (1 Bft) N-NW 340 ° 1 min 0,000 mm 4,2 UV-I 598 W/m² 17,9 °C 21,5 °C 4,8 km/h (1 Bft)
05.08.2017 10:12 21,7 °C 21,7 °C 79 % 1013,2 hPa 0,0 mm 2,4 km/h (1 Bft) N-NW 342 ° 1 min 0,000 mm 4,2 UV-I 613 W/m² 17,9 °C 21,7 °C 3,2 km/h (1 Bft)
05.08.2017 10:13 21,7 °C 21,7 °C 82 % 1013,2 hPa 0,0 mm 2,9 km/h (1 Bft) N-NO 29 ° 1 min 0,000 mm 4,3 UV-I 615 W/m² 18,5 °C 21,7 °C 3,2 km/h (1 Bft)
05.08.2017 10:14 21,6 °C 21,7 °C 78 % 1013,3 hPa 0,0 mm 2,1 km/h (1 Bft) N-NO 32 ° 1 min 0,000 mm 4,3 UV-I 612 W/m² 17,6 °C 21,6 °C 3,2 km/h (1 Bft)
05.08.2017 10:15 21,4 °C 21,6 °C 78 % 1013,3 hPa 0,0 mm 1,5 km/h (1 Bft) O 89 ° 1 min 0,000 mm 4,4 UV-I 615 W/m² 17,4 °C 21,4 °C 3,2 km/h (1 Bft)
05.08.2017 10:16 21,3 °C 21,4 °C 78 % 1013,3 hPa 0,0 mm 3,3 km/h (1 Bft) O 90 ° 1 min 0,000 mm 4,4 UV-I 621 W/m² 17,3 °C 21,3 °C 4,8 km/h (1 Bft)
05.08.2017 10:17 21,2 °C 21,3 °C 80 % 1013,3 hPa 0,0 mm 3,0 km/h (1 Bft) O 90 ° 1 min 0,000 mm 4,4 UV-I 629 W/m² 17,6 °C 21,2 °C 4,8 km/h (1 Bft)
05.08.2017 10:18 21,2 °C 21,2 °C 80 % 1013,3 hPa 0,0 mm 3,2 km/h (1 Bft) O 90 ° 1 min 0,000 mm 4,5 UV-I 643 W/m² 17,6 °C 21,2 °C 4,8 km/h (1 Bft)
05.08.2017 10:19 21,2 °C 21,2 °C 80 % 1013,3 hPa 0,0 mm 3,5 km/h (1 Bft) O 90 ° 1 min 0,000 mm 4,5 UV-I 663 W/m² 17,6 °C 21,2 °C 4,8 km/h (1 Bft)
05.08.2017 10:20 21,2 °C 21,2 °C 80 % 1013,3 hPa 0,0 mm 2,5 km/h (1 Bft) O 90 ° 1 min 0,000 mm 4,6 UV-I 682 W/m² 17,6 °C 21,2 °C 3,2 km/h (1 Bft)
05.08.2017 10:21 21,3 °C 21,3 °C 83 % 1013,4 hPa 0,0 mm 2,3 km/h (1 Bft) O 90 ° 1 min 0,000 mm 4,6 UV-I 721 W/m² 18,3 °C 21,3 °C 3,2 km/h (1 Bft)
05.08.2017 10:22 21,6 °C 21,6 °C 82 % 1013,3 hPa 0,0 mm 2,0 km/h (1 Bft) O 92 ° 1 min 0,000 mm 4,7 UV-I 731 W/m² 18,4 °C 21,6 °C 4,8 km/h (1 Bft)
05.08.2017 10:23 21,6 °C 21,6 °C 79 % 1013,4 hPa 0,0 mm 1,2 km/h (1 Bft) O 92 ° 1 min 0,000 mm 4,6 UV-I 745 W/m² 17,8 °C 21,6 °C 1,6 km/h (1 Bft)
05.08.2017 10:24 21,7 °C 21,7 °C 78 % 1013,3 hPa 0,0 mm 0,9 km/h (0 Bft) O 92 ° 1 min 0,000 mm 4,7 UV-I 761 W/m² 17,7 °C 21,7 °C 3,2 km/h (1 Bft)
05.08.2017 10:25 21,8 °C 21,8 °C 79 % 1013,3 hPa 0,0 mm 1,3 km/h (1 Bft) O 92 ° 1 min 0,000 mm 4,8 UV-I 765 W/m² 18,0 °C 21,8 °C 3,2 km/h (1 Bft)
05.08.2017 10:26 21,8 °C 21,8 °C 77 % 1013,4 hPa 0,0 mm 1,2 km/h (1 Bft) O 92 ° 1 min 0,000 mm 4,8 UV-I 784 W/m² 17,6 °C 21,8 °C 3,2 km/h (1 Bft)
05.08.2017 10:27 21,9 °C 21,9 °C 77 % 1013,4 hPa 0,0 mm 0,1 km/h (0 Bft) O 92 ° 1 min 0,000 mm 4,9 UV-I 816 W/m² 17,7 °C 21,9 °C 1,6 km/h (1 Bft)
05.08.2017 10:28 22,0 °C 22,0 °C 78 % 1013,4 hPa 0,0 mm 0,0 km/h (0 Bft) O 92 ° 1 min 0,000 mm 4,9 UV-I 824 W/m² 18,0 °C 22,0 °C 0,0 km/h (0 Bft)
05.08.2017 10:29 22,1 °C 22,1 °C 79 % 1013,3 hPa 0,0 mm 0,0 km/h (0 Bft) O 92 ° 1 min 0,000 mm 3,6 UV-I 824 W/m² 18,3 °C 22,1 °C 0,0 km/h (0 Bft)
05.08.2017 10:30 22,2 °C 22,2 °C 81 % 1013,3 hPa 0,0 mm 0,0 km/h (0 Bft) O 92 ° 1 min 0,000 mm 3,2 UV-I 397 W/m² 18,8 °C 22,2 °C 0,0 km/h (0 Bft)
05.08.2017 10:31 22,2 °C 22,2 °C 78 % 1013,3 hPa 0,0 mm 0,8 km/h (0 Bft) O 89 ° 1 min 0,000 mm 3,4 UV-I 392 W/m² 18,2 °C 22,2 °C 3,2 km/h (1 Bft)
05.08.2017 10:32 22,2 °C 22,2 °C 78 % 1013,3 hPa 0,0 mm 2,3 km/h (1 Bft) O 88 ° 1 min 0,000 mm 3,2 UV-I 327 W/m² 18,2 °C 22,2 °C 3,2 km/h (1 Bft)
05.08.2017 10:33 22,2 °C 22,2 °C 77 % 1013,3 hPa 0,0 mm 2,9 km/h (1 Bft) NW 319 ° 1 min 0,000 mm 3,6 UV-I 390 W/m² 18,0 °C 22,2 °C 4,8 km/h (1 Bft)
05.08.2017 10:34 22,3 °C 22,3 °C 78 % 1013,3 hPa 0,0 mm 4,7 km/h (1 Bft) NW 321 ° 1 min 0,000 mm 5,4 UV-I 390 W/m² 18,3 °C 22,3 °C 6,4 km/h (2 Bft)
05.08.2017 10:35 22,4 °C 22,4 °C 80 % 1013,3 hPa 0,0 mm 2,3 km/h (1 Bft) NW 321 ° 1 min 0,000 mm 4,8 UV-I 390 W/m² 18,8 °C 22,4 °C 3,2 km/h (1 Bft)
05.08.2017 10:36 22,4 °C 22,5 °C 77 % 1013,3 hPa 0,0 mm 1,9 km/h (1 Bft) NW 321 ° 1 min 0,000 mm 4,4 UV-I 390 W/m² 18,2 °C 22,4 °C 4,8 km/h (1 Bft)
05.08.2017 10:37 22,4 °C 22,4 °C 78 % 1013,3 hPa 0,0 mm 1,2 km/h (1 Bft) N 351 ° 1 min 0,000 mm 5,3 UV-I 390 W/m² 18,4 °C 22,4 °C 3,2 km/h (1 Bft)
05.08.2017 10:38 22,5 °C 22,5 °C 79 % 1013,2 hPa 0,0 mm 4,6 km/h (1 Bft) NW 319 ° 1 min 0,000 mm 5,1 UV-I 390 W/m² 18,7 °C 22,5 °C 6,4 km/h (2 Bft)
05.08.2017 10:39 22,5 °C 22,5 °C 77 % 1013,2 hPa 0,0 mm 4,4 km/h (1 Bft) NW 319 ° 1 min 0,000 mm 5,3 UV-I 758 W/m² 18,3 °C 22,5 °C 4,8 km/h (1 Bft)
05.08.2017 10:40 22,6 °C 22,6 °C 77 % 1013,2 hPa 0,0 mm 3,8 km/h (1 Bft) NW 315 ° 1 min 0,000 mm 5,3 UV-I 744 W/m² 18,4 °C 22,6 °C 6,4 km/h (2 Bft)
05.08.2017 10:41 22,6 °C 22,6 °C 77 % 1013,2 hPa 0,0 mm 2,4 km/h (1 Bft) NW 315 ° 1 min 0,000 mm 5,2 UV-I 735 W/m² 18,4 °C 22,6 °C 3,2 km/h (1 Bft)
05.08.2017 10:42 22,6 °C 22,6 °C 76 % 1013,2 hPa 0,0 mm 1,9 km/h (1 Bft) N-NW 340 ° 1 min 0,000 mm 5,2 UV-I 728 W/m² 18,1 °C 22,6 °C 3,2 km/h (1 Bft)
05.08.2017 10:43 22,7 °C 22,7 °C 81 % 1013,2 hPa 0,0 mm 1,6 km/h (1 Bft) N-NW 340 ° 1 min 0,000 mm 5,1 UV-I 707 W/m² 19,3 °C 22,7 °C 3,2 km/h (1 Bft)
05.08.2017 10:44 22,8 °C 22,8 °C 77 % 1013,2 hPa 0,0 mm 0,4 km/h (0 Bft) N-NW 340 ° 1 min 0,000 mm 5,2 UV-I 707 W/m² 18,5 °C 22,8 °C 1,6 km/h (1 Bft)
05.08.2017 10:45 22,9 °C 22,9 °C 78 % 1013,2 hPa 0,0 mm 0,3 km/h (0 Bft) N-NW 340 ° 1 min 0,000 mm 4,6 UV-I 701 W/m² 18,9 °C 22,9 °C 1,6 km/h (1 Bft)
05.08.2017 10:46 22,8 °C 22,9 °C 76 % 1013,2 hPa 0,0 mm 1,5 km/h (1 Bft) N-NW 332 ° 1 min 0,000 mm 5,3 UV-I 701 W/m² 18,3 °C 22,8 °C 1,6 km/h (1 Bft)
05.08.2017 10:47 22,8 °C 22,8 °C 76 % 1013,2 hPa 0,0 mm 2,0 km/h (1 Bft) NW 316 ° 1 min 0,000 mm 5,3 UV-I 707 W/m² 18,3 °C 22,8 °C 4,8 km/h (1 Bft)
05.08.2017 10:48 22,9 °C 22,9 °C 77 % 1013,2 hPa 0,0 mm 0,1 km/h (0 Bft) NW 316 ° 1 min 0,000 mm 5,4 UV-I 722 W/m² 18,6 °C 22,9 °C 1,6 km/h (1 Bft)
05.08.2017 10:49 22,9 °C 22,9 °C 76 % 1013,2 hPa 0,0 mm 2,8 km/h (1 Bft) N-NW 331 ° 1 min 0,000 mm 5,4 UV-I 728 W/m² 18,4 °C 22,9 °C 4,8 km/h (1 Bft)
05.08.2017 10:50 22,9 °C 22,9 °C 77 % 1013,3 hPa 0,0 mm 2,1 km/h (1 Bft) N-NW 332 ° 1 min 0,000 mm 5,5 UV-I 728 W/m² 18,6 °C 22,9 °C 3,2 km/h (1 Bft)
05.08.2017 10:51 23,0 °C 23,0 °C 77 % 1013,2 hPa 0,0 mm 2,8 km/h (1 Bft) N-NW 332 ° 1 min 0,000 mm 5,4 UV-I 765 W/m² 18,7 °C 23,0 °C 4,8 km/h (1 Bft)
05.08.2017 10:52 23,1 °C 23,1 °C 77 % 1013,2 hPa 0,0 mm 4,1 km/h (1 Bft) N-NW 332 ° 1 min 0,000 mm 4,5 UV-I 765 W/m² 18,8 °C 23,1 °C 4,8 km/h (1 Bft)
05.08.2017 10:53 22,9 °C 23,1 °C 73 % 1013,2 hPa 0,0 mm 1,3 km/h (1 Bft) N-NW 331 ° 1 min 0,000 mm 5,4 UV-I 765 W/m² 17,8 °C 22,9 °C 1,6 km/h (1 Bft)
05.08.2017 10:54 22,8 °C 22,9 °C 77 % 1013,2 hPa 0,0 mm 1,8 km/h (1 Bft) N-NW 333 ° 1 min 0,000 mm 4,2 UV-I 765 W/m² 18,5 °C 22,8 °C 3,2 km/h (1 Bft)
05.08.2017 10:55 22,8 °C 22,8 °C 76 % 1013,2 hPa 0,0 mm 1,1 km/h (1 Bft) N-NW 333 ° 1 min 0,000 mm 5,3 UV-I 765 W/m² 18,3 °C 22,8 °C 3,2 km/h (1 Bft)
05.08.2017 10:56 22,8 °C 22,8 °C 78 % 1013,2 hPa 0,0 mm 2,8 km/h (1 Bft) N-NW 333 ° 0 min 0,000 mm 3,9 UV-I 287 W/m² 18,8 °C 22,8 °C 4,8 km/h (1 Bft)
05.08.2017 10:57 22,8 °C 22,8 °C 78 % 1013,2 hPa 0,0 mm 3,4 km/h (1 Bft) N-NW 333 ° 0 min 0,000 mm 5,4 UV-I 287 W/m² 18,8 °C 22,8 °C 4,8 km/h (1 Bft)
05.08.2017 10:58 22,9 °C 22,9 °C 76 % 1013,2 hPa 0,0 mm 1,6 km/h (1 Bft) N-NW 333 ° 1 min 0,000 mm 4,8 UV-I 731 W/m² 18,4 °C 22,9 °C 3,2 km/h (1 Bft)
05.08.2017 10:59 23,1 °C 23,1 °C 78 % 1013,2 hPa 0,0 mm 3,2 km/h (1 Bft) N-NW 333 ° 1 min 0,000 mm 5,5 UV-I 719 W/m² 19,0 °C 23,1 °C 3,2 km/h (1 Bft)
05.08.2017 11:00 23,1 °C 23,1 °C 72 % 1013,2 hPa 0,0 mm 2,2 km/h (1 Bft) N-NW 333 ° 1 min 0,381 mm 5,5 UV-I 708 W/m² 17,8 °C 23,1 °C 4,8 km/h (1 Bft)
05.08.2017 11:01 23,2 °C 23,2 °C 73 % 1013,2 hPa 0,0 mm 2,0 km/h (1 Bft) N-NW 333 ° 1 min 0,000 mm 5,5 UV-I 705 W/m² 18,1 °C 23,2 °C 3,2 km/h (1 Bft)
05.08.2017 11:02 23,2 °C 23,2 °C 75 % 1013,2 hPa 0,0 mm 0,1 km/h (0 Bft) N-NW 333 ° 1 min 0,000 mm 5,5 UV-I 712 W/m² 18,5 °C 23,2 °C 1,6 km/h (1 Bft)
05.08.2017 11:03 23,1 °C 23,2 °C 73 % 1013,2 hPa 0,0 mm 0,0 km/h (0 Bft) N-NW 333 ° 1 min 0,000 mm 5,5 UV-I 714 W/m² 18,0 °C 23,1 °C 0,0 km/h (0 Bft)
05.08.2017 11:04 23,2 °C 23,2 °C 76 % 1013,1 hPa 0,0 mm 0,5 km/h (0 Bft) N-NW 333 ° 1 min 0,000 mm 5,6 UV-I 721 W/m² 18,7 °C 23,2 °C 1,6 km/h (1 Bft)
05.08.2017 11:05 23,2 °C 23,2 °C 72 % 1013,1 hPa 0,0 mm 1,2 km/h (1 Bft) N-NW 333 ° 1 min 0,000 mm 5,6 UV-I 726 W/m² 17,9 °C 23,2 °C 3,2 km/h (1 Bft)
05.08.2017 11:06 23,2 °C 23,2 °C 74 % 1013,2 hPa 0,0 mm 1,3 km/h (1 Bft) N-NW 333 ° 1 min 0,000 mm 5,6 UV-I 729 W/m² 18,3 °C 23,2 °C 3,2 km/h (1 Bft)
05.08.2017 11:07 23,2 °C 23,2 °C 72 % 1013,2 hPa 0,0 mm 1,6 km/h (1 Bft) N-NW 333 ° 1 min 0,000 mm 5,8 UV-I 742 W/m² 17,9 °C 23,2 °C 1,6 km/h (1 Bft)
05.08.2017 11:08 23,1 °C 23,2 °C 73 % 1013,2 hPa 0,0 mm 1,2 km/h (1 Bft) N-NW 333 ° 1 min 0,000 mm 5,8 UV-I 754 W/m² 18,0 °C 23,1 °C 1,6 km/h (1 Bft)
05.08.2017 11:09 23,3 °C 23,3 °C 74 % 1013,1 hPa 0,0 mm 1,4 km/h (1 Bft) N-NW 342 ° 1 min 0,000 mm 5,8 UV-I 756 W/m² 18,4 °C 23,3 °C 3,2 km/h (1 Bft)
05.08.2017 11:10 23,3 °C 23,3 °C 73 % 1013,1 hPa 0,0 mm 2,8 km/h (1 Bft) O-NO 65 ° 1 min 0,000 mm 5,8 UV-I 756 W/m² 18,2 °C 23,3 °C 4,8 km/h (1 Bft)
05.08.2017 11:11 23,3 °C 23,3 °C 73 % 1013,2 hPa 0,0 mm 2,1 km/h (1 Bft) O-NO 65 ° 1 min 0,000 mm 5,8 UV-I 754 W/m² 18,2 °C 23,3 °C 4,8 km/h (1 Bft)
05.08.2017 11:12 23,2 °C 23,3 °C 72 % 1013,1 hPa 0,0 mm 2,5 km/h (1 Bft) O-NO 65 ° 1 min 0,000 mm 5,9 UV-I 754 W/m² 17,9 °C 23,2 °C 3,2 km/h (1 Bft)
05.08.2017 11:13 23,2 °C 23,2 °C 74 % 1013,1 hPa 0,0 mm 2,1 km/h (1 Bft) O-NO 65 ° 1 min 0,000 mm 5,8 UV-I 752 W/m² 18,3 °C 23,2 °C 4,8 km/h (1 Bft)
05.08.2017 11:14 23,2 °C 23,2 °C 75 % 1013,1 hPa 0,0 mm 3,9 km/h (1 Bft) O-SO 111 ° 1 min 0,000 mm 5,8 UV-I 770 W/m² 18,5 °C 23,2 °C 9,7 km/h (2 Bft)
05.08.2017 11:15 23,2 °C 23,2 °C 72 % 1013,1 hPa 0,0 mm 2,2 km/h (1 Bft) O-SO 111 ° 1 min 0,000 mm 6,0 UV-I 775 W/m² 17,9 °C 23,2 °C 6,4 km/h (2 Bft)
05.08.2017 11:16 23,2 °C 23,2 °C 74 % 1013,1 hPa 0,0 mm 0,7 km/h (0 Bft) O-SO 111 ° 1 min 0,000 mm 5,9 UV-I 768 W/m² 18,3 °C 23,2 °C 1,6 km/h (1 Bft)
05.08.2017 11:17 23,2 °C 23,2 °C 74 % 1013,1 hPa 0,0 mm 0,1 km/h (0 Bft) O-SO 111 ° 1 min 0,000 mm 5,8 UV-I 749 W/m² 18,3 °C 23,2 °C 1,6 km/h (1 Bft)
05.08.2017 11:18 23,3 °C 23,3 °C 74 % 1013,0 hPa 0,0 mm 0,6 km/h (0 Bft) O-SO 111 ° 1 min 0,000 mm 5,8 UV-I 747 W/m² 18,4 °C 23,3 °C 3,2 km/h (1 Bft)
05.08.2017 11:19 23,4 °C 23,4 °C 75 % 1013,0 hPa 0,0 mm 1,7 km/h (1 Bft) O-SO 112 ° 1 min 0,000 mm 5,8 UV-I 747 W/m² 18,7 °C 23,4 °C 4,8 km/h (1 Bft)
05.08.2017 11:20 23,6 °C 23,6 °C 74 % 1013,0 hPa 0,0 mm 0,1 km/h (0 Bft) O-SO 112 ° 1 min 0,000 mm 5,9 UV-I 745 W/m² 18,7 °C 23,6 °C 1,6 km/h (1 Bft)
05.08.2017 11:21 23,6 °C 23,6 °C 74 % 1013,0 hPa 0,0 mm 0,3 km/h (0 Bft) O-SO 112 ° 1 min 0,000 mm 5,9 UV-I 747 W/m² 18,7 °C 23,6 °C 1,6 km/h (1 Bft)
05.08.2017 11:22 23,8 °C 23,8 °C 73 % 1013,0 hPa 0,0 mm 2,5 km/h (1 Bft) O 88 ° 1 min 0,000 mm 5,0 UV-I 745 W/m² 18,7 °C 23,8 °C 4,8 km/h (1 Bft)
05.08.2017 11:23 23,9 °C 23,9 °C 75 % 1013,0 hPa 0,0 mm 2,8 km/h (1 Bft) W-NW 298 ° 1 min 0,000 mm 5,9 UV-I 745 W/m² 19,2 °C 23,9 °C 4,8 km/h (1 Bft)
05.08.2017 11:24 24,0 °C 24,0 °C 74 % 1013,0 hPa 0,0 mm 5,1 km/h (1 Bft) W-NW 283 ° 1 min 0,000 mm 6,0 UV-I 749 W/m² 19,1 °C 24,0 °C 6,4 km/h (2 Bft)
05.08.2017 11:25 24,1 °C 24,1 °C 72 % 1013,0 hPa 0,0 mm 3,0 km/h (1 Bft) W 265 ° 1 min 0,000 mm 6,0 UV-I 766 W/m² 18,7 °C 24,1 °C 4,8 km/h (1 Bft)
05.08.2017 11:26 24,2 °C 24,2 °C 73 % 1013,0 hPa 0,0 mm 4,7 km/h (1 Bft) W-SW 250 ° 1 min 0,000 mm 6,0 UV-I 775 W/m² 19,0 °C 24,2 °C 4,8 km/h (1 Bft)
05.08.2017 11:27 24,3 °C 24,3 °C 74 % 1013,0 hPa 0,0 mm 2,5 km/h (1 Bft) W-SW 258 ° 1 min 0,000 mm 6,1 UV-I 775 W/m² 19,4 °C 24,3 °C 4,8 km/h (1 Bft)
05.08.2017 11:28 24,2 °C 24,3 °C 71 % 1013,1 hPa 0,0 mm 5,8 km/h (2 Bft) S-SW 205 ° 1 min 0,000 mm 6,1 UV-I 768 W/m² 18,6 °C 24,2 °C 9,7 km/h (2 Bft)
05.08.2017 11:29 24,2 °C 24,2 °C 74 % 1013,1 hPa 0,0 mm 3,4 km/h (1 Bft) O-NO 67 ° 1 min 0,000 mm 6,1 UV-I 765 W/m² 19,3 °C 24,2 °C 8,0 km/h (2 Bft)
05.08.2017 11:30 24,1 °C 24,2 °C 72 % 1013,0 hPa 0,0 mm 4,8 km/h (1 Bft) NW 314 ° 1 min 0,000 mm 6,0 UV-I 758 W/m² 18,7 °C 24,1 °C 8,0 km/h (2 Bft)
05.08.2017 11:31 24,2 °C 24,2 °C 71 % 1013,0 hPa 0,0 mm 3,2 km/h (1 Bft) N-NW 327 ° 1 min 0,000 mm 6,0 UV-I 761 W/m² 18,6 °C 24,2 °C 4,8 km/h (1 Bft)
05.08.2017 11:32 24,3 °C 24,3 °C 71 % 1013,0 hPa 0,0 mm 4,5 km/h (1 Bft) N 355 ° 1 min 0,000 mm 6,1 UV-I 770 W/m² 18,7 °C 24,3 °C 6,4 km/h (2 Bft)
05.08.2017 11:33 24,3 °C 24,3 °C 71 % 1013,0 hPa 0,0 mm 7,8 km/h (2 Bft) N 5 ° 1 min 0,000 mm 6,0 UV-I 765 W/m² 18,7 °C 24,3 °C 11,3 km/h (2 Bft)
05.08.2017 11:34 24,3 °C 24,3 °C 69 % 1013,0 hPa 0,0 mm 5,2 km/h (1 Bft) N-NO 21 ° 1 min 0,000 mm 5,7 UV-I 705 W/m² 18,2 °C 24,3 °C 6,4 km/h (2 Bft)
05.08.2017 11:35 24,4 °C 24,4 °C 70 % 1012,9 hPa 0,0 mm 4,1 km/h (1 Bft) NO 36 ° 1 min 0,000 mm 6,1 UV-I 698 W/m² 18,6 °C 24,4 °C 8,0 km/h (2 Bft)
05.08.2017 11:36 24,6 °C 24,6 °C 75 % 1012,9 hPa 0,0 mm 4,0 km/h (1 Bft) N-NO 28 ° 1 min 0,000 mm 6,2 UV-I 772 W/m² 19,9 °C 24,6 °C 4,8 km/h (1 Bft)
05.08.2017 11:37 24,7 °C 24,7 °C 72 % 1013,0 hPa 0,0 mm 5,0 km/h (1 Bft) W-SW 247 ° 1 min 0,000 mm 6,2 UV-I 768 W/m² 19,3 °C 24,7 °C 8,0 km/h (2 Bft)
05.08.2017 11:38 24,7 °C 24,7 °C 72 % 1013,0 hPa 0,0 mm 8,3 km/h (2 Bft) W-NW 288 ° 1 min 0,000 mm 6,2 UV-I 766 W/m² 19,3 °C 24,7 °C 11,3 km/h (2 Bft)
05.08.2017 11:39 24,7 °C 24,8 °C 70 % 1012,9 hPa 0,0 mm 5,5 km/h (1 Bft) W 261 ° 1 min 0,000 mm 6,2 UV-I 770 W/m² 18,8 °C 24,7 °C 11,3 km/h (2 Bft)
05.08.2017 11:40 24,8 °C 24,8 °C 70 % 1012,9 hPa 0,0 mm 11,4 km/h (2 Bft) W-NW 296 ° 1 min 0,000 mm 6,2 UV-I 766 W/m² 18,9 °C 24,8 °C 12,9 km/h (3 Bft)
05.08.2017 11:41 24,8 °C 24,8 °C 68 % 1012,9 hPa 0,0 mm 14,8 km/h (3 Bft) W-SW 256 ° 1 min 0,000 mm 6,2 UV-I 761 W/m² 18,5 °C 24,8 °C 17,7 km/h (3 Bft)
05.08.2017 11:42 24,7 °C 24,8 °C 65 % 1012,9 hPa 0,0 mm 12,2 km/h (2 Bft) W-NW 300 ° 1 min 0,000 mm 6,2 UV-I 761 W/m² 17,7 °C 24,7 °C 17,7 km/h (3 Bft)
05.08.2017 11:43 24,6 °C 24,7 °C 65 % 1012,9 hPa 0,0 mm 10,2 km/h (2 Bft) W-NW 292 ° 1 min 0,000 mm 6,2 UV-I 761 W/m² 17,6 °C 24,6 °C 14,5 km/h (3 Bft)
05.08.2017 11:44 24,6 °C 24,6 °C 68 % 1012,9 hPa 0,0 mm 8,7 km/h (2 Bft) W-SW 257 ° 1 min 0,000 mm 6,2 UV-I 761 W/m² 18,3 °C 24,6 °C 14,5 km/h (3 Bft)
05.08.2017 11:45 24,6 °C 24,6 °C 68 % 1012,9 hPa 0,0 mm 9,3 km/h (2 Bft) W 260 ° 1 min 0,000 mm 6,2 UV-I 759 W/m² 18,3 °C 24,6 °C 11,3 km/h (2 Bft)
05.08.2017 11:46 24,5 °C 24,6 °C 65 % 1012,9 hPa 0,0 mm 7,5 km/h (2 Bft) W-SW 250 ° 1 min 0,000 mm 6,3 UV-I 768 W/m² 17,5 °C 24,5 °C 11,3 km/h (2 Bft)
05.08.2017 11:47 24,5 °C 24,5 °C 69 % 1012,9 hPa 0,0 mm 6,3 km/h (2 Bft) W-NW 297 ° 1 min 0,000 mm 6,3 UV-I 768 W/m² 18,4 °C 24,5 °C 11,3 km/h (2 Bft)
05.08.2017 11:48 24,5 °C 24,5 °C 69 % 1012,9 hPa 0,0 mm 4,9 km/h (1 Bft) W 260 ° 1 min 0,000 mm 6,3 UV-I 770 W/m² 18,4 °C 24,5 °C 8,0 km/h (2 Bft)
05.08.2017 11:49 24,7 °C 24,7 °C 72 % 1012,9 hPa 0,0 mm 6,1 km/h (2 Bft) W 277 ° 1 min 0,000 mm 6,3 UV-I 770 W/m² 19,3 °C 24,7 °C 9,7 km/h (2 Bft)
05.08.2017 11:50 24,8 °C 24,8 °C 73 % 1012,9 hPa 0,0 mm 8,8 km/h (2 Bft) W 275 ° 1 min 0,000 mm 6,3 UV-I 677 W/m² 19,6 °C 24,8 °C 12,9 km/h (3 Bft)
05.08.2017 11:51 24,9 °C 24,9 °C 69 % 1012,8 hPa 0,0 mm 7,5 km/h (2 Bft) NW 304 ° 1 min 0,000 mm 6,4 UV-I 677 W/m² 18,8 °C 24,9 °C 11,3 km/h (2 Bft)
05.08.2017 11:52 24,9 °C 24,9 °C 69 % 1012,9 hPa 0,0 mm 9,4 km/h (2 Bft) W-SW 258 ° 1 min 0,000 mm 6,4 UV-I 786 W/m² 18,8 °C 24,9 °C 14,5 km/h (3 Bft)
05.08.2017 11:53 24,8 °C 24,9 °C 70 % 1012,9 hPa 0,0 mm 10,3 km/h (2 Bft) W-SW 256 ° 1 min 0,000 mm 6,4 UV-I 779 W/m² 18,9 °C 24,8 °C 16,1 km/h (3 Bft)
05.08.2017 11:54 24,9 °C 24,9 °C 68 % 1012,9 hPa 0,0 mm 8,2 km/h (2 Bft) W-SW 248 ° 1 min 0,000 mm 6,5 UV-I 805 W/m² 18,6 °C 24,9 °C 12,9 km/h (3 Bft)
05.08.2017 11:55 24,9 °C 24,9 °C 71 % 1012,8 hPa 0,0 mm 6,3 km/h (2 Bft) W-SW 258 ° 1 min 0,000 mm 6,5 UV-I 805 W/m² 19,3 °C 24,9 °C 11,3 km/h (2 Bft)
05.08.2017 11:56 25,0 °C 25,0 °C 68 % 1012,8 hPa 0,0 mm 5,2 km/h (1 Bft) W-NW 284 ° 1 min 0,000 mm 6,6 UV-I 798 W/m² 18,7 °C 25,0 °C 8,0 km/h (2 Bft)
05.08.2017 11:57 24,9 °C 25,0 °C 70 % 1012,8 hPa 0,0 mm 9,8 km/h (2 Bft) W 273 ° 1 min 0,000 mm 6,5 UV-I 789 W/m² 19,0 °C 24,9 °C 12,9 km/h (3 Bft)
05.08.2017 11:58 24,9 °C 24,9 °C 70 % 1012,8 hPa 0,0 mm 6,6 km/h (2 Bft) W 267 ° 1 min 0,000 mm 6,5 UV-I 784 W/m² 19,0 °C 24,9 °C 9,7 km/h (2 Bft)
05.08.2017 11:59 24,9 °C 24,9 °C 69 % 1012,8 hPa 0,0 mm 4,4 km/h (1 Bft) N-NW 331 ° 1 min 0,000 mm 6,6 UV-I 800 W/m² 18,8 °C 24,9 °C 6,4 km/h (2 Bft)
05.08.2017 12:00 25,1 °C 25,1 °C 69 % 1012,8 hPa 0,0 mm 4,2 km/h (1 Bft) NW 304 ° 1 min 0,000 mm 6,7 UV-I 803 W/m² 19,0 °C 25,1 °C 6,4 km/h (2 Bft)
05.08.2017 12:01 25,1 °C 25,1 °C 69 % 1012,8 hPa 0,0 mm 7,0 km/h (2 Bft) NW 305 ° 1 min 0,482 mm 6,7 UV-I 810 W/m² 19,0 °C 25,1 °C 14,5 km/h (3 Bft)
05.08.2017 12:02 25,1 °C 25,1 °C 69 % 1012,8 hPa 0,0 mm 9,9 km/h (2 Bft) NW 319 ° 1 min 0,000 mm 6,7 UV-I 814 W/m² 19,0 °C 25,1 °C 14,5 km/h (3 Bft)
05.08.2017 12:03 25,2 °C 25,2 °C 71 % 1012,8 hPa 0,0 mm 5,6 km/h (1 Bft) W-NW 288 ° 1 min 0,000 mm 6,7 UV-I 809 W/m² 19,6 °C 25,2 °C 8,0 km/h (2 Bft)
05.08.2017 12:04 25,2 °C 25,2 °C 67 % 1012,8 hPa 0,0 mm 5,6 km/h (1 Bft) N-NW 334 ° 1 min 0,000 mm 6,7 UV-I 816 W/m² 18,6 °C 25,2 °C 9,7 km/h (2 Bft)
05.08.2017 12:05 25,1 °C 25,2 °C 66 % 1012,8 hPa 0,0 mm 10,7 km/h (2 Bft) W-NW 289 ° 1 min 0,000 mm 6,8 UV-I 823 W/m² 18,3 °C 25,1 °C 17,7 km/h (3 Bft)
05.08.2017 12:06 25,1 °C 25,1 °C 68 % 1012,8 hPa 0,0 mm 12,8 km/h (3 Bft) W 281 ° 1 min 0,000 mm 6,8 UV-I 830 W/m² 18,8 °C 25,1 °C 19,3 km/h (3 Bft)
05.08.2017 12:07 25,0 °C 25,1 °C 68 % 1012,7 hPa 0,0 mm 8,1 km/h (2 Bft) W-NW 290 ° 1 min 0,000 mm 6,9 UV-I 846 W/m² 18,7 °C 25,0 °C 12,9 km/h (3 Bft)
05.08.2017 12:08 25,0 °C 25,0 °C 69 % 1012,7 hPa 0,0 mm 11,2 km/h (2 Bft) NW 319 ° 1 min 0,000 mm 7,0 UV-I 867 W/m² 18,9 °C 25,0 °C 19,3 km/h (3 Bft)
05.08.2017 12:09 25,1 °C 25,1 °C 68 % 1012,8 hPa 0,0 mm 14,0 km/h (3 Bft) W-NW 300 ° 1 min 0,000 mm 7,1 UV-I 891 W/m² 18,8 °C 25,1 °C 19,3 km/h (3 Bft)
05.08.2017 12:10 25,1 °C 25,1 °C 68 % 1012,8 hPa 0,0 mm 12,5 km/h (3 Bft) NW 309 ° 1 min 0,000 mm 7,3 UV-I 933 W/m² 18,8 °C 25,1 °C 17,7 km/h (3 Bft)
05.08.2017 12:11 25,2 °C 25,2 °C 66 % 1012,9 hPa 0,0 mm 7,2 km/h (2 Bft) W 279 ° 1 min 0,000 mm 7,5 UV-I 988 W/m² 18,4 °C 25,2 °C 9,7 km/h (2 Bft)
05.08.2017 12:12 25,1 °C 25,2 °C 68 % 1012,8 hPa 0,0 mm 5,8 km/h (2 Bft) N-NW 327 ° 1 min 0,000 mm 7,6 UV-I 960 W/m² 18,8 °C 25,1 °C 8,0 km/h (2 Bft)
05.08.2017 12:13 25,1 °C 25,1 °C 67 % 1012,9 hPa 0,0 mm 8,4 km/h (2 Bft) NW 309 ° 1 min 0,000 mm 7,1 UV-I 1044 W/m² 18,5 °C 25,1 °C 12,9 km/h (3 Bft)
05.08.2017 12:14 25,2 °C 25,2 °C 68 % 1012,8 hPa 0,0 mm 10,9 km/h (2 Bft) NW 320 ° 1 min 0,000 mm 7,6 UV-I 1051 W/m² 18,9 °C 25,2 °C 17,7 km/h (3 Bft)
05.08.2017 12:15 25,3 °C 25,3 °C 68 % 1012,8 hPa 0,0 mm 11,1 km/h (2 Bft) N-NW 330 ° 1 min 0,000 mm 7,7 UV-I 1069 W/m² 19,0 °C 25,3 °C 17,7 km/h (3 Bft)
05.08.2017 12:16 25,4 °C 25,4 °C 70 % 1012,8 hPa 0,0 mm 15,6 km/h (3 Bft) NW 313 ° 1 min 0,000 mm 7,5 UV-I 1093 W/m² 19,5 °C 25,4 °C 19,3 km/h (3 Bft)
05.08.2017 12:17 25,5 °C 25,5 °C 67 % 1012,9 hPa 0,0 mm 12,5 km/h (3 Bft) W-NW 302 ° 1 min 0,000 mm 7,6 UV-I 1088 W/m² 18,9 °C 25,5 °C 16,1 km/h (3 Bft)
05.08.2017 12:18 25,4 °C 25,5 °C 66 % 1012,8 hPa 0,0 mm 6,4 km/h (2 Bft) W 274 ° 1 min 0,000 mm 7,6 UV-I 1088 W/m² 18,6 °C 25,4 °C 12,9 km/h (3 Bft)
05.08.2017 12:19 25,3 °C 25,4 °C 67 % 1012,9 hPa 0,0 mm 8,9 km/h (2 Bft) NW 310 ° 1 min 0,000 mm 7,5 UV-I 1044 W/m² 18,7 °C 25,3 °C 14,5 km/h (3 Bft)
05.08.2017 12:20 25,4 °C 25,4 °C 68 % 1012,9 hPa 0,0 mm 11,5 km/h (2 Bft) W-NW 287 ° 1 min 0,000 mm 7,2 UV-I 1044 W/m² 19,1 °C 25,4 °C 14,5 km/h (3 Bft)
05.08.2017 12:21 25,6 °C 25,6 °C 71 % 1012,9 hPa 0,0 mm 12,7 km/h (3 Bft) W-NW 288 ° 1 min 0,000 mm 7,3 UV-I 1044 W/m² 19,9 °C 25,6 °C 17,7 km/h (3 Bft)
05.08.2017 12:22 25,6 °C 25,6 °C 66 % 1012,9 hPa 0,0 mm 9,1 km/h (2 Bft) N-NW 334 ° 1 min 0,000 mm 7,2 UV-I 990 W/m² 18,8 °C 25,6 °C 14,5 km/h (3 Bft)
05.08.2017 12:23 25,4 °C 25,6 °C 67 % 1012,9 hPa 0,0 mm 6,0 km/h (2 Bft) W-NW 294 ° 1 min 0,000 mm 7,0 UV-I 988 W/m² 18,8 °C 25,4 °C 11,3 km/h (2 Bft)
05.08.2017 12:24 25,4 °C 25,4 °C 70 % 1012,9 hPa 0,0 mm 7,6 km/h (2 Bft) NW 309 ° 1 min 0,000 mm 4,4 UV-I 1039 W/m² 19,5 °C 25,4 °C 11,3 km/h (2 Bft)
05.08.2017 12:25 25,3 °C 25,4 °C 69 % 1012,9 hPa 0,0 mm 5,7 km/h (1 Bft) W 281 ° 1 min 0,000 mm 4,4 UV-I 434 W/m² 19,2 °C 25,3 °C 9,7 km/h (2 Bft)
05.08.2017 12:26 25,2 °C 25,3 °C 68 % 1012,9 hPa 0,0 mm 7,0 km/h (2 Bft) NW 321 ° 1 min 0,000 mm 5,1 UV-I 492 W/m² 18,9 °C 25,2 °C 12,9 km/h (3 Bft)
05.08.2017 12:27 25,0 °C 25,2 °C 68 % 1012,9 hPa 0,0 mm 5,9 km/h (2 Bft) N-NW 338 ° 1 min 0,000 mm 4,8 UV-I 492 W/m² 18,7 °C 25,0 °C 11,3 km/h (2 Bft)
05.08.2017 12:28 24,9 °C 25,0 °C 71 % 1012,9 hPa 0,0 mm 10,5 km/h (2 Bft) NW 311 ° 1 min 0,000 mm 4,3 UV-I 492 W/m² 19,3 °C 24,9 °C 14,5 km/h (3 Bft)
05.08.2017 12:29 24,8 °C 24,9 °C 69 % 1012,9 hPa 0,0 mm 5,8 km/h (2 Bft) W 275 ° 1 min 0,000 mm 4,9 UV-I 436 W/m² 18,7 °C 24,8 °C 12,9 km/h (3 Bft)
05.08.2017 12:30 24,8 °C 24,8 °C 70 % 1012,9 hPa 0,0 mm 7,2 km/h (2 Bft) W-NW 297 ° 1 min 0,000 mm 5,6 UV-I 436 W/m² 18,9 °C 24,8 °C 14,5 km/h (3 Bft)
05.08.2017 12:31 24,8 °C 24,8 °C 72 % 1012,9 hPa 0,0 mm 6,4 km/h (2 Bft) NW 310 ° 1 min 0,000 mm 4,5 UV-I 436 W/m² 19,4 °C 24,8 °C 12,9 km/h (3 Bft)
05.08.2017 12:32 24,8 °C 24,8 °C 71 % 1012,9 hPa 0,0 mm 8,6 km/h (2 Bft) NW 319 ° 1 min 0,000 mm 7,1 UV-I 464 W/m² 19,2 °C 24,8 °C 12,9 km/h (3 Bft)
05.08.2017 12:33 24,7 °C 24,8 °C 69 % 1012,9 hPa 0,0 mm 10,0 km/h (2 Bft) N-NW 332 ° 1 min 0,000 mm 5,1 UV-I 471 W/m² 18,6 °C 24,7 °C 12,9 km/h (3 Bft)
05.08.2017 12:34 24,7 °C 24,7 °C 70 % 1012,9 hPa 0,0 mm 8,6 km/h (2 Bft) N-NW 335 ° 1 min 0,000 mm 5,3 UV-I 420 W/m² 18,8 °C 24,7 °C 14,5 km/h (3 Bft)
05.08.2017 12:35 24,7 °C 24,7 °C 71 % 1012,9 hPa 0,0 mm 6,6 km/h (2 Bft) W-NW 284 ° 1 min 0,000 mm 4,9 UV-I 517 W/m² 19,1 °C 24,7 °C 11,3 km/h (2 Bft)
05.08.2017 12:36 24,7 °C 24,7 °C 72 % 1012,9 hPa 0,0 mm 8,0 km/h (2 Bft) W-NW 284 ° 1 min 0,000 mm 4,5 UV-I 357 W/m² 19,3 °C 24,7 °C 12,9 km/h (3 Bft)
05.08.2017 12:37 24,7 °C 24,7 °C 72 % 1012,9 hPa 0,0 mm 10,2 km/h (2 Bft) W-NW 294 ° 1 min 0,000 mm 4,1 UV-I 345 W/m² 19,3 °C 24,7 °C 17,7 km/h (3 Bft)
05.08.2017 12:38 24,7 °C 24,7 °C 71 % 1012,8 hPa 0,0 mm 8,6 km/h (2 Bft) W 278 ° 1 min 0,000 mm 6,2 UV-I 387 W/m² 19,1 °C 24,7 °C 16,1 km/h (3 Bft)
05.08.2017 12:39 24,6 °C 24,7 °C 71 % 1012,9 hPa 0,0 mm 8,0 km/h (2 Bft) NW 307 ° 1 min 0,000 mm 7,7 UV-I 387 W/m² 19,0 °C 24,6 °C 12,9 km/h (3 Bft)
05.08.2017 12:40 24,7 °C 24,7 °C 68 % 1012,8 hPa 0,0 mm 6,0 km/h (2 Bft) NW 325 ° 1 min 0,000 mm 7,3 UV-I 387 W/m² 18,4 °C 24,7 °C 9,7 km/h (2 Bft)
05.08.2017 12:41 24,7 °C 24,7 °C 69 % 1012,9 hPa 0,0 mm 6,8 km/h (2 Bft) NW 319 ° 1 min 0,000 mm 7,4 UV-I 387 W/m² 18,6 °C 24,7 °C 9,7 km/h (2 Bft)
05.08.2017 12:42 24,7 °C 24,7 °C 70 % 1012,8 hPa 0,0 mm 6,2 km/h (2 Bft) NW 323 ° 1 min 0,000 mm 6,6 UV-I 1021 W/m² 18,8 °C 24,7 °C 8,0 km/h (2 Bft)
05.08.2017 12:43 24,8 °C 24,8 °C 69 % 1012,8 hPa 0,0 mm 3,3 km/h (1 Bft) NW 316 ° 1 min 0,000 mm 4,7 UV-I 1021 W/m² 18,7 °C 24,8 °C 4,8 km/h (1 Bft)
05.08.2017 12:44 24,9 °C 24,9 °C 71 % 1012,8 hPa 0,0 mm 12,3 km/h (3 Bft) W 275 ° 1 min 0,000 mm 5,5 UV-I 1021 W/m² 19,3 °C 24,9 °C 19,3 km/h (3 Bft)
05.08.2017 12:45 25,0 °C 25,0 °C 72 % 1012,8 hPa 0,0 mm 4,3 km/h (1 Bft) W 280 ° 1 min 0,000 mm 7,6 UV-I 1021 W/m² 19,6 °C 25,0 °C 4,8 km/h (1 Bft)
05.08.2017 12:46 25,1 °C 25,1 °C 70 % 1012,8 hPa 0,0 mm 8,4 km/h (2 Bft) NW 321 ° 1 min 0,000 mm 7,6 UV-I 1007 W/m² 19,2 °C 25,1 °C 12,9 km/h (3 Bft)
05.08.2017 12:47 25,2 °C 25,2 °C 70 % 1012,8 hPa 0,0 mm 8,5 km/h (2 Bft) W 268 ° 1 min 0,000 mm 7,6 UV-I 1002 W/m² 19,3 °C 25,2 °C 11,3 km/h (2 Bft)
05.08.2017 12:49 24,9 °C 25,2 °C 69 % 1012,8 hPa 0,0 mm 9,0 km/h (2 Bft) W 269 ° 2 min 0,000 mm 4,0 UV-I 875 W/m² 18,8 °C 24,9 °C 17,7 km/h (3 Bft)
05.08.2017 12:50 24,9 °C 24,9 °C 69 % 1012,8 hPa 0,0 mm 6,4 km/h (2 Bft) W 273 ° 1 min 0,000 mm 4,7 UV-I 875 W/m² 18,8 °C 24,9 °C 11,3 km/h (2 Bft)
05.08.2017 12:51 24,8 °C 24,9 °C 70 % 1012,8 hPa 0,0 mm 4,1 km/h (1 Bft) N-NW 329 ° 1 min 0,000 mm 4,8 UV-I 875 W/m² 18,9 °C 24,8 °C 6,4 km/h (2 Bft)
05.08.2017 12:52 24,7 °C 24,8 °C 71 % 1012,8 hPa 0,0 mm 4,3 km/h (1 Bft) W-NW 290 ° 1 min 0,000 mm 4,0 UV-I 875 W/m² 19,1 °C 24,7 °C 6,4 km/h (2 Bft)
05.08.2017 12:53 24,6 °C 24,7 °C 68 % 1012,8 hPa 0,0 mm 3,3 km/h (1 Bft) W-NW 299 ° 1 min 0,000 mm 4,0 UV-I 299 W/m² 18,3 °C 24,6 °C 6,4 km/h (2 Bft)
05.08.2017 12:54 24,4 °C 24,6 °C 69 % 1012,8 hPa 0,0 mm 4,0 km/h (1 Bft) W-NW 286 ° 1 min 0,000 mm 4,1 UV-I 299 W/m² 18,3 °C 24,4 °C 4,8 km/h (1 Bft)
05.08.2017 12:55 24,3 °C 24,4 °C 71 % 1012,7 hPa 0,0 mm 0,8 km/h (0 Bft) W-NW 286 ° 1 min 0,000 mm 4,0 UV-I 299 W/m² 18,7 °C 24,3 °C 3,2 km/h (1 Bft)
05.08.2017 12:56 24,3 °C 24,3 °C 70 % 1012,8 hPa 0,0 mm 4,4 km/h (1 Bft) W-SW 254 ° 1 min 0,000 mm 5,0 UV-I 334 W/m² 18,5 °C 24,3 °C 8,0 km/h (2 Bft)
05.08.2017 12:57 24,3 °C 24,3 °C 72 % 1012,8 hPa 0,0 mm 4,7 km/h (1 Bft) W 260 ° 1 min 0,000 mm 5,4 UV-I 334 W/m² 18,9 °C 24,3 °C 6,4 km/h (2 Bft)
05.08.2017 12:58 24,4 °C 24,4 °C 74 % 1012,8 hPa 0,0 mm 2,9 km/h (1 Bft) W 261 ° 1 min 0,000 mm 5,5 UV-I 334 W/m² 19,5 °C 24,4 °C 4,8 km/h (1 Bft)
05.08.2017 12:59 24,4 °C 24,4 °C 72 % 1012,8 hPa 0,0 mm 2,0 km/h (1 Bft) NW 306 ° 0 min 0,000 mm 4,0 UV-I 262 W/m² 19,0 °C 24,4 °C 4,8 km/h (1 Bft)
05.08.2017 13:00 24,5 °C 24,5 °C 71 % 1012,7 hPa 0,0 mm 2,6 km/h (1 Bft) W-NW 301 ° 0 min 0,000 mm 3,7 UV-I 262 W/m² 18,9 °C 24,5 °C 8,0 km/h (2 Bft)
05.08.2017 13:01 24,5 °C 24,5 °C 71 % 1012,7 hPa 0,0 mm 2,9 km/h (1 Bft) W-NW 295 ° 0 min 0,483 mm 4,0 UV-I 281 W/m² 18,9 °C 24,5 °C 3,2 km/h (1 Bft)
05.08.2017 13:02 24,5 °C 24,5 °C 73 % 1012,7 hPa 0,0 mm 1,0 km/h (0 Bft) W-NW 295 ° 0 min 0,000 mm 5,5 UV-I 281 W/m² 19,3 °C 24,5 °C 1,6 km/h (1 Bft)
05.08.2017 13:03 24,5 °C 24,5 °C 70 % 1012,7 hPa 0,0 mm 1,2 km/h (1 Bft) W-NW 295 ° 0 min 0,000 mm 5,9 UV-I 281 W/m² 18,7 °C 24,5 °C 3,2 km/h (1 Bft)
05.08.2017 13:04 24,5 °C 24,5 °C 70 % 1012,7 hPa 0,0 mm 0,0 km/h (0 Bft) W-NW 295 ° 0 min 0,000 mm 4,5 UV-I 281 W/m² 18,7 °C 24,5 °C 0,0 km/h (0 Bft)
05.08.2017 13:05 24,6 °C 24,6 °C 71 % 1012,7 hPa 0,0 mm 4,0 km/h (1 Bft) NW 315 ° 1 min 0,000 mm 4,9 UV-I 339 W/m² 19,0 °C 24,6 °C 6,4 km/h (2 Bft)
05.08.2017 13:06 24,6 °C 24,6 °C 70 % 1012,7 hPa 0,0 mm 4,4 km/h (1 Bft) W-NW 292 ° 1 min 0,000 mm 7,3 UV-I 947 W/m² 18,8 °C 24,6 °C 6,4 km/h (2 Bft)
05.08.2017 13:07 24,7 °C 24,7 °C 72 % 1012,7 hPa 0,0 mm 1,9 km/h (1 Bft) W-NW 292 ° 1 min 0,000 mm 5,9 UV-I 969 W/m² 19,3 °C 24,7 °C 4,8 km/h (1 Bft)
05.08.2017 13:08 24,9 °C 24,9 °C 70 % 1012,7 hPa 0,0 mm 3,7 km/h (1 Bft) N 355 ° 1 min 0,000 mm 4,2 UV-I 969 W/m² 19,0 °C 24,9 °C 6,4 km/h (2 Bft)
05.08.2017 13:09 24,9 °C 24,9 °C 70 % 1012,7 hPa 0,0 mm 4,4 km/h (1 Bft) N-NW 348 ° 0 min 0,000 mm 3,7 UV-I 237 W/m² 19,0 °C 24,9 °C 4,8 km/h (1 Bft)
05.08.2017 13:10 24,9 °C 24,9 °C 69 % 1012,7 hPa 0,0 mm 3,9 km/h (1 Bft) NW 310 ° 0 min 0,000 mm 3,6 UV-I 230 W/m² 18,8 °C 24,9 °C 11,3 km/h (2 Bft)
05.08.2017 13:11 24,9 °C 24,9 °C 70 % 1012,7 hPa 0,0 mm 10,7 km/h (2 Bft) W-NW 300 ° 0 min 0,000 mm 3,7 UV-I 274 W/m² 19,0 °C 24,9 °C 14,5 km/h (3 Bft)
05.08.2017 13:12 24,9 °C 24,9 °C 68 % 1012,6 hPa 0,0 mm 6,3 km/h (2 Bft) W-NW 302 ° 1 min 0,000 mm 4,0 UV-I 295 W/m² 18,6 °C 24,9 °C 9,7 km/h (2 Bft)
05.08.2017 13:13 24,8 °C 24,9 °C 69 % 1012,7 hPa 0,0 mm 4,4 km/h (1 Bft) NW 308 ° 1 min 0,000 mm 4,4 UV-I 352 W/m² 18,7 °C 24,8 °C 6,4 km/h (2 Bft)
05.08.2017 13:14 24,8 °C 24,8 °C 70 % 1012,7 hPa 0,0 mm 6,6 km/h (2 Bft) NW 322 ° 1 min 0,000 mm 4,6 UV-I 388 W/m² 18,9 °C 24,8 °C 9,7 km/h (2 Bft)
05.08.2017 13:15 24,7 °C 24,8 °C 70 % 1012,7 hPa 0,0 mm 7,0 km/h (2 Bft) NW 323 ° 1 min 0,000 mm 4,4 UV-I 374 W/m² 18,8 °C 24,7 °C 11,3 km/h (2 Bft)
05.08.2017 13:16 24,7 °C 24,8 °C 68 % 1012,6 hPa 0,0 mm 6,1 km/h (2 Bft) W-NW 294 ° 1 min 0,000 mm 4,2 UV-I 341 W/m² 18,4 °C 24,7 °C 9,7 km/h (2 Bft)
05.08.2017 13:17 24,7 °C 24,7 °C 70 % 1012,7 hPa 0,0 mm 4,2 km/h (1 Bft) W-SW 255 ° 1 min 0,000 mm 4,2 UV-I 350 W/m² 18,8 °C 24,7 °C 8,0 km/h (2 Bft)
05.08.2017 13:18 24,7 °C 24,7 °C 71 % 1012,7 hPa 0,0 mm 5,8 km/h (2 Bft) W 279 ° 1 min 0,000 mm 4,8 UV-I 329 W/m² 19,1 °C 24,7 °C 8,0 km/h (2 Bft)
05.08.2017 13:19 24,7 °C 24,7 °C 70 % 1012,7 hPa 0,0 mm 7,3 km/h (2 Bft) N 5 ° 1 min 0,000 mm 4,0 UV-I 329 W/m² 18,8 °C 24,7 °C 8,0 km/h (2 Bft)
05.08.2017 13:20 24,7 °C 24,8 °C 69 % 1012,7 hPa 0,0 mm 5,6 km/h (1 Bft) NW 309 ° 0 min 0,000 mm 3,9 UV-I 287 W/m² 18,6 °C 24,7 °C 8,0 km/h (2 Bft)
05.08.2017 13:21 24,7 °C 24,7 °C 69 % 1012,7 hPa 0,0 mm 4,4 km/h (1 Bft) NW 309 ° 0 min 0,000 mm 3,8 UV-I 278 W/m² 18,6 °C 24,7 °C 9,7 km/h (2 Bft)
05.08.2017 13:22 24,7 °C 24,8 °C 70 % 1012,7 hPa 0,0 mm 8,8 km/h (2 Bft) W-NW 295 ° 0 min 0,000 mm 3,3 UV-I 237 W/m² 18,8 °C 24,7 °C 12,9 km/h (3 Bft)
05.08.2017 13:23 24,7 °C 24,7 °C 67 % 1012,7 hPa 0,0 mm 3,0 km/h (1 Bft) NW 313 ° 0 min 0,000 mm 4,0 UV-I 260 W/m² 18,1 °C 24,7 °C 4,8 km/h (1 Bft)
05.08.2017 13:24 24,7 °C 24,7 °C 69 % 1012,7 hPa 0,0 mm 4,0 km/h (1 Bft) NW 317 ° 0 min 0,000 mm 4,2 UV-I 260 W/m² 18,6 °C 24,7 °C 8,0 km/h (2 Bft)
05.08.2017 13:25 24,7 °C 24,7 °C 71 % 1012,7 hPa 0,0 mm 4,5 km/h (1 Bft) W-NW 287 ° 1 min 0,000 mm 4,2 UV-I 422 W/m² 19,1 °C 24,7 °C 9,7 km/h (2 Bft)
05.08.2017 13:26 24,7 °C 24,7 °C 70 % 1012,7 hPa 0,0 mm 4,9 km/h (1 Bft) W-SW 257 ° 1 min 0,000 mm 3,6 UV-I 422 W/m² 18,8 °C 24,7 °C 9,7 km/h (2 Bft)
05.08.2017 13:27 24,7 °C 24,7 °C 68 % 1012,6 hPa 0,0 mm 7,5 km/h (2 Bft) W 281 ° 0 min 0,000 mm 3,8 UV-I 279 W/m² 18,4 °C 24,7 °C 11,3 km/h (2 Bft)
05.08.2017 13:28 24,7 °C 24,7 °C 68 % 1012,6 hPa 0,0 mm 5,4 km/h (1 Bft) W-NW 286 ° 1 min 0,000 mm 3,9 UV-I 322 W/m² 18,4 °C 24,7 °C 9,7 km/h (2 Bft)
05.08.2017 13:29 24,7 °C 24,7 °C 71 % 1012,6 hPa 0,0 mm 3,8 km/h (1 Bft) W 281 ° 1 min 0,000 mm 4,3 UV-I 424 W/m² 19,1 °C 24,7 °C 4,8 km/h (1 Bft)
05.08.2017 13:30 24,8 °C 24,8 °C 69 % 1012,6 hPa 0,0 mm 4,4 km/h (1 Bft) W 273 ° 1 min 0,000 mm 4,4 UV-I 381 W/m² 18,7 °C 24,8 °C 9,7 km/h (2 Bft)
05.08.2017 13:31 24,8 °C 24,8 °C 69 % 1012,6 hPa 0,0 mm 4,6 km/h (1 Bft) SW 235 ° 1 min 0,000 mm 4,3 UV-I 353 W/m² 18,7 °C 24,8 °C 9,7 km/h (2 Bft)
05.08.2017 13:32 24,8 °C 24,8 °C 69 % 1012,6 hPa 0,0 mm 5,4 km/h (1 Bft) NW 317 ° 1 min 0,000 mm 5,1 UV-I 353 W/m² 18,7 °C 24,8 °C 12,9 km/h (3 Bft)
05.08.2017 13:33 24,8 °C 24,8 °C 70 % 1012,6 hPa 0,0 mm 6,0 km/h (2 Bft) W-NW 299 ° 1 min 0,000 mm 4,4 UV-I 353 W/m² 18,9 °C 24,8 °C 11,3 km/h (2 Bft)
05.08.2017 13:34 24,9 °C 24,9 °C 70 % 1012,6 hPa 0,0 mm 7,0 km/h (2 Bft) W-NW 294 ° 1 min 0,000 mm 4,3 UV-I 394 W/m² 19,0 °C 24,9 °C 11,3 km/h (2 Bft)
05.08.2017 13:35 24,9 °C 24,9 °C 69 % 1012,6 hPa 0,0 mm 9,3 km/h (2 Bft) W-SW 253 ° 1 min 0,000 mm 4,6 UV-I 355 W/m² 18,8 °C 24,9 °C 12,9 km/h (3 Bft)
05.08.2017 13:36 24,9 °C 24,9 °C 69 % 1012,6 hPa 0,0 mm 5,7 km/h (1 Bft) SW 223 ° 1 min 0,000 mm 6,1 UV-I 396 W/m² 18,8 °C 24,9 °C 9,7 km/h (2 Bft)
05.08.2017 13:37 24,8 °C 24,9 °C 68 % 1012,6 hPa 0,0 mm 7,3 km/h (2 Bft) W 271 ° 1 min 0,000 mm 5,1 UV-I 487 W/m² 18,5 °C 24,8 °C 11,3 km/h (2 Bft)
05.08.2017 13:38 24,8 °C 24,9 °C 68 % 1012,6 hPa 0,0 mm 6,7 km/h (2 Bft) N-NW 328 ° 1 min 0,000 mm 5,0 UV-I 396 W/m² 18,5 °C 24,8 °C 11,3 km/h (2 Bft)
05.08.2017 13:39 24,9 °C 24,9 °C 68 % 1012,6 hPa 0,0 mm 5,7 km/h (1 Bft) N-NW 330 ° 1 min 0,000 mm 4,4 UV-I 343 W/m² 18,6 °C 24,9 °C 11,3 km/h (2 Bft)
05.08.2017 13:40 24,9 °C 24,9 °C 70 % 1012,6 hPa 0,0 mm 6,9 km/h (2 Bft) W 259 ° 1 min 0,000 mm 7,3 UV-I 343 W/m² 19,0 °C 24,9 °C 9,7 km/h (2 Bft)
05.08.2017 13:41 25,1 °C 25,1 °C 69 % 1012,6 hPa 0,0 mm 10,4 km/h (2 Bft) W 263 ° 1 min 0,000 mm 6,8 UV-I 898 W/m² 19,0 °C 25,1 °C 14,5 km/h (3 Bft)
05.08.2017 13:42 25,2 °C 25,2 °C 70 % 1012,6 hPa 0,0 mm 3,7 km/h (1 Bft) W 278 ° 1 min 0,000 mm 3,9 UV-I 898 W/m² 19,3 °C 25,2 °C 6,4 km/h (2 Bft)
05.08.2017 13:43 25,2 °C 25,3 °C 70 % 1012,6 hPa 0,0 mm 4,1 km/h (1 Bft) W 266 ° 1 min 0,000 mm 6,8 UV-I 898 W/m² 19,3 °C 25,2 °C 11,3 km/h (2 Bft)
05.08.2017 13:44 25,3 °C 25,3 °C 70 % 1012,5 hPa 0,0 mm 3,7 km/h (1 Bft) W-NW 296 ° 1 min 0,000 mm 5,2 UV-I 898 W/m² 19,4 °C 25,3 °C 6,4 km/h (2 Bft)
05.08.2017 13:45 25,3 °C 25,3 °C 69 % 1012,5 hPa 0,0 mm 2,9 km/h (1 Bft) S-SW 209 ° 1 min 0,000 mm 6,9 UV-I 701 W/m² 19,2 °C 25,3 °C 4,8 km/h (1 Bft)
05.08.2017 13:46 25,3 °C 25,3 °C 68 % 1012,5 hPa 0,0 mm 0,5 km/h (0 Bft) S-SW 209 ° 1 min 0,000 mm 7,2 UV-I 701 W/m² 19,0 °C 25,3 °C 1,6 km/h (1 Bft)
05.08.2017 13:47 25,4 °C 25,4 °C 70 % 1012,5 hPa 0,0 mm 6,6 km/h (2 Bft) W-SW 246 ° 1 min 0,000 mm 6,1 UV-I 1013 W/m² 19,5 °C 25,4 °C 9,7 km/h (2 Bft)
05.08.2017 13:48 25,7 °C 25,7 °C 72 % 1012,5 hPa 0,0 mm 7,5 km/h (2 Bft) W-NW 284 ° 1 min 0,000 mm 4,8 UV-I 1013 W/m² 20,3 °C 25,7 °C 14,5 km/h (3 Bft)
05.08.2017 13:49 25,6 °C 25,7 °C 67 % 1012,5 hPa 0,0 mm 10,5 km/h (2 Bft) W-SW 257 ° 1 min 0,000 mm 4,7 UV-I 401 W/m² 19,0 °C 25,6 °C 14,5 km/h (3 Bft)
05.08.2017 13:50 25,6 °C 25,6 °C 68 % 1012,5 hPa 0,0 mm 9,1 km/h (2 Bft) W 269 ° 1 min 0,000 mm 5,1 UV-I 401 W/m² 19,2 °C 25,6 °C 14,5 km/h (3 Bft)
05.08.2017 13:51 25,5 °C 25,6 °C 70 % 1012,5 hPa 0,0 mm 6,2 km/h (2 Bft) W 277 ° 1 min 0,000 mm 6,0 UV-I 652 W/m² 19,6 °C 25,5 °C 11,3 km/h (2 Bft)
05.08.2017 13:52 25,4 °C 25,5 °C 68 % 1012,5 hPa 0,0 mm 5,8 km/h (2 Bft) W 281 ° 1 min 0,000 mm 7,0 UV-I 935 W/m² 19,1 °C 25,4 °C 8,0 km/h (2 Bft)
05.08.2017 13:53 25,5 °C 25,5 °C 69 % 1012,5 hPa 0,0 mm 6,6 km/h (2 Bft) W-NW 286 ° 1 min 0,000 mm 7,8 UV-I 935 W/m² 19,4 °C 25,5 °C 11,3 km/h (2 Bft)
05.08.2017 13:54 25,6 °C 25,6 °C 70 % 1012,5 hPa 0,0 mm 4,5 km/h (1 Bft) W-NW 282 ° 1 min 0,000 mm 7,0 UV-I 935 W/m² 19,7 °C 25,6 °C 9,7 km/h (2 Bft)
05.08.2017 13:55 25,8 °C 25,8 °C 69 % 1012,5 hPa 0,0 mm 6,8 km/h (2 Bft) W 262 ° 1 min 0,000 mm 7,9 UV-I 935 W/m² 19,7 °C 25,8 °C 9,7 km/h (2 Bft)
05.08.2017 13:56 25,8 °C 25,8 °C 66 % 1012,5 hPa 0,0 mm 4,8 km/h (1 Bft) W-NW 297 ° 1 min 0,000 mm 7,9 UV-I 1072 W/m² 19,0 °C 25,8 °C 6,4 km/h (2 Bft)
05.08.2017 13:57 25,9 °C 25,9 °C 72 % 1012,5 hPa 0,0 mm 6,3 km/h (2 Bft) NW 320 ° 1 min 0,000 mm 7,8 UV-I 1060 W/m² 20,5 °C 25,9 °C 8,0 km/h (2 Bft)
05.08.2017 13:58 26,0 °C 26,0 °C 68 % 1012,5 hPa 0,0 mm 7,4 km/h (2 Bft) NW 306 ° 1 min 0,000 mm 7,8 UV-I 1044 W/m² 19,6 °C 26,0 °C 12,9 km/h (3 Bft)
05.08.2017 13:59 26,2 °C 26,2 °C 66 % 1012,5 hPa 0,0 mm 8,4 km/h (2 Bft) N 360 ° 1 min 0,000 mm 7,7 UV-I 1044 W/m² 19,3 °C 26,2 °C 12,9 km/h (3 Bft)
05.08.2017 14:00 26,3 °C 26,3 °C 67 % 1012,5 hPa 0,0 mm 9,9 km/h (2 Bft) N-NW 339 ° 1 min 0,381 mm 7,7 UV-I 1044 W/m² 19,7 °C 26,3 °C 17,7 km/h (3 Bft)
05.08.2017 14:01 26,4 °C 26,4 °C 67 % 1012,4 hPa 0,0 mm 13,0 km/h (3 Bft) W-NW 299 ° 1 min 0,000 mm 7,6 UV-I 1011 W/m² 19,8 °C 26,4 °C 16,1 km/h (3 Bft)
05.08.2017 14:02 26,5 °C 26,5 °C 67 % 1012,4 hPa 0,0 mm 12,0 km/h (2 Bft) NW 304 ° 1 min 0,000 mm 7,6 UV-I 1000 W/m² 19,9 °C 26,5 °C 17,7 km/h (3 Bft)
05.08.2017 14:03 26,6 °C 26,6 °C 70 % 1012,5 hPa 0,0 mm 12,1 km/h (2 Bft) N-NW 329 ° 1 min 0,000 mm 5,0 UV-I 972 W/m² 20,7 °C 26,6 °C 17,7 km/h (3 Bft)
05.08.2017 14:05 26,2 °C 26,7 °C 64 % 1012,5 hPa 0,0 mm 8,1 km/h (2 Bft) NW 306 ° 2 min 0,000 mm 4,2 UV-I 339 W/m² 18,8 °C 26,2 °C 14,5 km/h (3 Bft)
05.08.2017 14:06 26,1 °C 26,2 °C 67 % 1012,5 hPa 0,0 mm 6,6 km/h (2 Bft) W 261 ° 1 min 0,000 mm 4,5 UV-I 399 W/m² 19,5 °C 26,1 °C 11,3 km/h (2 Bft)
05.08.2017 14:07 25,8 °C 26,1 °C 65 % 1012,5 hPa 0,0 mm 7,8 km/h (2 Bft) W-NW 284 ° 1 min 0,000 mm 4,4 UV-I 404 W/m² 18,7 °C 25,8 °C 12,9 km/h (3 Bft)
05.08.2017 14:08 25,5 °C 25,8 °C 67 % 1012,5 hPa 0,0 mm 5,8 km/h (2 Bft) W-NW 290 ° 1 min 0,000 mm 3,7 UV-I 322 W/m² 18,9 °C 25,5 °C 9,7 km/h (2 Bft)
05.08.2017 14:09 25,3 °C 25,5 °C 68 % 1012,5 hPa 0,0 mm 7,1 km/h (2 Bft) W 259 ° 0 min 0,000 mm 3,5 UV-I 281 W/m² 19,0 °C 25,3 °C 14,5 km/h (3 Bft)
05.08.2017 14:10 25,3 °C 25,3 °C 67 % 1012,5 hPa 0,0 mm 7,6 km/h (2 Bft) W-SW 254 ° 0 min 0,000 mm 3,3 UV-I 267 W/m² 18,7 °C 25,3 °C 11,3 km/h (2 Bft)
05.08.2017 14:11 25,2 °C 25,3 °C 68 % 1012,6 hPa 0,0 mm 6,0 km/h (2 Bft) W-SW 255 ° 0 min 0,000 mm 3,0 UV-I 257 W/m² 18,9 °C 25,2 °C 9,7 km/h (2 Bft)
05.08.2017 14:12 25,1 °C 25,2 °C 71 % 1012,5 hPa 0,0 mm 8,2 km/h (2 Bft) W-SW 254 ° 0 min 0,000 mm 2,9 UV-I 253 W/m² 19,5 °C 25,1 °C 11,3 km/h (2 Bft)
05.08.2017 14:13 25,1 °C 25,2 °C 68 % 1012,6 hPa 0,0 mm 6,2 km/h (2 Bft) W-NW 287 ° 0 min 0,000 mm 2,9 UV-I 253 W/m² 18,8 °C 25,1 °C 9,7 km/h (2 Bft)
05.08.2017 14:14 25,0 °C 25,1 °C 68 % 1012,5 hPa 0,0 mm 7,5 km/h (2 Bft) W-NW 286 ° 0 min 0,000 mm 3,0 UV-I 253 W/m² 18,7 °C 25,0 °C 11,3 km/h (2 Bft)
05.08.2017 14:15 24,9 °C 25,0 °C 68 % 1012,5 hPa 0,0 mm 7,4 km/h (2 Bft) W-SW 255 ° 0 min 0,000 mm 3,1 UV-I 287 W/m² 18,6 °C 24,9 °C 11,3 km/h (2 Bft)
05.08.2017 14:16 24,9 °C 24,9 °C 69 % 1012,5 hPa 0,0 mm 7,3 km/h (2 Bft) W 273 ° 1 min 0,000 mm 3,1 UV-I 348 W/m² 18,8 °C 24,9 °C 11,3 km/h (2 Bft)
05.08.2017 14:17 24,8 °C 24,9 °C 71 % 1012,5 hPa 0,0 mm 3,0 km/h (1 Bft) W 274 ° 0 min 0,000 mm 2,9 UV-I 264 W/m² 19,2 °C 24,8 °C 4,8 km/h (1 Bft)
05.08.2017 14:18 24,9 °C 24,9 °C 69 % 1012,5 hPa 0,0 mm 7,0 km/h (2 Bft) NW 317 ° 0 min 0,000 mm 2,7 UV-I 236 W/m² 18,8 °C 24,9 °C 9,7 km/h (2 Bft)
05.08.2017 14:19 24,9 °C 24,9 °C 69 % 1012,5 hPa 0,0 mm 4,6 km/h (1 Bft) NW 315 ° 0 min 0,000 mm 2,5 UV-I 223 W/m² 18,8 °C 24,9 °C 9,7 km/h (2 Bft)
05.08.2017 14:20 24,9 °C 24,9 °C 69 % 1012,6 hPa 0,0 mm 3,8 km/h (1 Bft) NW 305 ° 0 min 0,000 mm 2,4 UV-I 218 W/m² 18,8 °C 24,9 °C 8,0 km/h (2 Bft)
05.08.2017 14:21 24,9 °C 24,9 °C 69 % 1012,6 hPa 0,0 mm 3,9 km/h (1 Bft) W-NW 285 ° 0 min 0,000 mm 2,3 UV-I 213 W/m² 18,8 °C 24,9 °C 6,4 km/h (2 Bft)
05.08.2017 14:22 24,8 °C 24,9 °C 68 % 1012,6 hPa 0,0 mm 5,1 km/h (1 Bft) NW 312 ° 0 min 0,000 mm 2,2 UV-I 207 W/m² 18,5 °C 24,8 °C 6,4 km/h (2 Bft)
05.08.2017 14:23 24,8 °C 24,8 °C 69 % 1012,5 hPa 0,0 mm 3,0 km/h (1 Bft) NW 319 ° 0 min 0,000 mm 2,2 UV-I 207 W/m² 18,7 °C 24,8 °C 4,8 km/h (1 Bft)
05.08.2017 14:24 24,7 °C 24,8 °C 71 % 1012,6 hPa 0,0 mm 7,2 km/h (2 Bft) NW 324 ° 0 min 0,000 mm 2,3 UV-I 207 W/m² 19,1 °C 24,7 °C 14,5 km/h (3 Bft)
05.08.2017 14:25 24,8 °C 24,8 °C 71 % 1012,5 hPa 0,0 mm 8,0 km/h (2 Bft) NW 309 ° 0 min 0,000 mm 2,5 UV-I 241 W/m² 19,2 °C 24,8 °C 16,1 km/h (3 Bft)
05.08.2017 14:26 24,8 °C 24,8 °C 69 % 1012,5 hPa 0,0 mm 4,4 km/h (1 Bft) W 267 ° 0 min 0,000 mm 2,6 UV-I 260 W/m² 18,7 °C 24,8 °C 8,0 km/h (2 Bft)
05.08.2017 14:27 24,8 °C 24,8 °C 70 % 1012,5 hPa 0,0 mm 6,9 km/h (2 Bft) W 268 ° 1 min 0,000 mm 2,9 UV-I 315 W/m² 18,9 °C 24,8 °C 11,3 km/h (2 Bft)
05.08.2017 14:28 24,7 °C 24,8 °C 70 % 1012,5 hPa 0,0 mm 8,6 km/h (2 Bft) W 273 ° 1 min 0,000 mm 3,4 UV-I 325 W/m² 18,8 °C 24,7 °C 14,5 km/h (3 Bft)
05.08.2017 14:29 24,7 °C 24,7 °C 68 % 1012,5 hPa 0,0 mm 8,7 km/h (2 Bft) W-NW 286 ° 1 min 0,000 mm 3,4 UV-I 325 W/m² 18,4 °C 24,7 °C 11,3 km/h (2 Bft)
05.08.2017 14:30 24,8 °C 24,8 °C 68 % 1012,5 hPa 0,0 mm 6,7 km/h (2 Bft) W 262 ° 1 min 0,000 mm 3,9 UV-I 366 W/m² 18,5 °C 24,8 °C 12,9 km/h (3 Bft)
05.08.2017 14:31 24,8 °C 24,8 °C 68 % 1012,4 hPa 0,0 mm 8,7 km/h (2 Bft) W 277 ° 1 min 0,000 mm 4,7 UV-I 366 W/m² 18,5 °C 24,8 °C 12,9 km/h (3 Bft)
05.08.2017 14:32 24,8 °C 24,8 °C 69 % 1012,5 hPa 0,0 mm 5,6 km/h (1 Bft) W 273 ° 1 min 0,000 mm 6,2 UV-I 366 W/m² 18,7 °C 24,8 °C 9,7 km/h (2 Bft)
05.08.2017 14:33 25,0 °C 25,0 °C 68 % 1012,5 hPa 0,0 mm 5,1 km/h (1 Bft) W-NW 287 ° 1 min 0,000 mm 4,5 UV-I 457 W/m² 18,7 °C 25,0 °C 6,4 km/h (2 Bft)
05.08.2017 14:34 25,1 °C 25,1 °C 70 % 1012,5 hPa 0,0 mm 6,6 km/h (2 Bft) W-NW 287 ° 1 min 0,000 mm 4,3 UV-I 360 W/m² 19,2 °C 25,1 °C 11,3 km/h (2 Bft)
05.08.2017 14:35 25,1 °C 25,1 °C 68 % 1012,5 hPa 0,0 mm 5,0 km/h (1 Bft) W-NW 286 ° 1 min 0,000 mm 4,1 UV-I 359 W/m² 18,8 °C 25,1 °C 6,4 km/h (2 Bft)
05.08.2017 14:36 25,2 °C 25,2 °C 68 % 1012,5 hPa 0,0 mm 3,5 km/h (1 Bft) W-NW 288 ° 1 min 0,000 mm 4,1 UV-I 371 W/m² 18,9 °C 25,2 °C 6,4 km/h (2 Bft)
05.08.2017 14:37 25,2 °C 25,2 °C 69 % 1012,5 hPa 0,0 mm 5,7 km/h (1 Bft) NW 322 ° 1 min 0,000 mm 4,2 UV-I 387 W/m² 19,1 °C 25,2 °C 11,3 km/h (2 Bft)
05.08.2017 14:38 25,2 °C 25,2 °C 69 % 1012,5 hPa 0,0 mm 7,6 km/h (2 Bft) W 276 ° 1 min 0,000 mm 4,6 UV-I 443 W/m² 19,1 °C 25,2 °C 9,7 km/h (2 Bft)
05.08.2017 14:39 25,2 °C 25,2 °C 67 % 1012,5 hPa 0,0 mm 8,3 km/h (2 Bft) W 276 ° 1 min 0,000 mm 4,0 UV-I 309 W/m² 18,6 °C 25,2 °C 14,5 km/h (3 Bft)
05.08.2017 14:40 25,1 °C 25,2 °C 67 % 1012,5 hPa 0,0 mm 8,6 km/h (2 Bft) NW 315 ° 0 min 0,000 mm 3,4 UV-I 276 W/m² 18,5 °C 25,1 °C 14,5 km/h (3 Bft)
05.08.2017 14:41 25,1 °C 25,1 °C 68 % 1012,5 hPa 0,0 mm 7,6 km/h (2 Bft) NW 313 ° 0 min 0,000 mm 3,3 UV-I 269 W/m² 18,8 °C 25,1 °C 17,7 km/h (3 Bft)
05.08.2017 14:42 25,1 °C 25,1 °C 66 % 1012,5 hPa 0,0 mm 7,4 km/h (2 Bft) NW 310 ° 0 min 0,000 mm 3,2 UV-I 274 W/m² 18,3 °C 25,1 °C 14,5 km/h (3 Bft)
05.08.2017 14:43 25,0 °C 25,1 °C 67 % 1012,5 hPa 0,0 mm 13,4 km/h (3 Bft) W-NW 298 ° 0 min 0,000 mm 3,2 UV-I 281 W/m² 18,4 °C 25,0 °C 20,9 km/h (4 Bft)
05.08.2017 14:44 24,9 °C 25,0 °C 68 % 1012,5 hPa 0,0 mm 10,5 km/h (2 Bft) N-NW 327 ° 0 min 0,000 mm 3,2 UV-I 288 W/m² 18,6 °C 24,9 °C 14,5 km/h (3 Bft)
05.08.2017 14:45 24,9 °C 24,9 °C 67 % 1012,5 hPa 0,0 mm 7,2 km/h (2 Bft) W 277 ° 1 min 0,000 mm 3,2 UV-I 290 W/m² 18,3 °C 24,9 °C 11,3 km/h (2 Bft)
05.08.2017 14:46 24,9 °C 24,9 °C 67 % 1012,5 hPa 0,0 mm 6,9 km/h (2 Bft) W 272 ° 0 min 0,000 mm 3,2 UV-I 285 W/m² 18,3 °C 24,9 °C 12,9 km/h (3 Bft)
05.08.2017 14:47 24,8 °C 24,9 °C 68 % 1012,5 hPa 0,0 mm 7,8 km/h (2 Bft) NW 321 ° 0 min 0,000 mm 3,2 UV-I 281 W/m² 18,5 °C 24,8 °C 12,9 km/h (3 Bft)
05.08.2017 14:48 24,8 °C 24,8 °C 70 % 1012,5 hPa 0,0 mm 8,3 km/h (2 Bft) W 277 ° 0 min 0,000 mm 3,2 UV-I 283 W/m² 18,9 °C 24,8 °C 12,9 km/h (3 Bft)
05.08.2017 14:49 24,8 °C 24,9 °C 71 % 1012,5 hPa 0,0 mm 4,4 km/h (1 Bft) W-NW 283 ° 1 min 0,000 mm 3,3 UV-I 295 W/m² 19,2 °C 24,8 °C 8,0 km/h (2 Bft)
05.08.2017 14:50 24,9 °C 24,9 °C 69 % 1012,6 hPa 0,0 mm 8,3 km/h (2 Bft) NW 311 ° 1 min 0,000 mm 3,4 UV-I 327 W/m² 18,8 °C 24,9 °C 11,3 km/h (2 Bft)
05.08.2017 14:51 24,9 °C 24,9 °C 68 % 1012,5 hPa 0,0 mm 9,3 km/h (2 Bft) W-NW 283 ° 1 min 0,000 mm 3,5 UV-I 343 W/m² 18,6 °C 24,9 °C 16,1 km/h (3 Bft)
05.08.2017 14:52 24,9 °C 24,9 °C 67 % 1012,5 hPa 0,0 mm 8,4 km/h (2 Bft) NW 313 ° 1 min 0,000 mm 3,8 UV-I 357 W/m² 18,3 °C 24,9 °C 12,9 km/h (3 Bft)
05.08.2017 14:53 24,9 °C 24,9 °C 67 % 1012,5 hPa 0,0 mm 7,5 km/h (2 Bft) W-NW 296 ° 1 min 0,000 mm 4,1 UV-I 432 W/m² 18,3 °C 24,9 °C 12,9 km/h (3 Bft)
05.08.2017 14:55 25,1 °C 25,1 °C 69 % 1012,5 hPa 0,0 mm 8,8 km/h (2 Bft) W-NW 292 ° 2 min 0,000 mm 4,1 UV-I 432 W/m² 19,0 °C 25,1 °C 20,9 km/h (4 Bft)
05.08.2017 14:56 25,1 °C 25,1 °C 68 % 1012,5 hPa 0,0 mm 11,1 km/h (2 Bft) W 275 ° 1 min 0,000 mm 5,0 UV-I 432 W/m² 18,8 °C 25,1 °C 16,1 km/h (3 Bft)
05.08.2017 14:57 25,2 °C 25,2 °C 69 % 1012,6 hPa 0,0 mm 12,7 km/h (3 Bft) S 189 ° 1 min 0,000 mm 3,7 UV-I 309 W/m² 19,1 °C 25,2 °C 17,7 km/h (3 Bft)
05.08.2017 14:58 25,2 °C 25,2 °C 68 % 1012,6 hPa 0,0 mm 6,4 km/h (2 Bft) SW 225 ° 1 min 0,000 mm 3,4 UV-I 294 W/m² 18,9 °C 25,2 °C 9,7 km/h (2 Bft)
05.08.2017 14:59 25,2 °C 25,2 °C 69 % 1012,6 hPa 0,0 mm 6,4 km/h (2 Bft) NW 315 ° 1 min 0,000 mm 3,5 UV-I 336 W/m² 19,1 °C 25,2 °C 11,3 km/h (2 Bft)
05.08.2017 15:01 25,1 °C 25,2 °C 67 % 1012,6 hPa 0,0 mm 9,2 km/h (2 Bft) W-NW 302 ° 0 min 0,254 mm 3,2 UV-I 253 W/m² 18,5 °C 25,1 °C 14,5 km/h (3 Bft)
05.08.2017 15:02 24,9 °C 25,1 °C 68 % 1012,6 hPa 0,0 mm 10,6 km/h (2 Bft) W 275 ° 0 min 0,000 mm 3,1 UV-I 260 W/m² 18,6 °C 24,9 °C 14,5 km/h (3 Bft)
05.08.2017 15:03 24,9 °C 24,9 °C 68 % 1012,6 hPa 0,0 mm 7,0 km/h (2 Bft) NW 324 ° 1 min 0,000 mm 3,2 UV-I 297 W/m² 18,6 °C 24,9 °C 12,9 km/h (3 Bft)
05.08.2017 15:04 24,9 °C 24,9 °C 69 % 1012,6 hPa 0,0 mm 8,7 km/h (2 Bft) NW 309 ° 1 min 0,000 mm 3,5 UV-I 334 W/m² 18,8 °C 24,9 °C 11,3 km/h (2 Bft)
05.08.2017 15:05 24,9 °C 24,9 °C 70 % 1012,5 hPa 0,0 mm 8,7 km/h (2 Bft) W-NW 300 ° 1 min 0,000 mm 3,8 UV-I 381 W/m² 19,0 °C 24,9 °C 14,5 km/h (3 Bft)
05.08.2017 15:06 24,9 °C 24,9 °C 70 % 1012,5 hPa 0,0 mm 4,7 km/h (1 Bft) W-NW 286 ° 1 min 0,000 mm 4,0 UV-I 441 W/m² 19,0 °C 24,9 °C 6,4 km/h (2 Bft)
05.08.2017 15:07 24,9 °C 24,9 °C 69 % 1012,6 hPa 0,0 mm 7,2 km/h (2 Bft) NW 304 ° 1 min 0,000 mm 3,7 UV-I 360 W/m² 18,8 °C 24,9 °C 12,9 km/h (3 Bft)
05.08.2017 15:08 25,0 °C 25,0 °C 69 % 1012,5 hPa 0,0 mm 10,7 km/h (2 Bft) N-NW 333 ° 1 min 0,000 mm 4,5 UV-I 422 W/m² 18,9 °C 25,0 °C 20,9 km/h (4 Bft)
05.08.2017 15:09 25,2 °C 25,2 °C 70 % 1012,5 hPa 0,0 mm 7,2 km/h (2 Bft) W-NW 292 ° 1 min 0,000 mm 6,8 UV-I 1000 W/m² 19,3 °C 25,2 °C 12,9 km/h (3 Bft)
05.08.2017 15:11 25,5 °C 25,5 °C 70 % 1012,5 hPa 0,0 mm 7,7 km/h (2 Bft) W-SW 254 ° 2 min 0,000 mm 6,5 UV-I 886 W/m² 19,6 °C 25,5 °C 16,1 km/h (3 Bft)
05.08.2017 15:12 25,6 °C 25,6 °C 68 % 1012,5 hPa 0,0 mm 10,7 km/h (2 Bft) W 265 ° 1 min 0,000 mm 6,5 UV-I 905 W/m² 19,2 °C 25,6 °C 16,1 km/h (3 Bft)
05.08.2017 15:13 25,7 °C 25,7 °C 68 % 1012,5 hPa 0,0 mm 12,6 km/h (3 Bft) W 260 ° 1 min 0,000 mm 6,2 UV-I 905 W/m² 19,3 °C 25,7 °C 16,1 km/h (3 Bft)
05.08.2017 15:14 25,6 °C 25,7 °C 66 % 1012,6 hPa 0,0 mm 7,5 km/h (2 Bft) W 269 ° 0 min 0,000 mm 3,7 UV-I 199 W/m² 18,8 °C 25,6 °C 12,9 km/h (3 Bft)
05.08.2017 15:15 25,5 °C 25,6 °C 66 % 1012,6 hPa 0,0 mm 11,8 km/h (2 Bft) W-NW 288 ° 0 min 0,000 mm 3,4 UV-I 257 W/m² 18,7 °C 25,5 °C 17,7 km/h (3 Bft)
05.08.2017 15:16 25,3 °C 25,5 °C 66 % 1012,6 hPa 0,0 mm 11,3 km/h (2 Bft) W 259 ° 1 min 0,000 mm 3,6 UV-I 313 W/m² 18,5 °C 25,3 °C 17,7 km/h (3 Bft)
05.08.2017 15:17 25,1 °C 25,3 °C 65 % 1012,6 hPa 0,0 mm 8,0 km/h (2 Bft) W 270 ° 1 min 0,000 mm 4,1 UV-I 362 W/m² 18,0 °C 25,1 °C 14,5 km/h (3 Bft)
05.08.2017 15:18 25,0 °C 25,1 °C 67 % 1012,6 hPa 0,0 mm 7,6 km/h (2 Bft) NW 306 ° 1 min 0,000 mm 5,6 UV-I 362 W/m² 18,4 °C 25,0 °C 11,3 km/h (2 Bft)
05.08.2017 15:19 25,0 °C 25,0 °C 68 % 1012,6 hPa 0,0 mm 7,2 km/h (2 Bft) W-NW 298 ° 1 min 0,000 mm 4,6 UV-I 608 W/m² 18,7 °C 25,0 °C 12,9 km/h (3 Bft)
05.08.2017 15:20 25,1 °C 25,1 °C 67 % 1012,7 hPa 0,0 mm 5,4 km/h (1 Bft) W 276 ° 1 min 0,000 mm 4,7 UV-I 483 W/m² 18,5 °C 25,1 °C 11,3 km/h (2 Bft)
05.08.2017 15:21 25,1 °C 25,1 °C 67 % 1012,6 hPa 0,0 mm 6,0 km/h (2 Bft) W-NW 296 ° 1 min 0,000 mm 5,0 UV-I 478 W/m² 18,5 °C 25,1 °C 11,3 km/h (2 Bft)
05.08.2017 15:22 25,2 °C 25,2 °C 67 % 1012,7 hPa 0,0 mm 9,7 km/h (2 Bft) NW 325 ° 1 min 0,000 mm 6,0 UV-I 478 W/m² 18,6 °C 25,2 °C 16,1 km/h (3 Bft)
05.08.2017 15:23 25,3 °C 25,3 °C 67 % 1012,7 hPa 0,0 mm 11,0 km/h (2 Bft) N-NW 328 ° 1 min 0,000 mm 6,3 UV-I 478 W/m² 18,7 °C 25,3 °C 19,3 km/h (3 Bft)
05.08.2017 15:25 25,6 °C 25,6 °C 65 % 1012,7 hPa 0,0 mm 9,9 km/h (2 Bft) W-NW 286 ° 2 min 0,000 mm 6,1 UV-I 800 W/m² 18,5 °C 25,6 °C 19,3 km/h (3 Bft)
05.08.2017 15:26 25,6 °C 25,6 °C 65 % 1012,7 hPa 0,0 mm 8,5 km/h (2 Bft) W-SW 245 ° 1 min 0,000 mm 5,9 UV-I 744 W/m² 18,5 °C 25,6 °C 14,5 km/h (3 Bft)
05.08.2017 15:27 25,5 °C 25,6 °C 65 % 1012,7 hPa 0,0 mm 11,4 km/h (2 Bft) W 277 ° 1 min 0,000 mm 5,7 UV-I 744 W/m² 18,4 °C 25,5 °C 17,7 km/h (3 Bft)
05.08.2017 15:28 25,5 °C 25,6 °C 65 % 1012,7 hPa 0,0 mm 12,8 km/h (3 Bft) NW 315 ° 1 min 0,000 mm 5,4 UV-I 744 W/m² 18,4 °C 25,5 °C 19,3 km/h (3 Bft)
05.08.2017 15:29 25,5 °C 25,5 °C 66 % 1012,7 hPa 0,0 mm 12,4 km/h (3 Bft) W 274 ° 1 min 0,000 mm 5,8 UV-I 798 W/m² 18,7 °C 25,5 °C 17,7 km/h (3 Bft)
05.08.2017 15:30 25,5 °C 25,5 °C 66 % 1012,7 hPa 0,0 mm 10,8 km/h (2 Bft) W 265 ° 1 min 0,000 mm 4,0 UV-I 798 W/m² 18,7 °C 25,5 °C 14,5 km/h (3 Bft)
05.08.2017 15:31 25,5 °C 25,5 °C 65 % 1012,7 hPa 0,0 mm 9,3 km/h (2 Bft) NW 309 ° 1 min 0,000 mm 5,6 UV-I 798 W/m² 18,4 °C 25,5 °C 12,9 km/h (3 Bft)
05.08.2017 15:32 25,6 °C 25,6 °C 67 % 1012,6 hPa 0,0 mm 8,6 km/h (2 Bft) NW 317 ° 1 min 0,000 mm 3,8 UV-I 798 W/m² 19,0 °C 25,6 °C 14,5 km/h (3 Bft)
05.08.2017 15:33 25,5 °C 25,6 °C 66 % 1012,7 hPa 0,0 mm 10,7 km/h (2 Bft) NW 322 ° 0 min 0,000 mm 3,4 UV-I 146 W/m² 18,7 °C 25,5 °C 17,7 km/h (3 Bft)
05.08.2017 15:34 25,4 °C 25,5 °C 66 % 1012,7 hPa 0,0 mm 5,0 km/h (1 Bft) NW 315 ° 0 min 0,000 mm 4,0 UV-I 146 W/m² 18,6 °C 25,4 °C 9,7 km/h (2 Bft)
05.08.2017 15:35 25,4 °C 25,4 °C 68 % 1012,7 hPa 0,0 mm 5,6 km/h (1 Bft) W 266 ° 1 min 0,000 mm 3,7 UV-I 403 W/m² 19,1 °C 25,4 °C 11,3 km/h (2 Bft)
05.08.2017 15:36 25,3 °C 25,4 °C 67 % 1012,7 hPa 0,0 mm 10,1 km/h (2 Bft) W-SW 247 ° 1 min 0,000 mm 3,4 UV-I 403 W/m² 18,7 °C 25,3 °C 14,5 km/h (3 Bft)
05.08.2017 15:37 25,2 °C 25,3 °C 66 % 1012,7 hPa 0,0 mm 7,9 km/h (2 Bft) NW 306 ° 1 min 0,000 mm 3,8 UV-I 403 W/m² 18,4 °C 25,2 °C 12,9 km/h (3 Bft)
05.08.2017 15:38 25,2 °C 25,2 °C 65 % 1012,7 hPa 0,0 mm 14,7 km/h (3 Bft) W-SW 252 ° 1 min 0,000 mm 3,3 UV-I 348 W/m² 18,1 °C 25,2 °C 19,3 km/h (3 Bft)
05.08.2017 15:39 25,2 °C 25,2 °C 66 % 1012,6 hPa 0,0 mm 10,7 km/h (2 Bft) W 265 ° 0 min 0,000 mm 2,6 UV-I 193 W/m² 18,4 °C 25,2 °C 17,7 km/h (3 Bft)
05.08.2017 15:40 25,1 °C 25,2 °C 66 % 1012,7 hPa 0,0 mm 12,9 km/h (3 Bft) W 259 ° 0 min 0,000 mm 2,3 UV-I 176 W/m² 18,3 °C 25,1 °C 22,5 km/h (4 Bft)
05.08.2017 15:41 24,9 °C 25,1 °C 65 % 1012,7 hPa 0,0 mm 15,6 km/h (3 Bft) W-NW 290 ° 0 min 0,000 mm 2,3 UV-I 179 W/m² 17,9 °C 24,9 °C 20,9 km/h (4 Bft)
05.08.2017 15:42 24,8 °C 24,9 °C 66 % 1012,6 hPa 0,0 mm 10,6 km/h (2 Bft) NW 306 ° 0 min 0,000 mm 2,5 UV-I 253 W/m² 18,0 °C 24,8 °C 14,5 km/h (3 Bft)
05.08.2017 15:43 24,7 °C 24,8 °C 66 % 1012,7 hPa 0,0 mm 6,9 km/h (2 Bft) W 263 ° 0 min 0,000 mm 2,5 UV-I 227 W/m² 17,9 °C 24,7 °C 11,3 km/h (2 Bft)
05.08.2017 15:44 24,7 °C 24,7 °C 68 % 1012,7 hPa 0,0 mm 8,2 km/h (2 Bft) W 268 ° 0 min 0,000 mm 2,8 UV-I 255 W/m² 18,4 °C 24,7 °C 12,9 km/h (3 Bft)
05.08.2017 15:45 24,6 °C 24,7 °C 68 % 1012,7 hPa 0,0 mm 11,4 km/h (2 Bft) W-NW 282 ° 0 min 0,000 mm 3,1 UV-I 255 W/m² 18,3 °C 24,6 °C 16,1 km/h (3 Bft)
05.08.2017 15:46 24,7 °C 24,7 °C 67 % 1012,7 hPa 0,0 mm 9,0 km/h (2 Bft) W-NW 297 ° 0 min 0,000 mm 3,1 UV-I 255 W/m² 18,1 °C 24,7 °C 16,1 km/h (3 Bft)
05.08.2017 15:47 24,7 °C 24,7 °C 66 % 1012,7 hPa 0,0 mm 9,9 km/h (2 Bft) W 281 ° 0 min 0,000 mm 2,8 UV-I 255 W/m² 17,9 °C 24,7 °C 17,7 km/h (3 Bft)
05.08.2017 15:48 24,8 °C 24,8 °C 67 % 1012,7 hPa 0,0 mm 10,6 km/h (2 Bft) W 263 ° 0 min 0,000 mm 2,9 UV-I 264 W/m² 18,2 °C 24,8 °C 12,9 km/h (3 Bft)
05.08.2017 15:49 24,8 °C 24,8 °C 69 % 1012,7 hPa 0,0 mm 9,7 km/h (2 Bft) W 270 ° 0 min 0,000 mm 4,9 UV-I 264 W/m² 18,7 °C 24,8 °C 12,9 km/h (3 Bft)
05.08.2017 15:50 24,8 °C 24,8 °C 68 % 1012,7 hPa 0,0 mm 5,5 km/h (1 Bft) NW 315 ° 0 min 0,000 mm 3,1 UV-I 264 W/m² 18,5 °C 24,8 °C 8,0 km/h (2 Bft)
05.08.2017 15:51 24,8 °C 24,8 °C 68 % 1012,7 hPa 0,0 mm 8,2 km/h (2 Bft) W-SW 247 ° 0 min 0,000 mm 4,3 UV-I 264 W/m² 18,5 °C 24,8 °C 14,5 km/h (3 Bft)
05.08.2017 15:52 24,8 °C 24,8 °C 68 % 1012,7 hPa 0,0 mm 5,0 km/h (1 Bft) W-SW 239 ° 0 min 0,000 mm 5,2 UV-I 264 W/m² 18,5 °C 24,8 °C 8,0 km/h (2 Bft)
05.08.2017 15:54 25,2 °C 25,2 °C 67 % 1012,7 hPa 0,0 mm 9,1 km/h (2 Bft) W-SW 251 ° 2 min 0,000 mm 5,8 UV-I 844 W/m² 18,6 °C 25,2 °C 14,5 km/h (3 Bft)
05.08.2017 15:55 25,3 °C 25,3 °C 67 % 1012,7 hPa 0,0 mm 8,5 km/h (2 Bft) W-NW 286 ° 1 min 0,000 mm 5,6 UV-I 844 W/m² 18,7 °C 25,3 °C 12,9 km/h (3 Bft)
05.08.2017 15:56 25,3 °C 25,3 °C 68 % 1012,6 hPa 0,0 mm 12,0 km/h (2 Bft) W 263 ° 1 min 0,000 mm 5,4 UV-I 791 W/m² 19,0 °C 25,3 °C 16,1 km/h (3 Bft)
05.08.2017 15:57 25,4 °C 25,4 °C 68 % 1012,7 hPa 0,0 mm 5,7 km/h (1 Bft) W-NW 300 ° 1 min 0,000 mm 5,4 UV-I 788 W/m² 19,1 °C 25,4 °C 12,9 km/h (3 Bft)
05.08.2017 15:58 25,4 °C 25,4 °C 67 % 1012,6 hPa 0,0 mm 2,9 km/h (1 Bft) NW 326 ° 1 min 0,000 mm 5,3 UV-I 777 W/m² 18,8 °C 25,4 °C 4,8 km/h (1 Bft)
05.08.2017 15:59 25,6 °C 25,6 °C 66 % 1012,6 hPa 0,0 mm 6,7 km/h (2 Bft) SW 225 ° 1 min 0,000 mm 4,1 UV-I 777 W/m² 18,8 °C 25,6 °C 12,9 km/h (3 Bft)
05.08.2017 16:00 25,5 °C 25,6 °C 64 % 1012,7 hPa 0,0 mm 3,4 km/h (1 Bft) W 263 ° 1 min 0,000 mm 4,7 UV-I 371 W/m² 18,2 °C 25,5 °C 6,4 km/h (2 Bft)
05.08.2017 16:01 25,5 °C 25,6 °C 66 % 1012,7 hPa 0,0 mm 8,6 km/h (2 Bft) N-NW 337 ° 1 min 0,355 mm 4,7 UV-I 686 W/m² 18,7 °C 25,5 °C 12,9 km/h (3 Bft)
05.08.2017 16:02 25,6 °C 25,6 °C 67 % 1012,7 hPa 0,0 mm 4,7 km/h (1 Bft) W 278 ° 1 min 0,000 mm 5,1 UV-I 758 W/m² 19,0 °C 25,6 °C 9,7 km/h (2 Bft)
05.08.2017 16:03 25,6 °C 25,6 °C 67 % 1012,7 hPa 0,0 mm 12,6 km/h (3 Bft) W-SW 247 ° 1 min 0,000 mm 5,1 UV-I 761 W/m² 19,0 °C 25,6 °C 17,7 km/h (3 Bft)
05.08.2017 16:04 25,6 °C 25,6 °C 66 % 1012,7 hPa 0,0 mm 4,2 km/h (1 Bft) SW 232 ° 1 min 0,000 mm 5,0 UV-I 772 W/m² 18,8 °C 25,6 °C 4,8 km/h (1 Bft)
05.08.2017 16:05 25,6 °C 25,6 °C 63 % 1012,7 hPa 0,0 mm 2,0 km/h (1 Bft) W 260 ° 1 min 0,000 mm 3,8 UV-I 772 W/m² 18,0 °C 25,6 °C 3,2 km/h (1 Bft)
05.08.2017 16:06 25,5 °C 25,6 °C 64 % 1012,7 hPa 0,0 mm 6,4 km/h (2 Bft) NW 323 ° 1 min 0,000 mm 2,6 UV-I 772 W/m² 18,2 °C 25,5 °C 16,1 km/h (3 Bft)
05.08.2017 16:07 25,5 °C 25,6 °C 67 % 1012,7 hPa 0,0 mm 10,6 km/h (2 Bft) W 280 ° 0 min 0,000 mm 2,6 UV-I 214 W/m² 18,9 °C 25,5 °C 14,5 km/h (3 Bft)
05.08.2017 16:08 25,5 °C 25,5 °C 66 % 1012,7 hPa 0,0 mm 9,1 km/h (2 Bft) N-NW 329 ° 0 min 0,000 mm 3,4 UV-I 214 W/m² 18,7 °C 25,5 °C 12,9 km/h (3 Bft)
05.08.2017 16:09 25,4 °C 25,5 °C 67 % 1012,7 hPa 0,0 mm 7,4 km/h (2 Bft) NW 322 ° 1 min 0,000 mm 2,5 UV-I 468 W/m² 18,8 °C 25,4 °C 14,5 km/h (3 Bft)
05.08.2017 16:10 25,3 °C 25,4 °C 66 % 1012,7 hPa 0,0 mm 3,8 km/h (1 Bft) W-NW 290 ° 1 min 0,000 mm 3,7 UV-I 468 W/m² 18,5 °C 25,3 °C 8,0 km/h (2 Bft)
05.08.2017 16:11 25,3 °C 25,3 °C 67 % 1012,8 hPa 0,0 mm 8,4 km/h (2 Bft) NW 305 ° 1 min 0,000 mm 3,9 UV-I 468 W/m² 18,7 °C 25,3 °C 17,7 km/h (3 Bft)
05.08.2017 16:12 25,3 °C 25,3 °C 67 % 1012,8 hPa 0,0 mm 13,2 km/h (3 Bft) W-NW 303 ° 0 min 0,000 mm 2,4 UV-I 250 W/m² 18,7 °C 25,3 °C 14,5 km/h (3 Bft)
05.08.2017 16:13 25,2 °C 25,3 °C 66 % 1012,8 hPa 0,0 mm 9,7 km/h (2 Bft) N-NW 330 ° 0 min 0,000 mm 2,3 UV-I 206 W/m² 18,4 °C 25,2 °C 16,1 km/h (3 Bft)
05.08.2017 16:14 25,0 °C 25,2 °C 67 % 1012,9 hPa 0,0 mm 10,0 km/h (2 Bft) NW 315 ° 0 min 0,000 mm 2,5 UV-I 241 W/m² 18,4 °C 25,0 °C 14,5 km/h (3 Bft)
05.08.2017 16:15 24,8 °C 25,0 °C 67 % 1012,8 hPa 0,0 mm 10,1 km/h (2 Bft) W-NW 297 ° 0 min 0,000 mm 2,7 UV-I 234 W/m² 18,2 °C 24,8 °C 17,7 km/h (3 Bft)
05.08.2017 16:16 24,7 °C 24,8 °C 67 % 1012,8 hPa 0,0 mm 8,3 km/h (2 Bft) W 280 ° 0 min 0,000 mm 2,7 UV-I 225 W/m² 18,1 °C 24,7 °C 16,1 km/h (3 Bft)
05.08.2017 16:17 24,6 °C 24,7 °C 67 % 1012,8 hPa 0,0 mm 8,0 km/h (2 Bft) NW 325 ° 0 min 0,000 mm 2,7 UV-I 213 W/m² 18,1 °C 24,6 °C 16,1 km/h (3 Bft)
05.08.2017 16:18 24,5 °C 24,6 °C 67 % 1012,8 hPa 0,0 mm 3,8 km/h (1 Bft) W-NW 288 ° 0 min 0,000 mm 2,7 UV-I 209 W/m² 18,0 °C 24,5 °C 6,4 km/h (2 Bft)
05.08.2017 16:19 24,4 °C 24,5 °C 68 % 1012,8 hPa 0,0 mm 13,7 km/h (3 Bft) W-NW 296 ° 0 min 0,000 mm 2,8 UV-I 221 W/m² 18,1 °C 24,4 °C 17,7 km/h (3 Bft)
05.08.2017 16:20 24,3 °C 24,4 °C 68 % 1012,8 hPa 0,0 mm 9,0 km/h (2 Bft) NW 305 ° 0 min 0,000 mm 2,7 UV-I 172 W/m² 18,0 °C 24,3 °C 12,9 km/h (3 Bft)
05.08.2017 16:21 24,3 °C 24,3 °C 70 % 1012,7 hPa 0,0 mm 9,6 km/h (2 Bft) NW 313 ° 0 min 0,000 mm 2,7 UV-I 160 W/m² 18,5 °C 24,3 °C 16,1 km/h (3 Bft)
05.08.2017 16:22 24,4 °C 24,4 °C 69 % 1012,7 hPa 0,0 mm 10,9 km/h (2 Bft) W 265 ° 0 min 0,000 mm 2,6 UV-I 146 W/m² 18,3 °C 24,4 °C 14,5 km/h (3 Bft)
05.08.2017 16:23 24,4 °C 24,4 °C 70 % 1012,8 hPa 0,0 mm 9,6 km/h (2 Bft) NW 315 ° 0 min 0,000 mm 2,6 UV-I 141 W/m² 18,6 °C 24,4 °C 14,5 km/h (3 Bft)
05.08.2017 16:24 24,5 °C 24,5 °C 69 % 1012,8 hPa 0,0 mm 9,8 km/h (2 Bft) W-NW 286 ° 0 min 0,000 mm 2,6 UV-I 125 W/m² 18,4 °C 24,5 °C 12,9 km/h (3 Bft)
05.08.2017 16:25 24,5 °C 24,5 °C 68 % 1012,7 hPa 0,0 mm 6,4 km/h (2 Bft) W-NW 301 ° 0 min 0,000 mm 2,6 UV-I 114 W/m² 18,2 °C 24,5 °C 11,3 km/h (2 Bft)
05.08.2017 16:26 24,6 °C 24,6 °C 69 % 1012,8 hPa 0,0 mm 8,0 km/h (2 Bft) NW 322 ° 0 min 0,000 mm 2,5 UV-I 107 W/m² 18,5 °C 24,6 °C 12,9 km/h (3 Bft)
05.08.2017 16:27 24,6 °C 24,6 °C 70 % 1012,8 hPa 0,0 mm 9,9 km/h (2 Bft) NW 305 ° 0 min 0,000 mm 2,4 UV-I 97 W/m² 18,8 °C 24,6 °C 14,5 km/h (3 Bft)
05.08.2017 16:28 24,6 °C 24,6 °C 69 % 1012,8 hPa 0,0 mm 4,6 km/h (1 Bft) N-NW 329 ° 0 min 0,000 mm 2,4 UV-I 93 W/m² 18,5 °C 24,6 °C 14,5 km/h (3 Bft)
05.08.2017 16:29 24,7 °C 24,7 °C 70 % 1012,7 hPa 0,0 mm 8,7 km/h (2 Bft) W-NW 290 ° 0 min 0,000 mm 2,4 UV-I 93 W/m² 18,8 °C 24,7 °C 14,5 km/h (3 Bft)
05.08.2017 16:30 24,7 °C 24,7 °C 68 % 1012,7 hPa 0,0 mm 7,4 km/h (2 Bft) W 271 ° 0 min 0,000 mm 2,5 UV-I 113 W/m² 18,4 °C 24,7 °C 12,9 km/h (3 Bft)
05.08.2017 16:31 24,7 °C 24,7 °C 70 % 1012,8 hPa 0,0 mm 8,7 km/h (2 Bft) W 275 ° 0 min 0,000 mm 2,5 UV-I 121 W/m² 18,8 °C 24,7 °C 14,5 km/h (3 Bft)
05.08.2017 16:32 24,7 °C 24,7 °C 68 % 1012,8 hPa 0,0 mm 6,8 km/h (2 Bft) NW 315 ° 0 min 0,000 mm 2,4 UV-I 114 W/m² 18,4 °C 24,7 °C 12,9 km/h (3 Bft)
05.08.2017 16:33 24,7 °C 24,7 °C 69 % 1012,7 hPa 0,0 mm 8,5 km/h (2 Bft) NW 304 ° 0 min 0,000 mm 2,4 UV-I 123 W/m² 18,6 °C 24,7 °C 14,5 km/h (3 Bft)
05.08.2017 16:34 24,7 °C 24,7 °C 68 % 1012,7 hPa 0,0 mm 12,4 km/h (3 Bft) W-NW 284 ° 0 min 0,000 mm 2,4 UV-I 120 W/m² 18,4 °C 24,7 °C 20,9 km/h (4 Bft)
05.08.2017 16:35 24,7 °C 24,7 °C 69 % 1012,7 hPa 0,0 mm 7,1 km/h (2 Bft) W-NW 298 ° 0 min 0,000 mm 2,4 UV-I 123 W/m² 18,6 °C 24,7 °C 11,3 km/h (2 Bft)
05.08.2017 16:36 24,6 °C 24,7 °C 69 % 1012,8 hPa 0,0 mm 6,3 km/h (2 Bft) W-NW 298 ° 0 min 0,000 mm 2,4 UV-I 137 W/m² 18,5 °C 24,6 °C 8,0 km/h (2 Bft)
05.08.2017 16:37 24,7 °C 24,7 °C 69 % 1012,8 hPa 0,0 mm 8,0 km/h (2 Bft) N-NW 338 ° 0 min 0,000 mm 2,4 UV-I 139 W/m² 18,6 °C 24,7 °C 12,9 km/h (3 Bft)
05.08.2017 16:38 24,7 °C 24,7 °C 72 % 1012,7 hPa 0,0 mm 6,3 km/h (2 Bft) NW 323 ° 0 min 0,000 mm 2,5 UV-I 146 W/m² 19,3 °C 24,7 °C 9,7 km/h (2 Bft)
05.08.2017 16:39 24,8 °C 24,8 °C 71 % 1012,7 hPa 0,0 mm 11,1 km/h (2 Bft) W-NW 283 ° 0 min 0,000 mm 2,5 UV-I 158 W/m² 19,2 °C 24,8 °C 16,1 km/h (3 Bft)
05.08.2017 16:40 24,8 °C 24,8 °C 68 % 1012,7 hPa 0,0 mm 9,3 km/h (2 Bft) W-SW 246 ° 0 min 0,000 mm 2,5 UV-I 167 W/m² 18,5 °C 24,8 °C 12,9 km/h (3 Bft)
05.08.2017 16:41 24,8 °C 24,8 °C 69 % 1012,8 hPa 0,0 mm 11,5 km/h (2 Bft) W 265 ° 0 min 0,000 mm 2,4 UV-I 149 W/m² 18,7 °C 24,8 °C 17,7 km/h (3 Bft)
05.08.2017 16:42 24,7 °C 24,8 °C 67 % 1012,8 hPa 0,0 mm 15,2 km/h (3 Bft) W-NW 299 ° 0 min 0,000 mm 2,3 UV-I 139 W/m² 18,1 °C 24,7 °C 19,3 km/h (3 Bft)
05.08.2017 16:43 24,5 °C 24,7 °C 68 % 1012,8 hPa 0,0 mm 8,4 km/h (2 Bft) W-NW 294 ° 0 min 0,000 mm 2,2 UV-I 116 W/m² 18,2 °C 24,5 °C 16,1 km/h (3 Bft)
05.08.2017 16:44 24,4 °C 24,5 °C 67 % 1012,8 hPa 0,0 mm 9,0 km/h (2 Bft) W-NW 296 ° 0 min 0,000 mm 2,2 UV-I 104 W/m² 17,9 °C 24,4 °C 14,5 km/h (3 Bft)
05.08.2017 16:45 24,3 °C 24,4 °C 68 % 1012,8 hPa 0,0 mm 6,6 km/h (2 Bft) W-NW 294 ° 0 min 0,000 mm 2,1 UV-I 107 W/m² 18,0 °C 24,3 °C 16,1 km/h (3 Bft)
05.08.2017 16:46 24,2 °C 24,3 °C 69 % 1012,8 hPa 0,0 mm 9,0 km/h (2 Bft) NW 309 ° 0 min 0,000 mm 2,2 UV-I 118 W/m² 18,1 °C 24,2 °C 14,5 km/h (3 Bft)
05.08.2017 16:47 24,1 °C 24,2 °C 69 % 1012,7 hPa 0,0 mm 4,8 km/h (1 Bft) W-NW 297 ° 0 min 0,000 mm 2,1 UV-I 120 W/m² 18,0 °C 24,1 °C 6,4 km/h (2 Bft)
05.08.2017 16:48 24,0 °C 24,1 °C 71 % 1012,8 hPa 0,0 mm 6,2 km/h (2 Bft) NW 323 ° 0 min 0,000 mm 2,2 UV-I 149 W/m² 18,4 °C 24,0 °C 9,7 km/h (2 Bft)
05.08.2017 16:49 24,0 °C 24,0 °C 70 % 1012,8 hPa 0,0 mm 6,5 km/h (2 Bft) NW 307 ° 0 min 0,000 mm 2,3 UV-I 148 W/m² 18,2 °C 24,0 °C 12,9 km/h (3 Bft)
05.08.2017 16:50 24,1 °C 24,1 °C 70 % 1012,8 hPa 0,0 mm 6,4 km/h (2 Bft) W 278 ° 0 min 0,000 mm 2,3 UV-I 127 W/m² 18,3 °C 24,1 °C 12,9 km/h (3 Bft)
05.08.2017 16:51 24,1 °C 24,1 °C 70 % 1012,7 hPa 0,0 mm 7,6 km/h (2 Bft) W 270 ° 0 min 0,000 mm 2,2 UV-I 111 W/m² 18,3 °C 24,1 °C 9,7 km/h (2 Bft)
05.08.2017 16:52 24,2 °C 24,2 °C 72 % 1012,7 hPa 0,0 mm 9,0 km/h (2 Bft) NW 319 ° 0 min 0,000 mm 2,2 UV-I 100 W/m² 18,8 °C 24,2 °C 16,1 km/h (3 Bft)
05.08.2017 16:53 24,3 °C 24,3 °C 70 % 1012,7 hPa 0,0 mm 10,1 km/h (2 Bft) W 277 ° 0 min 0,000 mm 2,2 UV-I 98 W/m² 18,5 °C 24,3 °C 14,5 km/h (3 Bft)
05.08.2017 16:54 24,3 °C 24,3 °C 69 % 1012,7 hPa 0,0 mm 8,1 km/h (2 Bft) W-NW 302 ° 0 min 0,000 mm 2,1 UV-I 104 W/m² 18,2 °C 24,3 °C 12,9 km/h (3 Bft)
05.08.2017 16:55 24,3 °C 24,3 °C 70 % 1012,7 hPa 0,0 mm 8,9 km/h (2 Bft) NW 307 ° 0 min 0,000 mm 2,2 UV-I 111 W/m² 18,5 °C 24,3 °C 12,9 km/h (3 Bft)
05.08.2017 16:56 24,3 °C 24,3 °C 70 % 1012,5 hPa 0,0 mm 6,8 km/h (2 Bft) NW 321 ° 0 min 0,000 mm 2,2 UV-I 102 W/m² 18,5 °C 24,3 °C 9,7 km/h (2 Bft)
05.08.2017 16:57 24,3 °C 24,3 °C 72 % 1012,6 hPa 0,0 mm 6,3 km/h (2 Bft) NW 319 ° 0 min 0,000 mm 2,1 UV-I 93 W/m² 18,9 °C 24,3 °C 11,3 km/h (2 Bft)
05.08.2017 16:58 24,4 °C 24,4 °C 70 % 1012,6 hPa 0,0 mm 7,4 km/h (2 Bft) W-NW 299 ° 0 min 0,000 mm 2,1 UV-I 88 W/m² 18,6 °C 24,4 °C 11,3 km/h (2 Bft)
05.08.2017 16:59 24,4 °C 24,4 °C 71 % 1012,6 hPa 0,0 mm 8,9 km/h (2 Bft) W-NW 296 ° 0 min 0,000 mm 2,1 UV-I 88 W/m² 18,8 °C 24,4 °C 12,9 km/h (3 Bft)
05.08.2017 17:00 24,5 °C 24,5 °C 69 % 1012,6 hPa 0,0 mm 8,9 km/h (2 Bft) NW 313 ° 0 min 0,000 mm 2,1 UV-I 97 W/m² 18,4 °C 24,5 °C 14,5 km/h (3 Bft)
05.08.2017 17:01 24,6 °C 24,6 °C 72 % 1012,6 hPa 0,0 mm 7,6 km/h (2 Bft) NW 324 ° 0 min 0,178 mm 2,1 UV-I 104 W/m² 19,2 °C 24,6 °C 9,7 km/h (2 Bft)
05.08.2017 17:02 24,6 °C 24,6 °C 72 % 1012,5 hPa 0,0 mm 4,6 km/h (1 Bft) W-NW 291 ° 0 min 0,000 mm 2,1 UV-I 116 W/m² 19,2 °C 24,6 °C 6,4 km/h (2 Bft)
05.08.2017 17:03 24,7 °C 24,7 °C 70 % 1012,6 hPa 0,0 mm 4,2 km/h (1 Bft) W 271 ° 0 min 0,000 mm 2,2 UV-I 139 W/m² 18,8 °C 24,7 °C 6,4 km/h (2 Bft)
05.08.2017 17:04 24,7 °C 24,7 °C 70 % 1012,6 hPa 0,0 mm 4,4 km/h (1 Bft) NW 317 ° 0 min 0,000 mm 2,2 UV-I 165 W/m² 18,8 °C 24,7 °C 8,0 km/h (2 Bft)
05.08.2017 17:05 24,7 °C 24,7 °C 70 % 1012,5 hPa 0,0 mm 5,6 km/h (1 Bft) N-NW 338 ° 0 min 0,000 mm 2,1 UV-I 165 W/m² 18,8 °C 24,7 °C 9,7 km/h (2 Bft)
05.08.2017 17:06 24,6 °C 24,7 °C 72 % 1012,5 hPa 0,0 mm 7,0 km/h (2 Bft) W-NW 286 ° 0 min 0,000 mm 2,0 UV-I 165 W/m² 19,2 °C 24,6 °C 11,3 km/h (2 Bft)
05.08.2017 17:07 24,6 °C 24,6 °C 70 % 1012,6 hPa 0,0 mm 11,3 km/h (2 Bft) NW 317 ° 0 min 0,000 mm 1,9 UV-I 162 W/m² 18,8 °C 24,6 °C 14,5 km/h (3 Bft)
05.08.2017 17:08 24,4 °C 24,6 °C 69 % 1012,6 hPa 0,0 mm 6,2 km/h (2 Bft) NW 320 ° 0 min 0,000 mm 1,8 UV-I 162 W/m² 18,3 °C 24,4 °C 8,0 km/h (2 Bft)
05.08.2017 17:09 24,3 °C 24,4 °C 70 % 1012,5 hPa 0,0 mm 6,8 km/h (2 Bft) N-NW 328 ° 0 min 0,000 mm 1,8 UV-I 146 W/m² 18,5 °C 24,3 °C 12,9 km/h (3 Bft)
05.08.2017 17:10 24,2 °C 24,3 °C 69 % 1012,5 hPa 0,0 mm 12,6 km/h (3 Bft) NW 307 ° 0 min 0,000 mm 1,8 UV-I 148 W/m² 18,1 °C 24,2 °C 17,7 km/h (3 Bft)
05.08.2017 17:11 24,2 °C 24,2 °C 69 % 1012,5 hPa 0,0 mm 9,7 km/h (2 Bft) NW 308 ° 0 min 0,000 mm 1,8 UV-I 185 W/m² 18,1 °C 24,2 °C 14,5 km/h (3 Bft)
05.08.2017 17:12 24,1 °C 24,2 °C 70 % 1012,5 hPa 0,0 mm 7,4 km/h (2 Bft) W-NW 288 ° 0 min 0,000 mm 1,7 UV-I 183 W/m² 18,3 °C 24,1 °C 9,7 km/h (2 Bft)
05.08.2017 17:13 24,0 °C 24,1 °C 71 % 1012,5 hPa 0,0 mm 6,6 km/h (2 Bft) W-NW 291 ° 0 min 0,000 mm 1,6 UV-I 163 W/m² 18,4 °C 24,0 °C 11,3 km/h (2 Bft)
05.08.2017 17:14 24,0 °C 24,0 °C 70 % 1012,5 hPa 0,0 mm 5,9 km/h (2 Bft) W-NW 288 ° 0 min 0,000 mm 1,4 UV-I 149 W/m² 18,2 °C 24,0 °C 8,0 km/h (2 Bft)
05.08.2017 17:15 23,9 °C 24,0 °C 72 % 1012,5 hPa 0,0 mm 4,8 km/h (1 Bft) W 267 ° 0 min 0,000 mm 1,4 UV-I 149 W/m² 18,5 °C 23,9 °C 6,4 km/h (2 Bft)
05.08.2017 17:16 23,9 °C 23,9 °C 72 % 1012,5 hPa 0,0 mm 7,1 km/h (2 Bft) NW 325 ° 0 min 0,000 mm 1,4 UV-I 172 W/m² 18,5 °C 23,9 °C 12,9 km/h (3 Bft)
05.08.2017 17:17 23,9 °C 23,9 °C 71 % 1012,5 hPa 0,0 mm 8,0 km/h (2 Bft) W-NW 299 ° 0 min 0,000 mm 1,5 UV-I 190 W/m² 18,3 °C 23,9 °C 12,9 km/h (3 Bft)
05.08.2017 17:18 23,9 °C 23,9 °C 73 % 1012,5 hPa 0,0 mm 8,3 km/h (2 Bft) W 273 ° 0 min 0,000 mm 1,6 UV-I 183 W/m² 18,8 °C 23,9 °C 12,9 km/h (3 Bft)
05.08.2017 17:19 23,9 °C 23,9 °C 71 % 1012,5 hPa 0,0 mm 12,5 km/h (3 Bft) NW 313 ° 0 min 0,000 mm 1,6 UV-I 178 W/m² 18,3 °C 23,9 °C 16,1 km/h (3 Bft)
05.08.2017 17:20 23,9 °C 23,9 °C 71 % 1012,5 hPa 0,0 mm 6,4 km/h (2 Bft) W-NW 297 ° 0 min 0,000 mm 1,6 UV-I 179 W/m² 18,3 °C 23,9 °C 8,0 km/h (2 Bft)
05.08.2017 17:21 23,9 °C 23,9 °C 71 % 1012,5 hPa 0,0 mm 6,6 km/h (2 Bft) N-NW 327 ° 0 min 0,000 mm 1,7 UV-I 195 W/m² 18,3 °C 23,9 °C 12,9 km/h (3 Bft)
05.08.2017 17:22 23,9 °C 23,9 °C 71 % 1012,6 hPa 0,0 mm 8,9 km/h (2 Bft) N-NW 328 ° 0 min 0,000 mm 1,7 UV-I 200 W/m² 18,3 °C 23,9 °C 16,1 km/h (3 Bft)
05.08.2017 17:23 23,9 °C 23,9 °C 72 % 1012,6 hPa 0,0 mm 8,7 km/h (2 Bft) W 262 ° 0 min 0,000 mm 1,6 UV-I 172 W/m² 18,5 °C 23,9 °C 14,5 km/h (3 Bft)
05.08.2017 17:24 23,9 °C 23,9 °C 69 % 1012,6 hPa 0,0 mm 9,8 km/h (2 Bft) NW 309 ° 0 min 0,000 mm 1,6 UV-I 172 W/m² 17,9 °C 23,9 °C 14,5 km/h (3 Bft)
05.08.2017 17:25 23,9 °C 23,9 °C 70 % 1012,5 hPa 0,0 mm 6,6 km/h (2 Bft) W-NW 302 ° 0 min 0,000 mm 1,6 UV-I 171 W/m² 18,1 °C 23,9 °C 11,3 km/h (2 Bft)
05.08.2017 17:26 23,8 °C 23,9 °C 69 % 1012,6 hPa 0,0 mm 8,4 km/h (2 Bft) W 273 ° 0 min 0,000 mm 1,5 UV-I 172 W/m² 17,8 °C 23,8 °C 12,9 km/h (3 Bft)
05.08.2017 17:27 23,9 °C 23,9 °C 70 % 1012,5 hPa 0,0 mm 8,2 km/h (2 Bft) NW 317 ° 0 min 0,000 mm 1,5 UV-I 172 W/m² 18,1 °C 23,9 °C 11,3 km/h (2 Bft)
05.08.2017 17:28 23,8 °C 23,9 °C 70 % 1012,5 hPa 0,0 mm 4,6 km/h (1 Bft) NW 306 ° 0 min 0,000 mm 1,5 UV-I 176 W/m² 18,0 °C 23,8 °C 11,3 km/h (2 Bft)
05.08.2017 17:29 23,8 °C 23,9 °C 71 % 1012,5 hPa 0,0 mm 9,7 km/h (2 Bft) NW 313 ° 0 min 0,000 mm 1,5 UV-I 206 W/m² 18,2 °C 23,8 °C 17,7 km/h (3 Bft)
05.08.2017 17:30 23,9 °C 23,9 °C 73 % 1012,5 hPa 0,0 mm 5,9 km/h (2 Bft) W 265 ° 0 min 0,000 mm 1,7 UV-I 206 W/m² 18,8 °C 23,9 °C 11,3 km/h (2 Bft)
05.08.2017 17:31 23,8 °C 23,9 °C 71 % 1012,5 hPa 0,0 mm 7,0 km/h (2 Bft) W-NW 287 ° 0 min 0,000 mm 1,7 UV-I 169 W/m² 18,2 °C 23,8 °C 14,5 km/h (3 Bft)
05.08.2017 17:32 23,9 °C 23,9 °C 70 % 1012,5 hPa 0,0 mm 8,4 km/h (2 Bft) W-NW 292 ° 0 min 0,000 mm 1,6 UV-I 148 W/m² 18,1 °C 23,9 °C 12,9 km/h (3 Bft)
05.08.2017 17:33 23,8 °C 23,9 °C 70 % 1012,5 hPa 0,0 mm 7,2 km/h (2 Bft) W 279 ° 0 min 0,000 mm 1,6 UV-I 148 W/m² 18,0 °C 23,8 °C 11,3 km/h (2 Bft)
05.08.2017 17:34 23,8 °C 23,8 °C 71 % 1012,5 hPa 0,0 mm 4,8 km/h (1 Bft) W 267 ° 0 min 0,000 mm 1,6 UV-I 132 W/m² 18,2 °C 23,8 °C 6,4 km/h (2 Bft)
05.08.2017 17:35 23,8 °C 23,8 °C 71 % 1012,5 hPa 0,0 mm 7,0 km/h (2 Bft) W 260 ° 0 min 0,000 mm 1,6 UV-I 142 W/m² 18,2 °C 23,8 °C 11,3 km/h (2 Bft)
05.08.2017 17:36 23,8 °C 23,8 °C 72 % 1012,5 hPa 0,0 mm 4,0 km/h (1 Bft) W-SW 252 ° 0 min 0,000 mm 1,6 UV-I 163 W/m² 18,4 °C 23,8 °C 4,8 km/h (1 Bft)
05.08.2017 17:37 23,8 °C 23,8 °C 72 % 1012,5 hPa 0,0 mm 4,3 km/h (1 Bft) W 277 ° 0 min 0,000 mm 1,7 UV-I 197 W/m² 18,4 °C 23,8 °C 6,4 km/h (2 Bft)
05.08.2017 17:38 23,9 °C 23,9 °C 71 % 1012,4 hPa 0,0 mm 3,6 km/h (1 Bft) W 261 ° 0 min 0,000 mm 1,7 UV-I 230 W/m² 18,3 °C 23,9 °C 6,4 km/h (2 Bft)
05.08.2017 17:39 24,0 °C 24,0 °C 73 % 1012,5 hPa 0,0 mm 4,8 km/h (1 Bft) W-NW 288 ° 0 min 0,000 mm 1,7 UV-I 225 W/m² 18,9 °C 24,0 °C 6,4 km/h (2 Bft)
05.08.2017 17:40 24,1 °C 24,1 °C 70 % 1012,5 hPa 0,0 mm 5,0 km/h (1 Bft) W-NW 295 ° 0 min 0,000 mm 1,7 UV-I 214 W/m² 18,3 °C 24,1 °C 8,0 km/h (2 Bft)
05.08.2017 17:41 24,2 °C 24,2 °C 72 % 1012,5 hPa 0,0 mm 4,6 km/h (1 Bft) W-NW 282 ° 0 min 0,000 mm 1,6 UV-I 206 W/m² 18,8 °C 24,2 °C 6,4 km/h (2 Bft)
05.08.2017 17:42 24,2 °C 24,2 °C 71 % 1012,5 hPa 0,0 mm 5,2 km/h (1 Bft) W-SW 258 ° 0 min 0,000 mm 1,6 UV-I 192 W/m² 18,6 °C 24,2 °C 9,7 km/h (2 Bft)
05.08.2017 17:43 24,2 °C 24,2 °C 71 % 1012,5 hPa 0,0 mm 4,3 km/h (1 Bft) W-SW 246 ° 0 min 0,000 mm 1,6 UV-I 179 W/m² 18,6 °C 24,2 °C 6,4 km/h (2 Bft)
05.08.2017 17:44 24,2 °C 24,2 °C 71 % 1012,5 hPa 0,0 mm 1,7 km/h (1 Bft) W 276 ° 0 min 0,000 mm 1,6 UV-I 178 W/m² 18,6 °C 24,2 °C 3,2 km/h (1 Bft)
05.08.2017 17:45 24,1 °C 24,2 °C 71 % 1012,5 hPa 0,0 mm 3,6 km/h (1 Bft) W 271 ° 0 min 0,000 mm 1,6 UV-I 174 W/m² 18,5 °C 24,1 °C 4,8 km/h (1 Bft)
05.08.2017 17:46 24,1 °C 24,1 °C 72 % 1012,5 hPa 0,0 mm 3,4 km/h (1 Bft) W 271 ° 0 min 0,000 mm 1,6 UV-I 156 W/m² 18,7 °C 24,1 °C 6,4 km/h (2 Bft)
05.08.2017 17:47 24,1 °C 24,1 °C 71 % 1012,5 hPa 0,0 mm 2,6 km/h (1 Bft) W 261 ° 0 min 0,000 mm 1,6 UV-I 151 W/m² 18,5 °C 24,1 °C 6,4 km/h (2 Bft)
05.08.2017 17:48 24,1 °C 24,1 °C 70 % 1012,5 hPa 0,0 mm 6,4 km/h (2 Bft) W-SW 247 ° 0 min 0,000 mm 1,6 UV-I 148 W/m² 18,3 °C 24,1 °C 16,1 km/h (3 Bft)
05.08.2017 17:49 24,1 °C 24,1 °C 71 % 1012,5 hPa 0,0 mm 8,7 km/h (2 Bft) W-SW 257 ° 0 min 0,000 mm 1,5 UV-I 135 W/m² 18,5 °C 24,1 °C 14,5 km/h (3 Bft)
05.08.2017 17:50 24,1 °C 24,1 °C 70 % 1012,5 hPa 0,0 mm 7,9 km/h (2 Bft) W 259 ° 0 min 0,000 mm 1,5 UV-I 125 W/m² 18,3 °C 24,1 °C 14,5 km/h (3 Bft)
05.08.2017 17:51 23,9 °C 24,1 °C 70 % 1012,5 hPa 0,0 mm 4,4 km/h (1 Bft) W 262 ° 0 min 0,000 mm 1,5 UV-I 123 W/m² 18,1 °C 23,9 °C 9,7 km/h (2 Bft)
05.08.2017 17:52 23,9 °C 23,9 °C 71 % 1012,5 hPa 0,0 mm 5,7 km/h (1 Bft) W 260 ° 0 min 0,000 mm 1,5 UV-I 128 W/m² 18,3 °C 23,9 °C 9,7 km/h (2 Bft)
05.08.2017 17:53 23,8 °C 23,9 °C 72 % 1012,5 hPa 0,0 mm 6,7 km/h (2 Bft) W-NW 286 ° 0 min 0,000 mm 1,5 UV-I 114 W/m² 18,4 °C 23,8 °C 11,3 km/h (2 Bft)
05.08.2017 17:54 23,8 °C 23,8 °C 71 % 1012,6 hPa 0,0 mm 3,9 km/h (1 Bft) W-NW 294 ° 0 min 0,000 mm 1,5 UV-I 105 W/m² 18,2 °C 23,8 °C 4,8 km/h (1 Bft)
05.08.2017 17:55 23,8 °C 23,8 °C 71 % 1012,5 hPa 0,0 mm 5,0 km/h (1 Bft) W 279 ° 0 min 0,000 mm 1,5 UV-I 100 W/m² 18,2 °C 23,8 °C 6,4 km/h (2 Bft)
05.08.2017 17:56 23,8 °C 23,8 °C 70 % 1012,5 hPa 0,0 mm 5,6 km/h (1 Bft) W-NW 291 ° 0 min 0,000 mm 1,4 UV-I 100 W/m² 18,0 °C 23,8 °C 9,7 km/h (2 Bft)
05.08.2017 17:57 23,8 °C 23,8 °C 70 % 1012,5 hPa 0,0 mm 0,8 km/h (0 Bft) W-NW 291 ° 0 min 0,000 mm 1,4 UV-I 102 W/m² 18,0 °C 23,8 °C 3,2 km/h (1 Bft)
05.08.2017 17:58 23,7 °C 23,8 °C 71 % 1012,5 hPa 0,0 mm 4,1 km/h (1 Bft) W-SW 240 ° 0 min 0,000 mm 1,4 UV-I 104 W/m² 18,1 °C 23,7 °C 6,4 km/h (2 Bft)
05.08.2017 17:59 23,6 °C 23,7 °C 72 % 1012,6 hPa 0,0 mm 6,0 km/h (2 Bft) W-SW 244 ° 0 min 0,000 mm 1,3 UV-I 100 W/m² 18,2 °C 23,6 °C 11,3 km/h (2 Bft)
05.08.2017 18:00 23,6 °C 23,6 °C 71 % 1012,6 hPa 0,0 mm 1,7 km/h (1 Bft) W-SW 244 ° 0 min 0,000 mm 1,2 UV-I 102 W/m² 18,0 °C 23,6 °C 4,8 km/h (1 Bft)
05.08.2017 18:01 23,4 °C 23,6 °C 72 % 1012,6 hPa 0,0 mm 7,3 km/h (2 Bft) W 261 ° 0 min 0,127 mm 1,2 UV-I 107 W/m² 18,1 °C 23,4 °C 12,9 km/h (3 Bft)
05.08.2017 18:02 23,4 °C 23,4 °C 72 % 1012,5 hPa 0,0 mm 4,7 km/h (1 Bft) S-SW 205 ° 0 min 0,000 mm 1,2 UV-I 111 W/m² 18,1 °C 23,4 °C 6,4 km/h (2 Bft)
05.08.2017 18:03 23,3 °C 23,4 °C 73 % 1012,5 hPa 0,0 mm 0,4 km/h (0 Bft) S-SW 206 ° 0 min 0,000 mm 1,1 UV-I 111 W/m² 18,2 °C 23,3 °C 3,2 km/h (1 Bft)
05.08.2017 18:04 23,3 °C 23,3 °C 71 % 1012,5 hPa 0,0 mm 4,6 km/h (1 Bft) W-SW 240 ° 0 min 0,000 mm 1,1 UV-I 114 W/m² 17,7 °C 23,3 °C 6,4 km/h (2 Bft)
05.08.2017 18:05 23,3 °C 23,3 °C 70 % 1012,5 hPa 0,0 mm 0,9 km/h (0 Bft) W-SW 241 ° 0 min 0,000 mm 1,1 UV-I 114 W/m² 17,5 °C 23,3 °C 3,2 km/h (1 Bft)
05.08.2017 18:06 23,3 °C 23,4 °C 71 % 1012,5 hPa 0,0 mm 0,1 km/h (0 Bft) W-SW 241 ° 0 min 0,000 mm 1,1 UV-I 118 W/m² 17,7 °C 23,3 °C 1,6 km/h (1 Bft)
05.08.2017 18:07 23,3 °C 23,3 °C 71 % 1012,5 hPa 0,0 mm 1,6 km/h (1 Bft) W-SW 241 ° 0 min 0,000 mm 1,1 UV-I 123 W/m² 17,7 °C 23,3 °C 3,2 km/h (1 Bft)
05.08.2017 18:08 23,3 °C 23,4 °C 74 % 1012,5 hPa 0,0 mm 1,8 km/h (1 Bft) W-SW 241 ° 0 min 0,000 mm 1,1 UV-I 125 W/m² 18,4 °C 23,3 °C 3,2 km/h (1 Bft)
05.08.2017 18:09 23,3 °C 23,3 °C 75 % 1012,5 hPa 0,0 mm 0,0 km/h (0 Bft) W-SW 241 ° 0 min 0,000 mm 1,0 UV-I 109 W/m² 18,6 °C 23,3 °C 0,0 km/h (0 Bft)
05.08.2017 18:10 23,2 °C 23,3 °C 75 % 1012,5 hPa 0,0 mm 0,0 km/h (0 Bft) W-SW 241 ° 0 min 0,000 mm 1,0 UV-I 83 W/m² 18,5 °C 23,2 °C 0,0 km/h (0 Bft)
05.08.2017 18:11 23,2 °C 23,2 °C 73 % 1012,4 hPa 0,0 mm 0,0 km/h (0 Bft) W-SW 241 ° 0 min 0,000 mm 0,8 UV-I 72 W/m² 18,1 °C 23,2 °C 0,0 km/h (0 Bft)
05.08.2017 18:12 23,2 °C 23,2 °C 76 % 1012,5 hPa 0,0 mm 0,0 km/h (0 Bft) W-SW 241 ° 0 min 0,000 mm 0,8 UV-I 83 W/m² 18,7 °C 23,2 °C 0,0 km/h (0 Bft)
05.08.2017 18:13 23,1 °C 23,2 °C 75 % 1012,5 hPa 0,0 mm 1,2 km/h (1 Bft) W-SW 241 ° 0 min 0,000 mm 0,8 UV-I 90 W/m² 18,4 °C 23,1 °C 3,2 km/h (1 Bft)
05.08.2017 18:14 23,1 °C 23,2 °C 77 % 1012,5 hPa 0,0 mm 4,0 km/h (1 Bft) W-SW 244 ° 0 min 0,000 mm 0,8 UV-I 88 W/m² 18,8 °C 23,1 °C 4,8 km/h (1 Bft)
05.08.2017 18:15 23,2 °C 23,2 °C 75 % 1012,5 hPa 0,0 mm 3,9 km/h (1 Bft) SW 223 ° 0 min 0,000 mm 0,9 UV-I 88 W/m² 18,5 °C 23,2 °C 4,8 km/h (1 Bft)
05.08.2017 18:16 23,2 °C 23,2 °C 72 % 1012,4 hPa 0,0 mm 1,3 km/h (1 Bft) SW 223 ° 0 min 0,000 mm 0,9 UV-I 79 W/m² 17,9 °C 23,2 °C 3,2 km/h (1 Bft)
05.08.2017 18:17 23,3 °C 23,3 °C 72 % 1012,4 hPa 0,0 mm 1,8 km/h (1 Bft) S-SW 205 ° 0 min 0,000 mm 0,8 UV-I 72 W/m² 18,0 °C 23,3 °C 3,2 km/h (1 Bft)
05.08.2017 18:18 23,2 °C 23,3 °C 73 % 1012,4 hPa 0,0 mm 4,7 km/h (1 Bft) W 271 ° 0 min 0,000 mm 0,8 UV-I 70 W/m² 18,1 °C 23,2 °C 9,7 km/h (2 Bft)
05.08.2017 18:19 23,2 °C 23,2 °C 74 % 1012,4 hPa 0,0 mm 4,5 km/h (1 Bft) W-SW 257 ° 0 min 0,000 mm 0,9 UV-I 76 W/m² 18,3 °C 23,2 °C 6,4 km/h (2 Bft)
05.08.2017 18:20 23,2 °C 23,2 °C 74 % 1012,4 hPa 0,0 mm 2,5 km/h (1 Bft) W-SW 257 ° 0 min 0,000 mm 0,9 UV-I 88 W/m² 18,3 °C 23,2 °C 4,8 km/h (1 Bft)
05.08.2017 18:21 23,2 °C 23,2 °C 75 % 1012,4 hPa 0,0 mm 0,4 km/h (0 Bft) W-SW 257 ° 0 min 0,000 mm 0,9 UV-I 127 W/m² 18,5 °C 23,2 °C 1,6 km/h (1 Bft)
05.08.2017 18:22 23,0 °C 23,2 °C 75 % 1012,4 hPa 0,0 mm 0,1 km/h (0 Bft) W-SW 257 ° 0 min 0,000 mm 1,0 UV-I 139 W/m² 18,3 °C 23,0 °C 1,6 km/h (1 Bft)
05.08.2017 18:23 23,1 °C 23,1 °C 76 % 1012,4 hPa 0,0 mm 0,0 km/h (0 Bft) W-SW 257 ° 0 min 0,000 mm 1,0 UV-I 134 W/m² 18,6 °C 23,1 °C 0,0 km/h (0 Bft)
05.08.2017 18:24 23,1 °C 23,1 °C 78 % 1012,4 hPa 0,0 mm 0,0 km/h (0 Bft) W-SW 257 ° 0 min 0,000 mm 1,0 UV-I 135 W/m² 19,0 °C 23,1 °C 0,0 km/h (0 Bft)
05.08.2017 18:25 23,1 °C 23,1 °C 74 % 1012,5 hPa 0,0 mm 0,0 km/h (0 Bft) W-SW 257 ° 0 min 0,000 mm 1,0 UV-I 146 W/m² 18,2 °C 23,1 °C 0,0 km/h (0 Bft)
05.08.2017 18:26 23,2 °C 23,2 °C 74 % 1012,5 hPa 0,0 mm 0,0 km/h (0 Bft) W-SW 257 ° 0 min 0,000 mm 1,0 UV-I 146 W/m² 18,3 °C 23,2 °C 0,0 km/h (0 Bft)
05.08.2017 18:27 23,2 °C 23,2 °C 76 % 1012,5 hPa 0,0 mm 0,0 km/h (0 Bft) W-SW 257 ° 0 min 0,000 mm 1,0 UV-I 111 W/m² 18,7 °C 23,2 °C 0,0 km/h (0 Bft)
05.08.2017 18:28 23,2 °C 23,2 °C 77 % 1012,5 hPa 0,0 mm 1,1 km/h (1 Bft) W-SW 257 ° 0 min 0,000 mm 1,0 UV-I 113 W/m² 18,9 °C 23,2 °C 3,2 km/h (1 Bft)
05.08.2017 18:29 23,2 °C 23,2 °C 76 % 1012,5 hPa 0,0 mm 1,8 km/h (1 Bft) W-SW 253 ° 0 min 0,000 mm 1,0 UV-I 114 W/m² 18,7 °C 23,2 °C 3,2 km/h (1 Bft)
05.08.2017 18:30 23,2 °C 23,2 °C 75 % 1012,6 hPa 0,0 mm 1,5 km/h (1 Bft) W-SW 250 ° 0 min 0,000 mm 1,0 UV-I 105 W/m² 18,5 °C 23,2 °C 4,8 km/h (1 Bft)
05.08.2017 18:31 23,2 °C 23,2 °C 75 % 1012,5 hPa 0,0 mm 0,1 km/h (0 Bft) W-SW 250 ° 0 min 0,000 mm 1,0 UV-I 105 W/m² 18,5 °C 23,2 °C 1,6 km/h (1 Bft)
05.08.2017 18:32 23,3 °C 23,3 °C 76 % 1012,5 hPa 0,0 mm 0,1 km/h (0 Bft) W-SW 250 ° 0 min 0,000 mm 1,0 UV-I 107 W/m² 18,8 °C 23,3 °C 1,6 km/h (1 Bft)
05.08.2017 18:33 23,2 °C 23,3 °C 76 % 1012,5 hPa 0,0 mm 0,0 km/h (0 Bft) W-SW 250 ° 0 min 0,000 mm 1,0 UV-I 114 W/m² 18,7 °C 23,2 °C 0,0 km/h (0 Bft)
05.08.2017 18:34 23,2 °C 23,2 °C 77 % 1012,5 hPa 0,0 mm 0,0 km/h (0 Bft) W-SW 250 ° 0 min 0,000 mm 1,1 UV-I 109 W/m² 18,9 °C 23,2 °C 0,0 km/h (0 Bft)
05.08.2017 18:35 23,2 °C 23,2 °C 76 % 1012,5 hPa 0,0 mm 0,0 km/h (0 Bft) W-SW 250 ° 0 min 0,000 mm 1,1 UV-I 109 W/m² 18,7 °C 23,2 °C 0,0 km/h (0 Bft)
05.08.2017 18:36 23,2 °C 23,3 °C 74 % 1012,5 hPa 0,0 mm 1,2 km/h (1 Bft) W-SW 238 ° 0 min 0,000 mm 1,1 UV-I 105 W/m² 18,3 °C 23,2 °C 3,2 km/h (1 Bft)
05.08.2017 18:37 23,3 °C 23,3 °C 73 % 1012,5 hPa 0,0 mm 0,0 km/h (0 Bft) W-SW 238 ° 0 min 0,000 mm 1,0 UV-I 100 W/m² 18,2 °C 23,3 °C 0,0 km/h (0 Bft)
05.08.2017 18:38 23,4 °C 23,4 °C 72 % 1012,5 hPa 0,0 mm 0,4 km/h (0 Bft) W-SW 238 ° 0 min 0,000 mm 1,0 UV-I 102 W/m² 18,1 °C 23,4 °C 3,2 km/h (1 Bft)
05.08.2017 18:39 23,5 °C 23,5 °C 73 % 1012,5 hPa 0,0 mm 0,4 km/h (0 Bft) W-SW 238 ° 0 min 0,000 mm 1,0 UV-I 102 W/m² 18,4 °C 23,5 °C 3,2 km/h (1 Bft)
05.08.2017 18:40 23,5 °C 23,5 °C 74 % 1012,5 hPa 0,0 mm 2,1 km/h (1 Bft) W-SW 244 ° 0 min 0,000 mm 1,0 UV-I 111 W/m² 18,6 °C 23,5 °C 4,8 km/h (1 Bft)
05.08.2017 18:41 23,6 °C 23,6 °C 72 % 1012,5 hPa 0,0 mm 2,3 km/h (1 Bft) W-SW 244 ° 0 min 0,000 mm 1,0 UV-I 135 W/m² 18,2 °C 23,6 °C 4,8 km/h (1 Bft)
05.08.2017 18:42 23,6 °C 23,6 °C 73 % 1012,5 hPa 0,0 mm 3,0 km/h (1 Bft) W-SW 248 ° 0 min 0,000 mm 1,0 UV-I 142 W/m² 18,5 °C 23,6 °C 4,8 km/h (1 Bft)
05.08.2017 18:43 23,7 °C 23,7 °C 73 % 1012,5 hPa 0,0 mm 1,5 km/h (1 Bft) W-SW 248 ° 0 min 0,000 mm 0,9 UV-I 139 W/m² 18,6 °C 23,7 °C 3,2 km/h (1 Bft)
05.08.2017 18:44 23,7 °C 23,7 °C 74 % 1012,5 hPa 0,0 mm 2,4 km/h (1 Bft) W-SW 248 ° 0 min 0,000 mm 0,9 UV-I 137 W/m² 18,8 °C 23,7 °C 4,8 km/h (1 Bft)
05.08.2017 18:45 23,8 °C 23,8 °C 73 % 1012,5 hPa 0,0 mm 2,3 km/h (1 Bft) W-SW 249 ° 0 min 0,000 mm 0,9 UV-I 132 W/m² 18,7 °C 23,8 °C 4,8 km/h (1 Bft)
05.08.2017 18:46 23,8 °C 23,8 °C 72 % 1012,5 hPa 0,0 mm 2,0 km/h (1 Bft) SW 225 ° 0 min 0,000 mm 0,9 UV-I 127 W/m² 18,4 °C 23,8 °C 4,8 km/h (1 Bft)
05.08.2017 18:47 23,8 °C 23,8 °C 71 % 1012,5 hPa 0,0 mm 1,3 km/h (1 Bft) SW 225 ° 0 min 0,000 mm 0,8 UV-I 90 W/m² 18,2 °C 23,8 °C 3,2 km/h (1 Bft)
05.08.2017 18:48 23,8 °C 23,8 °C 71 % 1012,5 hPa 0,0 mm 0,0 km/h (0 Bft) SW 225 ° 0 min 0,000 mm 0,8 UV-I 83 W/m² 18,2 °C 23,8 °C 0,0 km/h (0 Bft)
05.08.2017 18:49 23,8 °C 23,8 °C 72 % 1012,5 hPa 0,0 mm 0,0 km/h (0 Bft) SW 225 ° 0 min 0,000 mm 0,8 UV-I 81 W/m² 18,4 °C 23,8 °C 0,0 km/h (0 Bft)
05.08.2017 18:50 23,8 °C 23,8 °C 73 % 1012,5 hPa 0,0 mm 0,0 km/h (0 Bft) SW 225 ° 0 min 0,000 mm 0,8 UV-I 90 W/m² 18,7 °C 23,8 °C 0,0 km/h (0 Bft)
05.08.2017 18:51 23,6 °C 23,8 °C 73 % 1012,5 hPa 0,0 mm 0,6 km/h (0 Bft) SW 225 ° 0 min 0,000 mm 0,9 UV-I 81 W/m² 18,5 °C 23,6 °C 1,6 km/h (1 Bft)
05.08.2017 18:52 23,4 °C 23,6 °C 74 % 1012,6 hPa 0,0 mm 0,1 km/h (0 Bft) SW 225 ° 0 min 0,000 mm 0,8 UV-I 81 W/m² 18,5 °C 23,4 °C 1,6 km/h (1 Bft)
05.08.2017 18:53 23,4 °C 23,4 °C 74 % 1012,6 hPa 0,0 mm 0,0 km/h (0 Bft) SW 225 ° 0 min 0,000 mm 0,8 UV-I 84 W/m² 18,5 °C 23,4 °C 0,0 km/h (0 Bft)
05.08.2017 18:54 23,3 °C 23,4 °C 79 % 1012,6 hPa 0,0 mm 0,0 km/h (0 Bft) SW 225 ° 0 min 0,000 mm 0,8 UV-I 91 W/m² 19,4 °C 23,3 °C 0,0 km/h (0 Bft)
05.08.2017 18:55 23,2 °C 23,3 °C 75 % 1012,6 hPa 0,0 mm 0,6 km/h (0 Bft) SW 225 ° 0 min 0,000 mm 0,8 UV-I 97 W/m² 18,5 °C 23,2 °C 3,2 km/h (1 Bft)
05.08.2017 18:56 23,2 °C 23,2 °C 75 % 1012,6 hPa 0,0 mm 0,4 km/h (0 Bft) SW 225 ° 0 min 0,000 mm 0,8 UV-I 91 W/m² 18,5 °C 23,2 °C 1,6 km/h (1 Bft)
05.08.2017 18:57 23,2 °C 23,2 °C 77 % 1012,6 hPa 0,0 mm 0,5 km/h (0 Bft) W-SW 257 ° 0 min 0,000 mm 0,8 UV-I 105 W/m² 18,9 °C 23,2 °C 1,6 km/h (1 Bft)
05.08.2017 18:58 23,1 °C 23,2 °C 77 % 1012,6 hPa 0,0 mm 0,0 km/h (0 Bft) W-SW 257 ° 0 min 0,000 mm 0,7 UV-I 107 W/m² 18,8 °C 23,1 °C 0,0 km/h (0 Bft)
05.08.2017 18:59 23,0 °C 23,1 °C 77 % 1012,6 hPa 0,0 mm 0,0 km/h (0 Bft) W-SW 257 ° 0 min 0,000 mm 0,7 UV-I 107 W/m² 18,7 °C 23,0 °C 0,0 km/h (0 Bft)
05.08.2017 19:00 23,0 °C 23,0 °C 75 % 1012,6 hPa 0,0 mm 0,0 km/h (0 Bft) W-SW 257 ° 0 min 0,000 mm 0,7 UV-I 104 W/m² 18,3 °C 23,0 °C 0,0 km/h (0 Bft)
05.08.2017 19:01 23,1 °C 23,1 °C 77 % 1012,5 hPa 0,0 mm 0,0 km/h (0 Bft) W-SW 257 ° 0 min 0,076 mm 0,7 UV-I 98 W/m² 18,8 °C 23,1 °C 0,0 km/h (0 Bft)
05.08.2017 19:02 23,0 °C 23,1 °C 77 % 1012,6 hPa 0,0 mm 0,0 km/h (0 Bft) W-SW 257 ° 0 min 0,000 mm 0,7 UV-I 95 W/m² 18,7 °C 23,0 °C 0,0 km/h (0 Bft)
05.08.2017 19:03 23,0 °C 23,0 °C 78 % 1012,5 hPa 0,0 mm 0,2 km/h (0 Bft) W-SW 257 ° 0 min 0,000 mm 0,7 UV-I 91 W/m² 18,9 °C 23,0 °C 1,6 km/h (1 Bft)
05.08.2017 19:04 23,0 °C 23,1 °C 78 % 1012,5 hPa 0,0 mm 1,5 km/h (1 Bft) W-SW 257 ° 0 min 0,000 mm 0,6 UV-I 83 W/m² 18,9 °C 23,0 °C 3,2 km/h (1 Bft)
05.08.2017 19:05 23,1 °C 23,1 °C 76 % 1012,5 hPa 0,0 mm 0,0 km/h (0 Bft) W-SW 257 ° 0 min 0,000 mm 0,6 UV-I 83 W/m² 18,6 °C 23,1 °C 0,0 km/h (0 Bft)
05.08.2017 19:06 23,0 °C 23,1 °C 77 % 1012,5 hPa 0,0 mm 0,0 km/h (0 Bft) W-SW 257 ° 0 min 0,000 mm 0,6 UV-I 86 W/m² 18,7 °C 23,0 °C 0,0 km/h (0 Bft)
05.08.2017 19:07 22,9 °C 23,0 °C 79 % 1012,5 hPa 0,0 mm 0,0 km/h (0 Bft) W-SW 257 ° 0 min 0,000 mm 0,6 UV-I 86 W/m² 19,1 °C 22,9 °C 0,0 km/h (0 Bft)
05.08.2017 19:09 23,0 °C 23,0 °C 77 % 1012,6 hPa 0,0 mm 0,9 km/h (0 Bft) W-SW 257 ° 0 min 0,000 mm 0,6 UV-I 93 W/m² 18,7 °C 23,0 °C 3,2 km/h (1 Bft)
05.08.2017 19:10 23,1 °C 23,1 °C 75 % 1012,6 hPa 0,0 mm 0,1 km/h (0 Bft) W-SW 257 ° 0 min 0,000 mm 0,6 UV-I 86 W/m² 18,4 °C 23,1 °C 1,6 km/h (1 Bft)
05.08.2017 19:11 23,1 °C 23,1 °C 76 % 1012,6 hPa 0,0 mm 0,2 km/h (0 Bft) W-SW 257 ° 0 min 0,000 mm 0,5 UV-I 74 W/m² 18,6 °C 23,1 °C 1,6 km/h (1 Bft)
05.08.2017 19:12 23,2 °C 23,2 °C 77 % 1012,6 hPa 0,0 mm 0,5 km/h (0 Bft) W-SW 257 ° 0 min 0,000 mm 0,5 UV-I 65 W/m² 18,9 °C 23,2 °C 1,6 km/h (1 Bft)
05.08.2017 19:13 23,2 °C 23,2 °C 77 % 1012,6 hPa 0,0 mm 0,7 km/h (0 Bft) W-SW 257 ° 0 min 0,000 mm 0,5 UV-I 56 W/m² 18,9 °C 23,2 °C 1,6 km/h (1 Bft)
05.08.2017 19:14 23,1 °C 23,2 °C 77 % 1012,7 hPa 0,0 mm 0,0 km/h (0 Bft) W-SW 257 ° 0 min 0,000 mm 0,0 UV-I 42 W/m² 18,8 °C 23,1 °C 0,0 km/h (0 Bft)
05.08.2017 19:15 23,1 °C 23,2 °C 78 % 1012,7 hPa 0,0 mm 0,5 km/h (0 Bft) W-SW 257 ° 0 min 0,000 mm 0,0 UV-I 37 W/m² 19,0 °C 23,1 °C 1,6 km/h (1 Bft)
05.08.2017 19:16 23,1 °C 23,1 °C 79 % 1012,7 hPa 0,0 mm 0,4 km/h (0 Bft) W-SW 257 ° 0 min 0,000 mm 0,0 UV-I 37 W/m² 19,3 °C 23,1 °C 1,6 km/h (1 Bft)
05.08.2017 19:17 23,1 °C 23,1 °C 77 % 1012,8 hPa 0,0 mm 0,0 km/h (0 Bft) W-SW 257 ° 0 min 0,000 mm 0,0 UV-I 37 W/m² 18,8 °C 23,1 °C 0,0 km/h (0 Bft)
05.08.2017 19:18 23,0 °C 23,1 °C 79 % 1012,7 hPa 0,0 mm 0,0 km/h (0 Bft) W-SW 257 ° 0 min 0,000 mm 0,0 UV-I 39 W/m² 19,2 °C 23,0 °C 0,0 km/h (0 Bft)
05.08.2017 19:19 22,9 °C 23,0 °C 78 % 1012,8 hPa 0,0 mm 0,0 km/h (0 Bft) W-SW 257 ° 0 min 0,000 mm 0,0 UV-I 44 W/m² 18,9 °C 22,9 °C 0,0 km/h (0 Bft)
05.08.2017 19:20 22,8 °C 22,9 °C 79 % 1012,7 hPa 0,0 mm 0,0 km/h (0 Bft) W-SW 257 ° 0 min 0,000 mm 0,0 UV-I 51 W/m² 19,0 °C 22,8 °C 0,0 km/h (0 Bft)
05.08.2017 19:21 22,8 °C 22,8 °C 80 % 1012,7 hPa 0,0 mm 0,0 km/h (0 Bft) W-SW 257 ° 0 min 0,000 mm 0,0 UV-I 53 W/m² 19,2 °C 22,8 °C 0,0 km/h (0 Bft)
05.08.2017 19:22 22,7 °C 22,8 °C 79 % 1012,8 hPa 0,0 mm 0,0 km/h (0 Bft) W-SW 257 ° 0 min 0,000 mm 0,0 UV-I 51 W/m² 18,9 °C 22,7 °C 0,0 km/h (0 Bft)
05.08.2017 19:23 22,6 °C 22,7 °C 78 % 1012,7 hPa 0,0 mm 0,0 km/h (0 Bft) W-SW 257 ° 0 min 0,000 mm 0,0 UV-I 53 W/m² 18,6 °C 22,6 °C 0,0 km/h (0 Bft)
05.08.2017 19:24 22,6 °C 22,6 °C 79 % 1012,7 hPa 0,0 mm 0,0 km/h (0 Bft) W-SW 257 ° 0 min 0,000 mm 0,0 UV-I 47 W/m² 18,8 °C 22,6 °C 0,0 km/h (0 Bft)
05.08.2017 19:25 22,6 °C 22,6 °C 78 % 1012,8 hPa 0,0 mm 0,0 km/h (0 Bft) W-SW 257 ° 0 min 0,000 mm 0,0 UV-I 47 W/m² 18,6 °C 22,6 °C 0,0 km/h (0 Bft)
05.08.2017 19:26 22,5 °C 22,6 °C 78 % 1012,8 hPa 0,0 mm 0,1 km/h (0 Bft) W-SW 257 ° 0 min 0,000 mm 0,0 UV-I 49 W/m² 18,5 °C 22,5 °C 1,6 km/h (1 Bft)
05.08.2017 19:27 22,4 °C 22,5 °C 79 % 1012,8 hPa 0,0 mm 0,0 km/h (0 Bft) W-SW 257 ° 0 min 0,000 mm 0,0 UV-I 51 W/m² 18,6 °C 22,4 °C 0,0 km/h (0 Bft)
05.08.2017 19:28 22,4 °C 22,4 °C 79 % 1012,8 hPa 0,0 mm 0,0 km/h (0 Bft) W-SW 257 ° 0 min 0,000 mm 0,0 UV-I 54 W/m² 18,6 °C 22,4 °C 0,0 km/h (0 Bft)
05.08.2017 19:29 22,4 °C 22,4 °C 79 % 1012,8 hPa 0,0 mm 0,0 km/h (0 Bft) W-SW 257 ° 0 min 0,000 mm 0,0 UV-I 58 W/m² 18,6 °C 22,4 °C 0,0 km/h (0 Bft)
05.08.2017 19:30 22,4 °C 22,4 °C 79 % 1012,8 hPa 0,0 mm 0,0 km/h (0 Bft) W-SW 257 ° 0 min 0,000 mm 0,0 UV-I 63 W/m² 18,6 °C 22,4 °C 0,0 km/h (0 Bft)
05.08.2017 19:31 22,4 °C 22,4 °C 80 % 1012,8 hPa 0,0 mm 0,0 km/h (0 Bft) W-SW 257 ° 0 min 0,000 mm 0,0 UV-I 62 W/m² 18,8 °C 22,4 °C 0,0 km/h (0 Bft)
05.08.2017 19:32 22,4 °C 22,4 °C 80 % 1012,8 hPa 0,0 mm 0,0 km/h (0 Bft) W-SW 257 ° 0 min 0,000 mm 0,0 UV-I 51 W/m² 18,8 °C 22,4 °C 0,0 km/h (0 Bft)
05.08.2017 19:33 22,4 °C 22,4 °C 79 % 1012,8 hPa 0,0 mm 0,0 km/h (0 Bft) W-SW 257 ° 0 min 0,000 mm 0,0 UV-I 49 W/m² 18,6 °C 22,4 °C 0,0 km/h (0 Bft)
05.08.2017 19:34 22,4 °C 22,4 °C 79 % 1012,8 hPa 0,0 mm 0,0 km/h (0 Bft) W-SW 257 ° 0 min 0,000 mm 0,0 UV-I 53 W/m² 18,6 °C 22,4 °C 0,0 km/h (0 Bft)
05.08.2017 19:35 22,4 °C 22,4 °C 80 % 1012,8 hPa 0,0 mm 0,0 km/h (0 Bft) W-SW 257 ° 0 min 0,000 mm 0,0 UV-I 58 W/m² 18,8 °C 22,4 °C 0,0 km/h (0 Bft)
05.08.2017 19:36 22,4 °C 22,4 °C 79 % 1012,9 hPa 0,0 mm 0,5 km/h (0 Bft) W-SW 257 ° 0 min 0,000 mm 0,0 UV-I 60 W/m² 18,6 °C 22,4 °C 3,2 km/h (1 Bft)
05.08.2017 19:37 22,4 °C 22,4 °C 78 % 1012,9 hPa 0,0 mm 1,9 km/h (1 Bft) W-SW 256 ° 0 min 0,000 mm 0,0 UV-I 49 W/m² 18,4 °C 22,4 °C 3,2 km/h (1 Bft)
05.08.2017 19:38 22,4 °C 22,4 °C 78 % 1012,9 hPa 0,0 mm 1,7 km/h (1 Bft) W-SW 246 ° 0 min 0,000 mm 0,0 UV-I 42 W/m² 18,4 °C 22,4 °C 3,2 km/h (1 Bft)
05.08.2017 19:39 22,4 °C 22,4 °C 79 % 1012,9 hPa 0,0 mm 0,0 km/h (0 Bft) W-SW 246 ° 0 min 0,000 mm 0,0 UV-I 37 W/m² 18,6 °C 22,4 °C 0,0 km/h (0 Bft)
05.08.2017 19:40 22,4 °C 22,4 °C 78 % 1012,9 hPa 0,0 mm 0,0 km/h (0 Bft) W-SW 246 ° 0 min 0,000 mm 0,0 UV-I 33 W/m² 18,4 °C 22,4 °C 0,0 km/h (0 Bft)
05.08.2017 19:41 22,4 °C 22,4 °C 78 % 1012,9 hPa 0,0 mm 0,0 km/h (0 Bft) W-SW 246 ° 0 min 0,000 mm 0,0 UV-I 32 W/m² 18,4 °C 22,4 °C 0,0 km/h (0 Bft)
05.08.2017 19:42 22,4 °C 22,4 °C 78 % 1013,0 hPa 0,0 mm 0,0 km/h (0 Bft) W-SW 246 ° 0 min 0,000 mm 0,0 UV-I 30 W/m² 18,4 °C 22,4 °C 0,0 km/h (0 Bft)
05.08.2017 19:43 22,4 °C 22,4 °C 78 % 1013,0 hPa 0,0 mm 0,0 km/h (0 Bft) W-SW 246 ° 0 min 0,000 mm 0,0 UV-I 26 W/m² 18,4 °C 22,4 °C 0,0 km/h (0 Bft)
05.08.2017 19:44 22,4 °C 22,4 °C 79 % 1013,0 hPa 0,0 mm 0,0 km/h (0 Bft) W-SW 246 ° 0 min 0,000 mm 0,0 UV-I 26 W/m² 18,6 °C 22,4 °C 0,0 km/h (0 Bft)
05.08.2017 19:45 22,4 °C 22,4 °C 79 % 1013,0 hPa 0,0 mm 0,7 km/h (0 Bft) W-SW 246 ° 0 min 0,000 mm 0,0 UV-I 26 W/m² 18,6 °C 22,4 °C 1,6 km/h (1 Bft)
05.08.2017 19:46 22,4 °C 22,4 °C 78 % 1013,0 hPa 0,0 mm 0,4 km/h (0 Bft) W-SW 246 ° 0 min 0,000 mm 0,0 UV-I 26 W/m² 18,4 °C 22,4 °C 1,6 km/h (1 Bft)
05.08.2017 19:47 22,4 °C 22,4 °C 78 % 1012,9 hPa 0,0 mm 0,6 km/h (0 Bft) W-SW 246 ° 0 min 0,000 mm 0,0 UV-I 25 W/m² 18,4 °C 22,4 °C 1,6 km/h (1 Bft)
05.08.2017 19:49 22,3 °C 22,4 °C 78 % 1013,0 hPa 0,0 mm 0,6 km/h (0 Bft) W-SW 246 ° 0 min 0,000 mm 0,0 UV-I 21 W/m² 18,3 °C 22,3 °C 1,6 km/h (1 Bft)
05.08.2017 19:50 22,3 °C 22,3 °C 77 % 1013,0 hPa 0,0 mm 0,0 km/h (0 Bft) W-SW 246 ° 0 min 0,000 mm 0,0 UV-I 23 W/m² 18,1 °C 22,3 °C 0,0 km/h (0 Bft)
05.08.2017 19:51 22,3 °C 22,3 °C 79 % 1013,0 hPa 0,0 mm 1,1 km/h (1 Bft) W-SW 245 ° 0 min 0,000 mm 0,0 UV-I 25 W/m² 18,5 °C 22,3 °C 1,6 km/h (1 Bft)
05.08.2017 19:52 22,3 °C 22,3 °C 79 % 1013,0 hPa 0,0 mm 0,7 km/h (0 Bft) W-SW 246 ° 0 min 0,000 mm 0,0 UV-I 25 W/m² 18,5 °C 22,3 °C 1,6 km/h (1 Bft)
05.08.2017 19:53 22,2 °C 22,3 °C 78 % 1013,0 hPa 0,0 mm 0,7 km/h (0 Bft) W-SW 246 ° 0 min 0,000 mm 0,0 UV-I 25 W/m² 18,2 °C 22,2 °C 1,6 km/h (1 Bft)
05.08.2017 19:54 22,2 °C 22,2 °C 78 % 1013,0 hPa 0,0 mm 0,0 km/h (0 Bft) W-SW 245 ° 0 min 0,000 mm 0,0 UV-I 25 W/m² 18,2 °C 22,2 °C 0,0 km/h (0 Bft)
05.08.2017 19:55 22,2 °C 22,2 °C 78 % 1013,0 hPa 0,0 mm 0,0 km/h (0 Bft) W-SW 246 ° 0 min 0,000 mm 0,0 UV-I 19 W/m² 18,2 °C 22,2 °C 0,0 km/h (0 Bft)
05.08.2017 19:56 22,2 °C 22,2 °C 78 % 1013,0 hPa 0,0 mm 0,4 km/h (0 Bft) W-SW 246 ° 0 min 0,000 mm 0,0 UV-I 18 W/m² 18,2 °C 22,2 °C 1,6 km/h (1 Bft)
05.08.2017 19:57 22,2 °C 22,2 °C 78 % 1013,0 hPa 0,0 mm 0,2 km/h (0 Bft) W-SW 245 ° 0 min 0,000 mm 0,0 UV-I 16 W/m² 18,2 °C 22,2 °C 1,6 km/h (1 Bft)
05.08.2017 19:59 22,2 °C 22,2 °C 79 % 1013,0 hPa 0,0 mm 0,3 km/h (0 Bft) W-SW 246 ° 0 min 0,000 mm 0,0 UV-I 14 W/m² 18,4 °C 22,2 °C 1,6 km/h (1 Bft)
05.08.2017 20:00 22,2 °C 22,2 °C 80 % 1013,0 hPa 0,0 mm 0,0 km/h (0 Bft) W-SW 246 ° 0 min 0,000 mm 0,0 UV-I 14 W/m² 18,6 °C 22,2 °C 0,0 km/h (0 Bft)
05.08.2017 20:01 22,2 °C 22,2 °C 79 % 1013,0 hPa 0,0 mm 0,0 km/h (0 Bft) W-SW 246 ° 0 min 0,026 mm 0,0 UV-I 12 W/m² 18,4 °C 22,2 °C 0,0 km/h (0 Bft)
05.08.2017 20:02 22,1 °C 22,2 °C 79 % 1013,0 hPa 0,0 mm 0,0 km/h (0 Bft) W-SW 246 ° 0 min 0,000 mm 0,0 UV-I 11 W/m² 18,3 °C 22,1 °C 0,0 km/h (0 Bft)
05.08.2017 20:03 22,1 °C 22,1 °C 79 % 1013,0 hPa 0,0 mm 0,0 km/h (0 Bft) W-SW 246 ° 0 min 0,000 mm 0,0 UV-I 11 W/m² 18,3 °C 22,1 °C 0,0 km/h (0 Bft)
05.08.2017 20:04 22,1 °C 22,1 °C 80 % 1013,0 hPa 0,0 mm 0,0 km/h (0 Bft) W-SW 246 ° 0 min 0,000 mm 0,0 UV-I 9 W/m² 18,5 °C 22,1 °C 0,0 km/h (0 Bft)
05.08.2017 20:05 22,1 °C 22,1 °C 78 % 1013,0 hPa 0,0 mm 0,0 km/h (0 Bft) W-SW 246 ° 0 min 0,000 mm 0,0 UV-I 9 W/m² 18,1 °C 22,1 °C 0,0 km/h (0 Bft)
05.08.2017 20:06 22,0 °C 22,1 °C 78 % 1013,1 hPa 0,0 mm 0,0 km/h (0 Bft) W-SW 246 ° 0 min 0,000 mm 0,0 UV-I 9 W/m² 18,0 °C 22,0 °C 0,0 km/h (0 Bft)
05.08.2017 20:07 22,0 °C 22,0 °C 79 % 1013,1 hPa 0,0 mm 0,0 km/h (0 Bft) W-SW 246 ° 0 min 0,000 mm 0,0 UV-I 11 W/m² 18,2 °C 22,0 °C 0,0 km/h (0 Bft)
05.08.2017 20:08 22,0 °C 22,0 °C 79 % 1013,0 hPa 0,0 mm 0,0 km/h (0 Bft) W-SW 246 ° 0 min 0,000 mm 0,0 UV-I 9 W/m² 18,2 °C 22,0 °C 0,0 km/h (0 Bft)
05.08.2017 20:09 22,0 °C 22,0 °C 80 % 1013,0 hPa 0,0 mm 0,0 km/h (0 Bft) W-SW 246 ° 0 min 0,000 mm 0,0 UV-I 7 W/m² 18,4 °C 22,0 °C 0,0 km/h (0 Bft)
05.08.2017 20:10 21,9 °C 22,0 °C 79 % 1013,0 hPa 0,0 mm 0,0 km/h (0 Bft) W-SW 246 ° 0 min 0,000 mm 0,0 UV-I 7 W/m² 18,1 °C 21,9 °C 0,0 km/h (0 Bft)
05.08.2017 20:11 21,9 °C 21,9 °C 79 % 1013,0 hPa 0,0 mm 0,0 km/h (0 Bft) W-SW 246 ° 0 min 0,000 mm 0,0 UV-I 5 W/m² 18,1 °C 21,9 °C 0,0 km/h (0 Bft)
05.08.2017 20:12 21,9 °C 21,9 °C 79 % 1013,0 hPa 0,0 mm 0,0 km/h (0 Bft) W-SW 246 ° 0 min 0,000 mm 0,0 UV-I 5 W/m² 18,1 °C 21,9 °C 0,0 km/h (0 Bft)
05.08.2017 20:14 21,8 °C 21,9 °C 80 % 1013,0 hPa 0,0 mm 0,0 km/h (0 Bft) W-SW 246 ° 0 min 0,000 mm 0,0 UV-I 5 W/m² 18,2 °C 21,8 °C 0,0 km/h (0 Bft)
05.08.2017 20:15 21,8 °C 21,8 °C 80 % 1013,0 hPa 0,0 mm 0,0 km/h (0 Bft) W-SW 245 ° 0 min 0,000 mm 0,0 UV-I 5 W/m² 18,2 °C 21,8 °C 0,0 km/h (0 Bft)
05.08.2017 20:16 21,8 °C 21,8 °C 80 % 1013,0 hPa 0,0 mm 0,0 km/h (0 Bft) W-SW 246 ° 0 min 0,000 mm 0,0 UV-I 5 W/m² 18,2 °C 21,8 °C 0,0 km/h (0 Bft)
05.08.2017 20:17 21,8 °C 21,8 °C 80 % 1012,9 hPa 0,0 mm 0,0 km/h (0 Bft) W-SW 246 ° 0 min 0,000 mm 0,0 UV-I 5 W/m² 18,2 °C 21,8 °C 0,0 km/h (0 Bft)
05.08.2017 20:18 21,8 °C 21,8 °C 79 % 1012,9 hPa 0,0 mm 0,0 km/h (0 Bft) W-SW 245 ° 0 min 0,000 mm 0,0 UV-I 5 W/m² 18,0 °C 21,8 °C 0,0 km/h (0 Bft)
05.08.2017 20:19 21,7 °C 21,8 °C 80 % 1012,9 hPa 0,0 mm 0,0 km/h (0 Bft) W-SW 245 ° 0 min 0,000 mm 0,0 UV-I 5 W/m² 18,1 °C 21,7 °C 0,0 km/h (0 Bft)
05.08.2017 20:20 21,7 °C 21,7 °C 80 % 1012,9 hPa 0,0 mm 0,0 km/h (0 Bft) W-SW 245 ° 0 min 0,000 mm 0,0 UV-I 5 W/m² 18,1 °C 21,7 °C 0,0 km/h (0 Bft)
05.08.2017 20:21 21,6 °C 21,7 °C 80 % 1013,0 hPa 0,0 mm 0,0 km/h (0 Bft) W-SW 245 ° 0 min 0,000 mm 0,0 UV-I 5 W/m² 18,0 °C 21,6 °C 0,0 km/h (0 Bft)
05.08.2017 20:22 21,5 °C 21,6 °C 80 % 1013,0 hPa 0,0 mm 0,0 km/h (0 Bft) W-SW 245 ° 0 min 0,000 mm 0,0 UV-I 5 W/m² 17,9 °C 21,5 °C 0,0 km/h (0 Bft)
05.08.2017 20:23 21,4 °C 21,6 °C 81 % 1012,9 hPa 0,0 mm 0,0 km/h (0 Bft) W-SW 245 ° 0 min 0,000 mm 0,0 UV-I 5 W/m² 18,0 °C 21,4 °C 0,0 km/h (0 Bft)
05.08.2017 20:24 21,4 °C 21,4 °C 81 % 1012,9 hPa 0,0 mm 0,0 km/h (0 Bft) W-SW 245 ° 0 min 0,000 mm 0,0 UV-I 0 W/m² 18,0 °C 21,4 °C 0,0 km/h (0 Bft)
05.08.2017 20:25 21,4 °C 21,4 °C 81 % 1012,8 hPa 0,0 mm 0,0 km/h (0 Bft) W-SW 245 ° 0 min 0,000 mm 0,0 UV-I 0 W/m² 18,0 °C 21,4 °C 0,0 km/h (0 Bft)
05.08.2017 20:26 21,3 °C 21,4 °C 80 % 1012,9 hPa 0,0 mm 0,0 km/h (0 Bft) W-SW 245 ° 0 min 0,000 mm 0,0 UV-I 0 W/m² 17,7 °C 21,3 °C 0,0 km/h (0 Bft)
05.08.2017 20:27 21,3 °C 21,3 °C 81 % 1012,9 hPa 0,0 mm 0,0 km/h (0 Bft) W-SW 245 ° 0 min 0,000 mm 0,0 UV-I 0 W/m² 17,9 °C 21,3 °C 0,0 km/h (0 Bft)
05.08.2017 20:28 21,2 °C 21,3 °C 82 % 1012,9 hPa 0,0 mm 0,0 km/h (0 Bft) W-SW 245 ° 0 min 0,000 mm 0,0 UV-I 0 W/m² 18,0 °C 21,2 °C 0,0 km/h (0 Bft)
05.08.2017 20:29 21,1 °C 21,2 °C 82 % 1012,9 hPa 0,0 mm 0,0 km/h (0 Bft) W-SW 245 ° 0 min 0,000 mm 0,0 UV-I 0 W/m² 17,9 °C 21,1 °C 0,0 km/h (0 Bft)
05.08.2017 20:30 20,9 °C 21,1 °C 82 % 1013,0 hPa 0,0 mm 2,6 km/h (1 Bft) W-SW 238 ° 0 min 0,000 mm 0,0 UV-I 0 W/m² 17,7 °C 20,9 °C 4,8 km/h (1 Bft)
05.08.2017 20:31 20,8 °C 20,9 °C 83 % 1013,0 hPa 0,0 mm 1,6 km/h (1 Bft) W-SW 238 ° 0 min 0,000 mm 0,0 UV-I 0 W/m² 17,8 °C 20,8 °C 3,2 km/h (1 Bft)
05.08.2017 20:32 20,7 °C 20,8 °C 83 % 1013,0 hPa 0,0 mm 0,5 km/h (0 Bft) W-SW 238 ° 0 min 0,000 mm 0,0 UV-I 0 W/m² 17,7 °C 20,7 °C 1,6 km/h (1 Bft)
05.08.2017 20:33 20,6 °C 20,7 °C 84 % 1012,9 hPa 0,0 mm 0,0 km/h (0 Bft) W-SW 238 ° 0 min 0,000 mm 0,0 UV-I 0 W/m² 17,8 °C 20,6 °C 0,0 km/h (0 Bft)
05.08.2017 20:34 20,6 °C 20,7 °C 84 % 1013,0 hPa 0,0 mm 0,0 km/h (0 Bft) W-SW 238 ° 0 min 0,000 mm 0,0 UV-I 0 W/m² 17,8 °C 20,6 °C 0,0 km/h (0 Bft)
05.08.2017 20:35 20,6 °C 20,6 °C 84 % 1012,9 hPa 0,0 mm 1,9 km/h (1 Bft) W-SW 238 ° 0 min 0,000 mm 0,0 UV-I 0 W/m² 17,8 °C 20,6 °C 3,2 km/h (1 Bft)
05.08.2017 20:36 20,6 °C 20,6 °C 84 % 1013,0 hPa 0,0 mm 3,2 km/h (1 Bft) SW 235 ° 0 min 0,000 mm 0,0 UV-I 0 W/m² 17,8 °C 20,6 °C 4,8 km/h (1 Bft)
05.08.2017 20:37 20,6 °C 20,6 °C 84 % 1013,0 hPa 0,0 mm 3,6 km/h (1 Bft) S-SW 207 ° 0 min 0,000 mm 0,0 UV-I 0 W/m² 17,8 °C 20,6 °C 6,4 km/h (2 Bft)
05.08.2017 20:38 20,7 °C 20,7 °C 84 % 1013,0 hPa 0,0 mm 6,0 km/h (2 Bft) S-SW 198 ° 0 min 0,000 mm 0,0 UV-I 0 W/m² 17,9 °C 20,7 °C 8,0 km/h (2 Bft)
05.08.2017 20:39 20,8 °C 20,8 °C 83 % 1013,0 hPa 0,0 mm 4,4 km/h (1 Bft) S-SW 198 ° 0 min 0,000 mm 0,0 UV-I 0 W/m² 17,8 °C 20,8 °C 8,0 km/h (2 Bft)
05.08.2017 20:40 20,8 °C 20,8 °C 83 % 1013,0 hPa 0,0 mm 2,3 km/h (1 Bft) S-SW 198 ° 0 min 0,000 mm 0,0 UV-I 0 W/m² 17,8 °C 20,8 °C 4,8 km/h (1 Bft)
05.08.2017 20:41 20,8 °C 20,8 °C 83 % 1012,9 hPa 0,0 mm 3,1 km/h (1 Bft) S-SW 198 ° 0 min 0,000 mm 0,0 UV-I 0 W/m² 17,8 °C 20,8 °C 4,8 km/h (1 Bft)
05.08.2017 20:42 20,8 °C 20,8 °C 83 % 1012,9 hPa 0,0 mm 2,3 km/h (1 Bft) S-SW 198 ° 0 min 0,000 mm 0,0 UV-I 0 W/m² 17,8 °C 20,8 °C 3,2 km/h (1 Bft)
05.08.2017 20:43 20,8 °C 20,8 °C 83 % 1012,9 hPa 0,0 mm 2,7 km/h (1 Bft) S-SW 198 ° 0 min 0,000 mm 0,0 UV-I 0 W/m² 17,8 °C 20,8 °C 4,8 km/h (1 Bft)
05.08.2017 20:44 20,8 °C 20,8 °C 83 % 1013,0 hPa 0,0 mm 2,7 km/h (1 Bft) S-SW 198 ° 0 min 0,000 mm 0,0 UV-I 0 W/m² 17,8 °C 20,8 °C 4,8 km/h (1 Bft)
05.08.2017 20:45 20,8 °C 20,8 °C 82 % 1013,0 hPa 0,0 mm 2,8 km/h (1 Bft) S-SW 198 ° 0 min 0,000 mm 0,0 UV-I 0 W/m² 17,6 °C 20,8 °C 4,8 km/h (1 Bft)
05.08.2017 20:46 20,9 °C 20,9 °C 82 % 1012,9 hPa 0,0 mm 3,3 km/h (1 Bft) S-SW 198 ° 0 min 0,000 mm 0,0 UV-I 0 W/m² 17,7 °C 20,9 °C 6,4 km/h (2 Bft)
05.08.2017 20:47 21,0 °C 21,0 °C 81 % 1012,9 hPa 0,0 mm 5,6 km/h (1 Bft) S-SW 196 ° 0 min 0,000 mm 0,0 UV-I 0 W/m² 17,6 °C 21,0 °C 8,0 km/h (2 Bft)
05.08.2017 20:48 21,1 °C 21,1 °C 82 % 1012,8 hPa 0,0 mm 3,9 km/h (1 Bft) S-SW 192 ° 0 min 0,000 mm 0,0 UV-I 0 W/m² 17,9 °C 21,1 °C 8,0 km/h (2 Bft)
05.08.2017 20:49 21,1 °C 21,1 °C 82 % 1012,8 hPa 0,0 mm 3,6 km/h (1 Bft) S-SW 192 ° 0 min 0,000 mm 0,0 UV-I 0 W/m² 17,9 °C 21,1 °C 4,8 km/h (1 Bft)
05.08.2017 20:50 21,0 °C 21,1 °C 81 % 1012,8 hPa 0,0 mm 3,7 km/h (1 Bft) S-SW 192 ° 0 min 0,000 mm 0,0 UV-I 0 W/m² 17,6 °C 21,0 °C 6,4 km/h (2 Bft)
05.08.2017 20:51 21,0 °C 21,1 °C 82 % 1012,7 hPa 0,0 mm 3,4 km/h (1 Bft) S 190 ° 0 min 0,000 mm 0,0 UV-I 0 W/m² 17,8 °C 21,0 °C 4,8 km/h (1 Bft)
05.08.2017 20:52 20,9 °C 21,0 °C 82 % 1012,6 hPa 0,0 mm 2,3 km/h (1 Bft) S 190 ° 0 min 0,000 mm 0,0 UV-I 0 W/m² 17,7 °C 20,9 °C 3,2 km/h (1 Bft)
05.08.2017 20:53 20,9 °C 21,0 °C 82 % 1012,6 hPa 0,0 mm 2,1 km/h (1 Bft) S 190 ° 0 min 0,000 mm 0,0 UV-I 0 W/m² 17,7 °C 20,9 °C 3,2 km/h (1 Bft)
05.08.2017 20:54 20,8 °C 20,9 °C 82 % 1012,6 hPa 0,0 mm 2,0 km/h (1 Bft) S 190 ° 0 min 0,000 mm 0,0 UV-I 0 W/m² 17,6 °C 20,8 °C 3,2 km/h (1 Bft)
05.08.2017 20:55 20,8 °C 20,8 °C 81 % 1012,6 hPa 0,0 mm 2,1 km/h (1 Bft) S 190 ° 0 min 0,000 mm 0,0 UV-I 0 W/m² 17,4 °C 20,8 °C 3,2 km/h (1 Bft)
05.08.2017 20:56 20,8 °C 20,8 °C 82 % 1012,6 hPa 0,0 mm 1,9 km/h (1 Bft) S 190 ° 0 min 0,000 mm 0,0 UV-I 0 W/m² 17,6 °C 20,8 °C 3,2 km/h (1 Bft)
05.08.2017 20:57 20,8 °C 20,8 °C 82 % 1012,7 hPa 0,0 mm 1,8 km/h (1 Bft) S 190 ° 0 min 0,000 mm 0,0 UV-I 0 W/m² 17,6 °C 20,8 °C 3,2 km/h (1 Bft)
05.08.2017 20:58 20,8 °C 20,8 °C 82 % 1012,7 hPa 0,0 mm 1,0 km/h (0 Bft) S 190 ° 0 min 0,000 mm 0,0 UV-I 0 W/m² 17,6 °C 20,8 °C 3,2 km/h (1 Bft)
05.08.2017 20:59 20,7 °C 20,8 °C 82 % 1012,6 hPa 0,0 mm 2,2 km/h (1 Bft) S 190 ° 0 min 0,000 mm 0,0 UV-I 0 W/m² 17,5 °C 20,7 °C 3,2 km/h (1 Bft)
05.08.2017 21:00 20,7 °C 20,7 °C 82 % 1012,6 hPa 0,0 mm 2,4 km/h (1 Bft) S 190 ° 0 min 0,000 mm 0,0 UV-I 0 W/m² 17,5 °C 20,7 °C 3,2 km/h (1 Bft)
05.08.2017 21:01 20,7 °C 20,7 °C 82 % 1012,7 hPa 0,0 mm 1,0 km/h (0 Bft) S 190 ° 0 min 0,000 mm 0,0 UV-I 0 W/m² 17,5 °C 20,7 °C 1,6 km/h (1 Bft)
05.08.2017 21:02 20,6 °C 20,7 °C 82 % 1012,7 hPa 0,0 mm 1,1 km/h (1 Bft) S 190 ° 0 min 0,000 mm 0,0 UV-I 0 W/m² 17,4 °C 20,6 °C 3,2 km/h (1 Bft)
05.08.2017 21:03 20,5 °C 20,6 °C 83 % 1012,7 hPa 0,0 mm 2,1 km/h (1 Bft) S 190 ° 0 min 0,000 mm 0,0 UV-I 0 W/m² 17,5 °C 20,5 °C 3,2 km/h (1 Bft)
05.08.2017 21:04 20,4 °C 20,5 °C 83 % 1012,7 hPa 0,0 mm 1,5 km/h (1 Bft) S 190 ° 0 min 0,000 mm 0,0 UV-I 0 W/m² 17,4 °C 20,4 °C 3,2 km/h (1 Bft)
05.08.2017 21:05 20,4 °C 20,4 °C 83 % 1012,8 hPa 0,0 mm 2,2 km/h (1 Bft) S 190 ° 0 min 0,000 mm 0,0 UV-I 0 W/m² 17,4 °C 20,4 °C 3,2 km/h (1 Bft)
05.08.2017 21:06 20,4 °C 20,4 °C 83 % 1012,8 hPa 0,0 mm 1,9 km/h (1 Bft) S 190 ° 0 min 0,000 mm 0,0 UV-I 0 W/m² 17,4 °C 20,4 °C 4,8 km/h (1 Bft)
05.08.2017 21:07 20,3 °C 20,4 °C 83 % 1012,9 hPa 0,0 mm 2,5 km/h (1 Bft) S 190 ° 0 min 0,000 mm 0,0 UV-I 0 W/m² 17,3 °C 20,3 °C 4,8 km/h (1 Bft)
05.08.2017 21:08 20,3 °C 20,3 °C 83 % 1013,0 hPa 0,0 mm 3,4 km/h (1 Bft) S 190 ° 0 min 0,000 mm 0,0 UV-I 0 W/m² 17,3 °C 20,3 °C 4,8 km/h (1 Bft)
05.08.2017 21:09 20,3 °C 20,3 °C 84 % 1013,1 hPa 0,0 mm 4,8 km/h (1 Bft) S 190 ° 0 min 0,000 mm 0,0 UV-I 0 W/m² 17,5 °C 20,3 °C 6,4 km/h (2 Bft)
05.08.2017 21:10 20,3 °C 20,3 °C 84 % 1013,1 hPa 0,0 mm 5,1 km/h (1 Bft) S 184 ° 0 min 0,000 mm 0,0 UV-I 0 W/m² 17,5 °C 20,3 °C 8,0 km/h (2 Bft)
05.08.2017 21:11 20,3 °C 20,3 °C 84 % 1013,1 hPa 0,0 mm 5,9 km/h (2 Bft) S 186 ° 0 min 0,000 mm 0,0 UV-I 0 W/m² 17,5 °C 20,3 °C 8,0 km/h (2 Bft)
05.08.2017 21:12 20,2 °C 20,3 °C 84 % 1013,2 hPa 0,0 mm 2,6 km/h (1 Bft) S 186 ° 0 min 0,000 mm 0,0 UV-I 0 W/m² 17,4 °C 20,2 °C 4,8 km/h (1 Bft)
05.08.2017 21:13 20,2 °C 20,3 °C 85 % 1013,2 hPa 0,0 mm 3,2 km/h (1 Bft) S 186 ° 0 min 0,000 mm 0,0 UV-I 0 W/m² 17,6 °C 20,2 °C 4,8 km/h (1 Bft)
05.08.2017 21:14 20,2 °C 20,3 °C 85 % 1013,3 hPa 0,0 mm 3,9 km/h (1 Bft) S 176 ° 0 min 0,000 mm 0,0 UV-I 0 W/m² 17,6 °C 20,2 °C 6,4 km/h (2 Bft)
05.08.2017 21:15 20,3 °C 20,3 °C 84 % 1013,3 hPa 0,0 mm 2,0 km/h (1 Bft) S 176 ° 0 min 0,000 mm 0,0 UV-I 0 W/m² 17,5 °C 20,3 °C 3,2 km/h (1 Bft)
05.08.2017 21:16 20,3 °C 20,3 °C 84 % 1013,4 hPa 0,0 mm 1,5 km/h (1 Bft) S 176 ° 0 min 0,000 mm 0,0 UV-I 0 W/m² 17,5 °C 20,3 °C 3,2 km/h (1 Bft)
05.08.2017 21:17 20,4 °C 20,4 °C 85 % 1013,4 hPa 0,0 mm 2,5 km/h (1 Bft) S 176 ° 0 min 0,000 mm 0,0 UV-I 0 W/m² 17,8 °C 20,4 °C 4,8 km/h (1 Bft)
05.08.2017 21:18 20,4 °C 20,4 °C 84 % 1013,4 hPa 0,0 mm 3,6 km/h (1 Bft) S-SW 196 ° 0 min 0,000 mm 0,0 UV-I 0 W/m² 17,6 °C 20,4 °C 4,8 km/h (1 Bft)
05.08.2017 21:19 20,5 °C 20,5 °C 83 % 1013,4 hPa 0,0 mm 3,8 km/h (1 Bft) S-SW 196 ° 0 min 0,000 mm 0,0 UV-I 0 W/m² 17,5 °C 20,5 °C 4,8 km/h (1 Bft)
05.08.2017 21:20 20,6 °C 20,6 °C 84 % 1013,5 hPa 0,0 mm 3,1 km/h (1 Bft) S-SW 196 ° 0 min 0,000 mm 0,0 UV-I 0 W/m² 17,8 °C 20,6 °C 4,8 km/h (1 Bft)
05.08.2017 21:21 20,7 °C 20,7 °C 83 % 1013,5 hPa 0,0 mm 2,3 km/h (1 Bft) S-SW 196 ° 0 min 0,000 mm 0,0 UV-I 0 W/m² 17,7 °C 20,7 °C 4,8 km/h (1 Bft)
05.08.2017 21:22 20,7 °C 20,7 °C 83 % 1013,5 hPa 0,0 mm 0,8 km/h (0 Bft) S-SW 196 ° 0 min 0,000 mm 0,0 UV-I 0 W/m² 17,7 °C 20,7 °C 1,6 km/h (1 Bft)
05.08.2017 21:23 20,7 °C 20,7 °C 83 % 1013,4 hPa 0,0 mm 2,5 km/h (1 Bft) S 185 ° 0 min 0,000 mm 0,0 UV-I 0 W/m² 17,7 °C 20,7 °C 6,4 km/h (2 Bft)
05.08.2017 21:24 20,7 °C 20,7 °C 83 % 1013,4 hPa 0,0 mm 2,8 km/h (1 Bft) S 185 ° 0 min 0,000 mm 0,0 UV-I 0 W/m² 17,7 °C 20,7 °C 3,2 km/h (1 Bft)
05.08.2017 21:25 20,7 °C 20,7 °C 83 % 1013,4 hPa 0,0 mm 2,0 km/h (1 Bft) S 185 ° 0 min 0,000 mm 0,0 UV-I 0 W/m² 17,7 °C 20,7 °C 3,2 km/h (1 Bft)
05.08.2017 21:26 20,7 °C 20,7 °C 83 % 1013,3 hPa 0,0 mm 1,6 km/h (1 Bft) S 185 ° 0 min 0,000 mm 0,0 UV-I 0 W/m² 17,7 °C 20,7 °C 3,2 km/h (1 Bft)
05.08.2017 21:27 20,7 °C 20,7 °C 83 % 1013,3 hPa 0,0 mm 0,7 km/h (0 Bft) S 185 ° 0 min 0,000 mm 0,0 UV-I 0 W/m² 17,7 °C 20,7 °C 1,6 km/h (1 Bft)
05.08.2017 21:28 20,7 °C 20,7 °C 83 % 1013,3 hPa 0,0 mm 0,0 km/h (0 Bft) S 185 ° 0 min 0,000 mm 0,0 UV-I 0 W/m² 17,7 °C 20,7 °C 0,0 km/h (0 Bft)
05.08.2017 21:29 20,6 °C 20,7 °C 84 % 1013,3 hPa 0,0 mm 0,0 km/h (0 Bft) S 185 ° 0 min 0,000 mm 0,0 UV-I 0 W/m² 17,8 °C 20,6 °C 0,0 km/h (0 Bft)
05.08.2017 21:30 20,6 °C 20,6 °C 84 % 1013,3 hPa 0,0 mm 0,0 km/h (0 Bft) S 185 ° 0 min 0,000 mm 0,0 UV-I 0 W/m² 17,8 °C 20,6 °C 0,0 km/h (0 Bft)
05.08.2017 21:31 20,6 °C 20,6 °C 84 % 1013,3 hPa 0,0 mm 0,8 km/h (0 Bft) S 185 ° 0 min 0,000 mm 0,0 UV-I 0 W/m² 17,8 °C 20,6 °C 1,6 km/h (1 Bft)
05.08.2017 21:32 20,6 °C 20,6 °C 84 % 1013,3 hPa 0,0 mm 0,1 km/h (0 Bft) S 185 ° 0 min 0,000 mm 0,0 UV-I 0 W/m² 17,8 °C 20,6 °C 1,6 km/h (1 Bft)
05.08.2017 21:33 20,6 °C 20,6 °C 84 % 1013,3 hPa 0,0 mm 1,3 km/h (1 Bft) S 186 ° 0 min 0,000 mm 0,0 UV-I 0 W/m² 17,8 °C 20,6 °C 3,2 km/h (1 Bft)
05.08.2017 21:34 20,6 °C 20,6 °C 83 % 1013,3 hPa 0,0 mm 1,8 km/h (1 Bft) S 186 ° 0 min 0,000 mm 0,0 UV-I 0 W/m² 17,6 °C 20,6 °C 3,2 km/h (1 Bft)
05.08.2017 21:35 20,6 °C 20,6 °C 84 % 1013,4 hPa 0,0 mm 2,6 km/h (1 Bft) S 186 ° 0 min 0,000 mm 0,0 UV-I 0 W/m² 17,8 °C 20,6 °C 4,8 km/h (1 Bft)
05.08.2017 21:36 20,6 °C 20,6 °C 84 % 1013,3 hPa 0,0 mm 1,2 km/h (1 Bft) S 186 ° 0 min 0,000 mm 0,0 UV-I 0 W/m² 17,8 °C 20,6 °C 3,2 km/h (1 Bft)
05.08.2017 21:37 20,6 °C 20,6 °C 84 % 1013,2 hPa 0,0 mm 0,9 km/h (0 Bft) S 186 ° 0 min 0,000 mm 0,0 UV-I 0 W/m² 17,8 °C 20,6 °C 3,2 km/h (1 Bft)
05.08.2017 21:38 20,6 °C 20,6 °C 84 % 1013,2 hPa 0,0 mm 2,6 km/h (1 Bft) S 186 ° 0 min 0,000 mm 0,0 UV-I 0 W/m² 17,8 °C 20,6 °C 4,8 km/h (1 Bft)
05.08.2017 21:39 20,6 °C 20,6 °C 83 % 1013,2 hPa 0,0 mm 2,4 km/h (1 Bft) S 185 ° 0 min 0,000 mm 0,0 UV-I 0 W/m² 17,6 °C 20,6 °C 4,8 km/h (1 Bft)
05.08.2017 21:40 20,7 °C 20,7 °C 82 % 1013,2 hPa 0,0 mm 1,9 km/h (1 Bft) S-SW 202 ° 0 min 0,000 mm 0,0 UV-I 0 W/m² 17,5 °C 20,7 °C 3,2 km/h (1 Bft)
05.08.2017 21:41 20,7 °C 20,7 °C 83 % 1013,2 hPa 0,0 mm 3,0 km/h (1 Bft) S 188 ° 0 min 0,000 mm 0,0 UV-I 0 W/m² 17,7 °C 20,7 °C 4,8 km/h (1 Bft)
05.08.2017 21:42 20,7 °C 20,8 °C 83 % 1013,2 hPa 0,0 mm 0,5 km/h (0 Bft) S 188 ° 0 min 0,000 mm 0,0 UV-I 0 W/m² 17,7 °C 20,7 °C 1,6 km/h (1 Bft)
05.08.2017 21:44 20,7 °C 20,7 °C 83 % 1013,2 hPa 0,0 mm 0,9 km/h (0 Bft) S-SW 212 ° 0 min 0,000 mm 0,0 UV-I 0 W/m² 17,7 °C 20,7 °C 3,2 km/h (1 Bft)
05.08.2017 21:45 20,6 °C 20,7 °C 83 % 1013,2 hPa 0,0 mm 1,8 km/h (1 Bft) S-SW 211 ° 0 min 0,000 mm 0,0 UV-I 0 W/m² 17,6 °C 20,6 °C 3,2 km/h (1 Bft)
05.08.2017 21:46 20,6 °C 20,6 °C 84 % 1013,2 hPa 0,0 mm 1,3 km/h (1 Bft) S-SW 211 ° 0 min 0,000 mm 0,0 UV-I 0 W/m² 17,8 °C 20,6 °C 3,2 km/h (1 Bft)
05.08.2017 21:47 20,5 °C 20,6 °C 83 % 1013,2 hPa 0,0 mm 0,1 km/h (0 Bft) S-SW 211 ° 0 min 0,000 mm 0,0 UV-I 0 W/m² 17,5 °C 20,5 °C 1,6 km/h (1 Bft)
05.08.2017 21:48 20,4 °C 20,5 °C 84 % 1013,3 hPa 0,0 mm 1,2 km/h (1 Bft) S-SW 211 ° 0 min 0,000 mm 0,0 UV-I 0 W/m² 17,6 °C 20,4 °C 3,2 km/h (1 Bft)
05.08.2017 21:49 20,4 °C 20,4 °C 84 % 1013,3 hPa 0,0 mm 0,2 km/h (0 Bft) S-SW 211 ° 0 min 0,000 mm 0,0 UV-I 0 W/m² 17,6 °C 20,4 °C 1,6 km/h (1 Bft)
05.08.2017 21:50 20,3 °C 20,4 °C 84 % 1013,3 hPa 0,0 mm 0,5 km/h (0 Bft) S-SW 211 ° 0 min 0,000 mm 0,0 UV-I 0 W/m² 17,5 °C 20,3 °C 3,2 km/h (1 Bft)
05.08.2017 21:51 20,3 °C 20,3 °C 84 % 1013,3 hPa 0,0 mm 0,6 km/h (0 Bft) S-SW 211 ° 0 min 0,000 mm 0,0 UV-I 0 W/m² 17,5 °C 20,3 °C 3,2 km/h (1 Bft)
05.08.2017 21:52 20,3 °C 20,3 °C 84 % 1013,3 hPa 0,0 mm 0,1 km/h (0 Bft) S-SW 211 ° 0 min 0,000 mm 0,0 UV-I 0 W/m² 17,5 °C 20,3 °C 1,6 km/h (1 Bft)
05.08.2017 21:53 20,3 °C 20,3 °C 84 % 1013,3 hPa 0,0 mm 1,1 km/h (1 Bft) S-SW 211 ° 0 min 0,000 mm 0,0 UV-I 0 W/m² 17,5 °C 20,3 °C 3,2 km/h (1 Bft)
05.08.2017 21:54 20,3 °C 20,3 °C 84 % 1013,3 hPa 0,0 mm 2,0 km/h (1 Bft) S-SW 211 ° 0 min 0,000 mm 0,0 UV-I 0 W/m² 17,5 °C 20,3 °C 3,2 km/h (1 Bft)
05.08.2017 21:55 20,3 °C 20,3 °C 84 % 1013,4 hPa 0,0 mm 0,4 km/h (0 Bft) S-SW 211 ° 0 min 0,000 mm 0,0 UV-I 0 W/m² 17,5 °C 20,3 °C 1,6 km/h (1 Bft)
05.08.2017 21:56 20,3 °C 20,3 °C 85 % 1013,4 hPa 0,0 mm 0,0 km/h (0 Bft) S-SW 211 ° 0 min 0,000 mm 0,0 UV-I 0 W/m² 17,7 °C 20,3 °C 0,0 km/h (0 Bft)
05.08.2017 21:57 20,2 °C 20,3 °C 85 % 1013,4 hPa 0,0 mm 0,0 km/h (0 Bft) S-SW 211 ° 0 min 0,000 mm 0,0 UV-I 0 W/m² 17,6 °C 20,2 °C 0,0 km/h (0 Bft)
05.08.2017 21:58 20,2 °C 20,2 °C 85 % 1013,5 hPa 0,0 mm 0,0 km/h (0 Bft) S-SW 211 ° 0 min 0,000 mm 0,0 UV-I 0 W/m² 17,6 °C 20,2 °C 0,0 km/h (0 Bft)
05.08.2017 21:59 20,1 °C 20,2 °C 86 % 1013,5 hPa 0,0 mm 0,0 km/h (0 Bft) S-SW 211 ° 0 min 0,000 mm 0,0 UV-I 0 W/m² 17,7 °C 20,1 °C 0,0 km/h (0 Bft)
05.08.2017 22:00 20,1 °C 20,1 °C 86 % 1013,6 hPa 0,0 mm 0,1 km/h (0 Bft) S-SW 211 ° 0 min 0,025 mm 0,0 UV-I 0 W/m² 17,7 °C 20,1 °C 1,6 km/h (1 Bft)
05.08.2017 22:01 20,1 °C 20,1 °C 86 % 1013,6 hPa 0,0 mm 0,4 km/h (0 Bft) S-SW 211 ° 0 min 0,000 mm 0,0 UV-I 0 W/m² 17,7 °C 20,1 °C 3,2 km/h (1 Bft)
05.08.2017 22:02 20,2 °C 20,2 °C 84 % 1013,7 hPa 0,0 mm 0,0 km/h (0 Bft) S-SW 211 ° 0 min 0,000 mm 0,0 UV-I 0 W/m² 17,4 °C 20,2 °C 0,0 km/h (0 Bft)
05.08.2017 22:03 20,3 °C 20,3 °C 84 % 1013,7 hPa 0,0 mm 2,7 km/h (1 Bft) S-SW 195 ° 0 min 0,000 mm 0,0 UV-I 0 W/m² 17,5 °C 20,3 °C 4,8 km/h (1 Bft)
05.08.2017 22:04 20,4 °C 20,4 °C 84 % 1013,7 hPa 0,0 mm 3,8 km/h (1 Bft) S-SW 195 ° 0 min 0,000 mm 0,0 UV-I 0 W/m² 17,6 °C 20,4 °C 6,4 km/h (2 Bft)
05.08.2017 22:05 20,4 °C 20,4 °C 84 % 1013,7 hPa 0,0 mm 2,9 km/h (1 Bft) S-SW 196 ° 0 min 0,000 mm 0,0 UV-I 0 W/m² 17,6 °C 20,4 °C 6,4 km/h (2 Bft)
05.08.2017 22:06 20,5 °C 20,5 °C 84 % 1013,7 hPa 0,0 mm 2,4 km/h (1 Bft) S-SW 199 ° 0 min 0,000 mm 0,0 UV-I 0 W/m² 17,7 °C 20,5 °C 6,4 km/h (2 Bft)
05.08.2017 22:07 20,6 °C 20,6 °C 83 % 1013,8 hPa 0,0 mm 2,1 km/h (1 Bft) S-SW 199 ° 0 min 0,000 mm 0,0 UV-I 0 W/m² 17,6 °C 20,6 °C 4,8 km/h (1 Bft)
05.08.2017 22:08 20,6 °C 20,6 °C 84 % 1013,8 hPa 0,0 mm 1,4 km/h (1 Bft) S-SW 199 ° 0 min 0,000 mm 0,0 UV-I 0 W/m² 17,8 °C 20,6 °C 3,2 km/h (1 Bft)
05.08.2017 22:09 20,6 °C 20,6 °C 84 % 1013,8 hPa 0,0 mm 0,3 km/h (0 Bft) S-SW 199 ° 0 min 0,000 mm 0,0 UV-I 0 W/m² 17,8 °C 20,6 °C 1,6 km/h (1 Bft)
05.08.2017 22:10 20,6 °C 20,6 °C 84 % 1013,8 hPa 0,0 mm 3,2 km/h (1 Bft) S-SO 168 ° 0 min 0,000 mm 0,0 UV-I 0 W/m² 17,8 °C 20,6 °C 6,4 km/h (2 Bft)
05.08.2017 22:11 20,7 °C 20,7 °C 83 % 1013,9 hPa 0,0 mm 4,0 km/h (1 Bft) S-SW 198 ° 0 min 0,000 mm 0,0 UV-I 0 W/m² 17,7 °C 20,7 °C 8,0 km/h (2 Bft)
05.08.2017 22:12 20,7 °C 20,7 °C 83 % 1013,8 hPa 0,0 mm 2,7 km/h (1 Bft) S-SW 198 ° 0 min 0,000 mm 0,0 UV-I 0 W/m² 17,7 °C 20,7 °C 4,8 km/h (1 Bft)
05.08.2017 22:13 20,7 °C 20,7 °C 84 % 1013,8 hPa 0,0 mm 2,8 km/h (1 Bft) S-SW 199 ° 0 min 0,000 mm 0,0 UV-I 0 W/m² 17,9 °C 20,7 °C 4,8 km/h (1 Bft)
05.08.2017 22:14 20,7 °C 20,7 °C 83 % 1013,8 hPa 0,0 mm 0,3 km/h (0 Bft) W-SW 242 ° 0 min 0,000 mm 0,0 UV-I 0 W/m² 17,7 °C 20,7 °C 1,6 km/h (1 Bft)
05.08.2017 22:15 20,7 °C 20,7 °C 83 % 1013,9 hPa 0,0 mm 1,7 km/h (1 Bft) W-SW 242 ° 0 min 0,000 mm 0,0 UV-I 0 W/m² 17,7 °C 20,7 °C 3,2 km/h (1 Bft)
05.08.2017 22:16 20,7 °C 20,7 °C 83 % 1013,9 hPa 0,0 mm 2,2 km/h (1 Bft) S-SW 192 ° 0 min 0,000 mm 0,0 UV-I 0 W/m² 17,7 °C 20,7 °C 4,8 km/h (1 Bft)
05.08.2017 22:17 20,7 °C 20,7 °C 83 % 1014,0 hPa 0,0 mm 1,8 km/h (1 Bft) W-SW 254 ° 0 min 0,000 mm 0,0 UV-I 0 W/m² 17,7 °C 20,7 °C 4,8 km/h (1 Bft)
05.08.2017 22:18 20,7 °C 20,7 °C 84 % 1014,1 hPa 0,0 mm 3,6 km/h (1 Bft) NW 314 ° 0 min 0,000 mm 0,0 UV-I 0 W/m² 17,9 °C 20,7 °C 6,4 km/h (2 Bft)
05.08.2017 22:19 20,7 °C 20,7 °C 84 % 1014,0 hPa 0,0 mm 6,4 km/h (2 Bft) W-NW 296 ° 0 min 0,000 mm 0,0 UV-I 0 W/m² 17,9 °C 20,7 °C 8,0 km/h (2 Bft)
05.08.2017 22:20 20,7 °C 20,7 °C 84 % 1014,1 hPa 0,0 mm 2,7 km/h (1 Bft) NW 309 ° 0 min 0,000 mm 0,0 UV-I 0 W/m² 17,9 °C 20,7 °C 4,8 km/h (1 Bft)
05.08.2017 22:21 20,6 °C 20,7 °C 84 % 1014,1 hPa 0,0 mm 1,5 km/h (1 Bft) NW 309 ° 0 min 0,000 mm 0,0 UV-I 0 W/m² 17,8 °C 20,6 °C 3,2 km/h (1 Bft)
05.08.2017 22:22 20,6 °C 20,6 °C 84 % 1014,2 hPa 0,0 mm 3,8 km/h (1 Bft) N-NW 340 ° 0 min 0,000 mm 0,0 UV-I 0 W/m² 17,8 °C 20,6 °C 6,4 km/h (2 Bft)
05.08.2017 22:23 20,5 °C 20,6 °C 84 % 1014,2 hPa 0,0 mm 5,2 km/h (1 Bft) N-NW 332 ° 0 min 0,000 mm 0,0 UV-I 0 W/m² 17,7 °C 20,5 °C 8,0 km/h (2 Bft)
05.08.2017 22:24 20,5 °C 20,5 °C 84 % 1014,2 hPa 0,0 mm 5,2 km/h (1 Bft) N-NW 332 ° 0 min 0,000 mm 0,0 UV-I 0 W/m² 17,7 °C 20,5 °C 8,0 km/h (2 Bft)
05.08.2017 22:25 20,5 °C 20,5 °C 84 % 1014,3 hPa 0,0 mm 7,8 km/h (2 Bft) NW 313 ° 0 min 0,000 mm 0,0 UV-I 0 W/m² 17,7 °C 20,5 °C 14,5 km/h (3 Bft)
05.08.2017 22:26 20,4 °C 20,5 °C 84 % 1014,3 hPa 0,0 mm 7,9 km/h (2 Bft) W 276 ° 0 min 0,000 mm 0,0 UV-I 0 W/m² 17,6 °C 20,4 °C 16,1 km/h (3 Bft)
05.08.2017 22:27 20,4 °C 20,5 °C 84 % 1014,3 hPa 0,0 mm 10,8 km/h (2 Bft) W-NW 291 ° 0 min 0,000 mm 0,0 UV-I 0 W/m² 17,6 °C 20,4 °C 16,1 km/h (3 Bft)
05.08.2017 22:28 20,5 °C 20,5 °C 84 % 1014,3 hPa 0,0 mm 8,8 km/h (2 Bft) W-SW 254 ° 0 min 0,000 mm 0,0 UV-I 0 W/m² 17,7 °C 20,5 °C 16,1 km/h (3 Bft)
05.08.2017 22:29 20,5 °C 20,5 °C 84 % 1014,4 hPa 0,0 mm 13,5 km/h (3 Bft) W-NW 290 ° 0 min 0,000 mm 0,0 UV-I 0 W/m² 17,7 °C 20,5 °C 20,9 km/h (4 Bft)
05.08.2017 22:30 20,5 °C 20,5 °C 83 % 1014,4 hPa 0,0 mm 9,2 km/h (2 Bft) W-NW 288 ° 0 min 0,000 mm 0,0 UV-I 0 W/m² 17,5 °C 20,5 °C 12,9 km/h (3 Bft)
05.08.2017 22:31 20,5 °C 20,5 °C 83 % 1014,3 hPa 0,0 mm 6,6 km/h (2 Bft) W-NW 291 ° 0 min 0,000 mm 0,0 UV-I 0 W/m² 17,5 °C 20,5 °C 11,3 km/h (2 Bft)
05.08.2017 22:32 20,5 °C 20,5 °C 83 % 1014,3 hPa 0,0 mm 7,9 km/h (2 Bft) W-NW 282 ° 0 min 0,000 mm 0,0 UV-I 0 W/m² 17,5 °C 20,5 °C 11,3 km/h (2 Bft)
05.08.2017 22:34 20,4 °C 20,5 °C 83 % 1014,3 hPa 0,0 mm 2,7 km/h (1 Bft) NW 314 ° 0 min 0,000 mm 0,0 UV-I 0 W/m² 17,4 °C 20,4 °C 4,8 km/h (1 Bft)
05.08.2017 22:35 20,4 °C 20,5 °C 83 % 1014,3 hPa 0,0 mm 3,2 km/h (1 Bft) W-NW 282 ° 0 min 0,000 mm 0,0 UV-I 0 W/m² 17,4 °C 20,4 °C 6,4 km/h (2 Bft)
05.08.2017 22:36 20,4 °C 20,4 °C 83 % 1014,4 hPa 0,0 mm 6,6 km/h (2 Bft) W 261 ° 0 min 0,000 mm 0,0 UV-I 0 W/m² 17,4 °C 20,4 °C 11,3 km/h (2 Bft)
05.08.2017 22:37 20,4 °C 20,4 °C 84 % 1014,4 hPa 0,0 mm 11,3 km/h (2 Bft) W-NW 292 ° 0 min 0,000 mm 0,0 UV-I 0 W/m² 17,6 °C 20,4 °C 14,5 km/h (3 Bft)
05.08.2017 22:38 20,4 °C 20,4 °C 84 % 1014,4 hPa 0,0 mm 6,6 km/h (2 Bft) W-NW 288 ° 0 min 0,000 mm 0,0 UV-I 0 W/m² 17,6 °C 20,4 °C 11,3 km/h (2 Bft)
05.08.2017 22:39 20,4 °C 20,4 °C 84 % 1014,4 hPa 0,0 mm 6,0 km/h (2 Bft) W 261 ° 0 min 0,000 mm 0,0 UV-I 0 W/m² 17,6 °C 20,4 °C 11,3 km/h (2 Bft)
05.08.2017 22:40 20,3 °C 20,4 °C 84 % 1014,4 hPa 0,0 mm 3,6 km/h (1 Bft) W 271 ° 0 min 0,000 mm 0,0 UV-I 0 W/m² 17,5 °C 20,3 °C 6,4 km/h (2 Bft)
05.08.2017 22:41 20,3 °C 20,4 °C 84 % 1014,4 hPa 0,0 mm 2,5 km/h (1 Bft) W 277 ° 0 min 0,000 mm 0,0 UV-I 0 W/m² 17,5 °C 20,3 °C 4,8 km/h (1 Bft)
05.08.2017 22:42 20,3 °C 20,3 °C 84 % 1014,2 hPa 0,0 mm 3,0 km/h (1 Bft) W-SW 255 ° 0 min 0,000 mm 0,0 UV-I 0 W/m² 17,5 °C 20,3 °C 6,4 km/h (2 Bft)
05.08.2017 22:43 20,3 °C 20,3 °C 85 % 1014,3 hPa 0,0 mm 4,9 km/h (1 Bft) W 270 ° 0 min 0,000 mm 0,0 UV-I 0 W/m² 17,7 °C 20,3 °C 6,4 km/h (2 Bft)
05.08.2017 22:44 20,2 °C 20,3 °C 85 % 1014,3 hPa 0,0 mm 0,9 km/h (0 Bft) W-SW 250 ° 0 min 0,000 mm 0,0 UV-I 0 W/m² 17,6 °C 20,2 °C 3,2 km/h (1 Bft)
05.08.2017 22:45 20,2 °C 20,2 °C 85 % 1014,3 hPa 0,0 mm 0,7 km/h (0 Bft) W-SW 250 ° 0 min 0,000 mm 0,0 UV-I 0 W/m² 17,6 °C 20,2 °C 3,2 km/h (1 Bft)
05.08.2017 22:46 20,1 °C 20,2 °C 85 % 1014,4 hPa 0,0 mm 3,5 km/h (1 Bft) W-SW 254 ° 0 min 0,000 mm 0,0 UV-I 0 W/m² 17,5 °C 20,1 °C 6,4 km/h (2 Bft)
05.08.2017 22:47 20,1 °C 20,1 °C 86 % 1014,4 hPa 0,0 mm 4,0 km/h (1 Bft) W-NW 300 ° 0 min 0,000 mm 0,0 UV-I 0 W/m² 17,7 °C 20,1 °C 6,4 km/h (2 Bft)
05.08.2017 22:48 20,0 °C 20,1 °C 86 % 1014,4 hPa 0,0 mm 3,3 km/h (1 Bft) W-NW 300 ° 0 min 0,000 mm 0,0 UV-I 0 W/m² 17,6 °C 20,0 °C 4,8 km/h (1 Bft)
05.08.2017 22:49 19,9 °C 20,0 °C 87 % 1014,4 hPa 0,0 mm 1,7 km/h (1 Bft) W-NW 284 ° 0 min 0,000 mm 0,0 UV-I 0 W/m² 17,7 °C 19,9 °C 3,2 km/h (1 Bft)
05.08.2017 22:50 19,9 °C 19,9 °C 87 % 1014,4 hPa 0,0 mm 1,3 km/h (1 Bft) W-NW 284 ° 0 min 0,000 mm 0,0 UV-I 0 W/m² 17,7 °C 19,9 °C 3,2 km/h (1 Bft)
05.08.2017 22:51 19,9 °C 19,9 °C 87 % 1014,4 hPa 0,0 mm 1,3 km/h (1 Bft) W-NW 284 ° 0 min 0,000 mm 0,0 UV-I 0 W/m² 17,7 °C 19,9 °C 3,2 km/h (1 Bft)
05.08.2017 22:52 19,9 °C 19,9 °C 87 % 1014,4 hPa 0,0 mm 3,0 km/h (1 Bft) W-NW 302 ° 0 min 0,000 mm 0,0 UV-I 0 W/m² 17,7 °C 19,9 °C 4,8 km/h (1 Bft)
05.08.2017 22:53 19,9 °C 19,9 °C 87 % 1014,5 hPa 0,0 mm 1,5 km/h (1 Bft) W-NW 302 ° 0 min 0,000 mm 0,0 UV-I 0 W/m² 17,7 °C 19,9 °C 3,2 km/h (1 Bft)
05.08.2017 22:54 19,8 °C 19,9 °C 87 % 1014,5 hPa 0,0 mm 0,9 km/h (0 Bft) W-NW 302 ° 0 min 0,000 mm 0,0 UV-I 0 W/m² 17,6 °C 19,8 °C 3,2 km/h (1 Bft)
05.08.2017 22:55 19,7 °C 19,8 °C 88 % 1014,5 hPa 0,0 mm 0,0 km/h (0 Bft) W-NW 302 ° 0 min 0,000 mm 0,0 UV-I 0 W/m² 17,7 °C 19,7 °C 0,0 km/h (0 Bft)
05.08.2017 22:56 19,7 °C 19,7 °C 88 % 1014,5 hPa 0,0 mm 1,0 km/h (0 Bft) W-NW 302 ° 0 min 0,000 mm 0,0 UV-I 0 W/m² 17,7 °C 19,7 °C 1,6 km/h (1 Bft)
05.08.2017 22:57 19,6 °C 19,7 °C 88 % 1014,5 hPa 0,0 mm 1,9 km/h (1 Bft) W 275 ° 0 min 0,000 mm 0,0 UV-I 0 W/m² 17,6 °C 19,6 °C 3,2 km/h (1 Bft)
05.08.2017 22:58 19,6 °C 19,6 °C 88 % 1014,4 hPa 0,0 mm 1,5 km/h (1 Bft) W 277 ° 0 min 0,000 mm 0,0 UV-I 0 W/m² 17,6 °C 19,6 °C 3,2 km/h (1 Bft)
05.08.2017 22:59 19,6 °C 19,6 °C 88 % 1014,4 hPa 0,0 mm 0,1 km/h (0 Bft) W 277 ° 0 min 0,000 mm 0,0 UV-I 0 W/m² 17,6 °C 19,6 °C 1,6 km/h (1 Bft)
05.08.2017 23:00 19,6 °C 19,6 °C 88 % 1014,4 hPa 0,0 mm 1,8 km/h (1 Bft) W 277 ° 0 min 0,000 mm 0,0 UV-I 0 W/m² 17,6 °C 19,6 °C 3,2 km/h (1 Bft)
05.08.2017 23:01 19,6 °C 19,6 °C 88 % 1014,4 hPa 0,0 mm 0,5 km/h (0 Bft) W 277 ° 0 min 0,026 mm 0,0 UV-I 0 W/m² 17,6 °C 19,6 °C 1,6 km/h (1 Bft)
05.08.2017 23:02 19,6 °C 19,6 °C 88 % 1014,5 hPa 0,0 mm 0,0 km/h (0 Bft) W 277 ° 0 min 0,000 mm 0,0 UV-I 0 W/m² 17,6 °C 19,6 °C 0,0 km/h (0 Bft)
05.08.2017 23:03 19,6 °C 19,6 °C 88 % 1014,4 hPa 0,0 mm 0,0 km/h (0 Bft) W 277 ° 0 min 0,000 mm 0,0 UV-I 0 W/m² 17,6 °C 19,6 °C 0,0 km/h (0 Bft)
05.08.2017 23:04 19,5 °C 19,6 °C 88 % 1014,5 hPa 0,0 mm 0,0 km/h (0 Bft) W 277 ° 0 min 0,000 mm 0,0 UV-I 0 W/m² 17,5 °C 19,5 °C 0,0 km/h (0 Bft)
05.08.2017 23:05 19,4 °C 19,5 °C 88 % 1014,5 hPa 0,0 mm 0,7 km/h (0 Bft) W 277 ° 0 min 0,000 mm 0,0 UV-I 0 W/m² 17,4 °C 19,4 °C 1,6 km/h (1 Bft)
05.08.2017 23:06 19,5 °C 19,5 °C 88 % 1014,5 hPa 0,0 mm 0,0 km/h (0 Bft) W 277 ° 0 min 0,000 mm 0,0 UV-I 0 W/m² 17,5 °C 19,5 °C 0,0 km/h (0 Bft)
05.08.2017 23:07 19,4 °C 19,5 °C 88 % 1014,5 hPa 0,0 mm 0,0 km/h (0 Bft) W 277 ° 0 min 0,000 mm 0,0 UV-I 0 W/m² 17,4 °C 19,4 °C 0,0 km/h (0 Bft)
05.08.2017 23:08 19,4 °C 19,4 °C 89 % 1014,5 hPa 0,0 mm 0,0 km/h (0 Bft) W 277 ° 0 min 0,000 mm 0,0 UV-I 0 W/m² 17,5 °C 19,4 °C 0,0 km/h (0 Bft)
05.08.2017 23:09 19,4 °C 19,4 °C 89 % 1014,5 hPa 0,0 mm 0,0 km/h (0 Bft) W 277 ° 0 min 0,000 mm 0,0 UV-I 0 W/m² 17,5 °C 19,4 °C 0,0 km/h (0 Bft)
05.08.2017 23:10 19,3 °C 19,4 °C 89 % 1014,5 hPa 0,0 mm 0,0 km/h (0 Bft) W 277 ° 0 min 0,000 mm 0,0 UV-I 0 W/m² 17,4 °C 19,3 °C 0,0 km/h (0 Bft)
05.08.2017 23:11 19,3 °C 19,3 °C 90 % 1014,5 hPa 0,0 mm 0,0 km/h (0 Bft) W 277 ° 0 min 0,000 mm 0,0 UV-I 0 W/m² 17,6 °C 19,3 °C 0,0 km/h (0 Bft)
05.08.2017 23:12 19,2 °C 19,3 °C 90 % 1014,6 hPa 0,0 mm 0,0 km/h (0 Bft) W 277 ° 0 min 0,000 mm 0,0 UV-I 0 W/m² 17,5 °C 19,2 °C 0,0 km/h (0 Bft)
05.08.2017 23:13 19,2 °C 19,2 °C 90 % 1014,6 hPa 0,0 mm 0,0 km/h (0 Bft) W 277 ° 0 min 0,000 mm 0,0 UV-I 0 W/m² 17,5 °C 19,2 °C 0,0 km/h (0 Bft)
05.08.2017 23:14 19,1 °C 19,2 °C 90 % 1014,6 hPa 0,0 mm 0,0 km/h (0 Bft) W 277 ° 0 min 0,000 mm 0,0 UV-I 0 W/m² 17,4 °C 19,1 °C 0,0 km/h (0 Bft)
05.08.2017 23:15 19,1 °C 19,1 °C 90 % 1014,6 hPa 0,0 mm 0,0 km/h (0 Bft) W 277 ° 0 min 0,000 mm 0,0 UV-I 0 W/m² 17,4 °C 19,1 °C 0,0 km/h (0 Bft)
05.08.2017 23:16 19,0 °C 19,1 °C 91 % 1014,6 hPa 0,0 mm 0,0 km/h (0 Bft) W 277 ° 0 min 0,000 mm 0,0 UV-I 0 W/m² 17,5 °C 19,0 °C 0,0 km/h (0 Bft)
05.08.2017 23:17 18,9 °C 19,0 °C 91 % 1014,7 hPa 0,0 mm 0,0 km/h (0 Bft) W 277 ° 0 min 0,000 mm 0,0 UV-I 0 W/m² 17,4 °C 18,9 °C 0,0 km/h (0 Bft)
05.08.2017 23:18 18,9 °C 18,9 °C 91 % 1014,6 hPa 0,0 mm 0,0 km/h (0 Bft) W 277 ° 0 min 0,000 mm 0,0 UV-I 0 W/m² 17,4 °C 18,9 °C 0,0 km/h (0 Bft)
05.08.2017 23:19 18,9 °C 18,9 °C 91 % 1014,7 hPa 0,0 mm 0,0 km/h (0 Bft) W 277 ° 0 min 0,000 mm 0,0 UV-I 0 W/m² 17,4 °C 18,9 °C 0,0 km/h (0 Bft)
05.08.2017 23:20 18,9 °C 18,9 °C 91 % 1014,6 hPa 0,0 mm 0,0 km/h (0 Bft) W 277 ° 0 min 0,000 mm 0,0 UV-I 0 W/m² 17,4 °C 18,9 °C 0,0 km/h (0 Bft)
05.08.2017 23:21 18,9 °C 18,9 °C 91 % 1014,6 hPa 0,0 mm 0,0 km/h (0 Bft) W 277 ° 0 min 0,000 mm 0,0 UV-I 0 W/m² 17,4 °C 18,9 °C 0,0 km/h (0 Bft)
05.08.2017 23:22 18,9 °C 18,9 °C 91 % 1014,7 hPa 0,0 mm 0,0 km/h (0 Bft) W 277 ° 0 min 0,000 mm 0,0 UV-I 0 W/m² 17,4 °C 18,9 °C 0,0 km/h (0 Bft)
05.08.2017 23:23 18,9 °C 18,9 °C 91 % 1014,7 hPa 0,0 mm 0,0 km/h (0 Bft) W 277 ° 0 min 0,000 mm 0,0 UV-I 0 W/m² 17,4 °C 18,9 °C 0,0 km/h (0 Bft)
05.08.2017 23:24 18,9 °C 18,9 °C 91 % 1014,7 hPa 0,0 mm 0,0 km/h (0 Bft) W 277 ° 0 min 0,000 mm 0,0 UV-I 0 W/m² 17,4 °C 18,9 °C 0,0 km/h (0 Bft)
05.08.2017 23:25 18,9 °C 18,9 °C 91 % 1014,7 hPa 0,0 mm 0,0 km/h (0 Bft) W 277 ° 0 min 0,000 mm 0,0 UV-I 0 W/m² 17,4 °C 18,9 °C 0,0 km/h (0 Bft)
05.08.2017 23:26 18,8 °C 18,9 °C 91 % 1014,7 hPa 0,0 mm 0,0 km/h (0 Bft) W 277 ° 0 min 0,000 mm 0,0 UV-I 0 W/m² 17,3 °C 18,8 °C 0,0 km/h (0 Bft)
05.08.2017 23:27 18,8 °C 18,8 °C 92 % 1014,7 hPa 0,0 mm 0,0 km/h (0 Bft) W 277 ° 0 min 0,000 mm 0,0 UV-I 0 W/m² 17,5 °C 18,8 °C 0,0 km/h (0 Bft)
05.08.2017 23:28 18,8 °C 18,8 °C 91 % 1014,6 hPa 0,0 mm 0,0 km/h (0 Bft) W 277 ° 0 min 0,000 mm 0,0 UV-I 0 W/m² 17,3 °C 18,8 °C 0,0 km/h (0 Bft)
05.08.2017 23:29 18,8 °C 18,8 °C 92 % 1014,7 hPa 0,0 mm 0,0 km/h (0 Bft) W 277 ° 0 min 0,000 mm 0,0 UV-I 0 W/m² 17,5 °C 18,8 °C 0,0 km/h (0 Bft)
05.08.2017 23:30 18,8 °C 18,8 °C 92 % 1014,7 hPa 0,0 mm 0,0 km/h (0 Bft) W 277 ° 0 min 0,000 mm 0,0 UV-I 0 W/m² 17,5 °C 18,8 °C 0,0 km/h (0 Bft)
05.08.2017 23:31 18,8 °C 18,8 °C 92 % 1014,6 hPa 0,0 mm 0,0 km/h (0 Bft) W 277 ° 0 min 0,000 mm 0,0 UV-I 0 W/m² 17,5 °C 18,8 °C 0,0 km/h (0 Bft)
05.08.2017 23:32 18,8 °C 18,8 °C 92 % 1014,6 hPa 0,0 mm 0,0 km/h (0 Bft) W 277 ° 0 min 0,000 mm 0,0 UV-I 0 W/m² 17,5 °C 18,8 °C 0,0 km/h (0 Bft)
05.08.2017 23:33 18,8 °C 18,8 °C 92 % 1014,6 hPa 0,0 mm 1,7 km/h (1 Bft) N 360 ° 0 min 0,000 mm 0,0 UV-I 0 W/m² 17,5 °C 18,8 °C 4,8 km/h (1 Bft)
05.08.2017 23:34 18,8 °C 18,8 °C 92 % 1014,7 hPa 0,0 mm 3,0 km/h (1 Bft) N 360 ° 0 min 0,000 mm 0,0 UV-I 0 W/m² 17,5 °C 18,8 °C 4,8 km/h (1 Bft)
05.08.2017 23:35 18,8 °C 18,8 °C 92 % 1014,7 hPa 0,0 mm 5,4 km/h (1 Bft) N 360 ° 0 min 0,000 mm 0,0 UV-I 0 W/m² 17,5 °C 18,8 °C 8,0 km/h (2 Bft)
05.08.2017 23:36 18,8 °C 18,8 °C 91 % 1014,7 hPa 0,0 mm 4,5 km/h (1 Bft) N-NO 17 ° 0 min 0,000 mm 0,0 UV-I 0 W/m² 17,3 °C 18,8 °C 6,4 km/h (2 Bft)
05.08.2017 23:37 18,9 °C 18,9 °C 91 % 1014,7 hPa 0,0 mm 3,8 km/h (1 Bft) N-NO 15 ° 0 min 0,000 mm 0,0 UV-I 0 W/m² 17,4 °C 18,9 °C 6,4 km/h (2 Bft)
05.08.2017 23:38 19,1 °C 19,1 °C 90 % 1014,7 hPa 0,0 mm 5,7 km/h (1 Bft) N 5 ° 0 min 0,000 mm 0,0 UV-I 0 W/m² 17,4 °C 19,1 °C 8,0 km/h (2 Bft)
05.08.2017 23:39 19,2 °C 19,2 °C 90 % 1014,7 hPa 0,0 mm 6,0 km/h (2 Bft) N 355 ° 0 min 0,000 mm 0,0 UV-I 0 W/m² 17,5 °C 19,2 °C 9,7 km/h (2 Bft)
05.08.2017 23:40 19,2 °C 19,2 °C 89 % 1014,8 hPa 0,0 mm 5,4 km/h (1 Bft) N 5 ° 0 min 0,000 mm 0,0 UV-I 0 W/m² 17,3 °C 19,2 °C 6,4 km/h (2 Bft)
05.08.2017 23:41 19,3 °C 19,3 °C 88 % 1014,8 hPa 0,0 mm 5,2 km/h (1 Bft) N-NW 327 ° 0 min 0,000 mm 0,0 UV-I 0 W/m² 17,3 °C 19,3 °C 6,4 km/h (2 Bft)
05.08.2017 23:42 19,4 °C 19,4 °C 88 % 1014,8 hPa 0,0 mm 4,4 km/h (1 Bft) N 5 ° 0 min 0,000 mm 0,0 UV-I 0 W/m² 17,4 °C 19,4 °C 8,0 km/h (2 Bft)
05.08.2017 23:43 19,4 °C 19,4 °C 87 % 1015,0 hPa 0,0 mm 4,0 km/h (1 Bft) NW 322 ° 0 min 0,000 mm 0,0 UV-I 0 W/m² 17,2 °C 19,4 °C 6,4 km/h (2 Bft)
05.08.2017 23:44 19,4 °C 19,4 °C 87 % 1015,0 hPa 0,0 mm 2,8 km/h (1 Bft) N-NW 331 ° 0 min 0,000 mm 0,0 UV-I 0 W/m² 17,2 °C 19,4 °C 6,4 km/h (2 Bft)
05.08.2017 23:45 19,4 °C 19,4 °C 87 % 1015,1 hPa 0,0 mm 5,5 km/h (1 Bft) NW 323 ° 0 min 0,000 mm 0,0 UV-I 0 W/m² 17,2 °C 19,4 °C 8,0 km/h (2 Bft)
05.08.2017 23:46 19,4 °C 19,4 °C 87 % 1015,0 hPa 0,0 mm 3,4 km/h (1 Bft) NW 305 ° 0 min 0,000 mm 0,0 UV-I 0 W/m² 17,2 °C 19,4 °C 8,0 km/h (2 Bft)
05.08.2017 23:47 19,5 °C 19,5 °C 87 % 1015,1 hPa 0,0 mm 3,3 km/h (1 Bft) W-NW 294 ° 0 min 0,000 mm 0,0 UV-I 0 W/m² 17,3 °C 19,5 °C 6,4 km/h (2 Bft)
05.08.2017 23:48 19,4 °C 19,5 °C 86 % 1015,0 hPa 0,0 mm 5,0 km/h (1 Bft) W-NW 300 ° 0 min 0,000 mm 0,0 UV-I 0 W/m² 17,0 °C 19,4 °C 6,4 km/h (2 Bft)
05.08.2017 23:49 19,4 °C 19,5 °C 86 % 1015,1 hPa 0,0 mm 4,9 km/h (1 Bft) NW 315 ° 0 min 0,000 mm 0,0 UV-I 0 W/m² 17,0 °C 19,4 °C 6,4 km/h (2 Bft)
05.08.2017 23:50 19,4 °C 19,4 °C 86 % 1015,1 hPa 0,0 mm 5,2 km/h (1 Bft) NW 304 ° 0 min 0,000 mm 0,0 UV-I 0 W/m² 17,0 °C 19,4 °C 11,3 km/h (2 Bft)
05.08.2017 23:51 19,4 °C 19,4 °C 86 % 1015,1 hPa 0,0 mm 3,3 km/h (1 Bft) W-NW 292 ° 0 min 0,000 mm 0,0 UV-I 0 W/m² 17,0 °C 19,4 °C 8,0 km/h (2 Bft)
05.08.2017 23:52 19,4 °C 19,4 °C 87 % 1015,1 hPa 0,0 mm 6,2 km/h (2 Bft) N-NW 328 ° 0 min 0,000 mm 0,0 UV-I 0 W/m² 17,2 °C 19,4 °C 11,3 km/h (2 Bft)
05.08.2017 23:53 19,4 °C 19,4 °C 87 % 1015,2 hPa 0,0 mm 10,8 km/h (2 Bft) NW 307 ° 0 min 0,000 mm 0,0 UV-I 0 W/m² 17,2 °C 19,4 °C 16,1 km/h (3 Bft)
05.08.2017 23:54 19,3 °C 19,4 °C 87 % 1015,2 hPa 0,0 mm 6,0 km/h (2 Bft) W 272 ° 0 min 0,000 mm 0,0 UV-I 0 W/m² 17,1 °C 19,3 °C 12,9 km/h (3 Bft)
05.08.2017 23:55 19,2 °C 19,3 °C 87 % 1015,2 hPa 0,0 mm 7,0 km/h (2 Bft) NW 313 ° 0 min 0,000 mm 0,0 UV-I 0 W/m² 17,0 °C 19,2 °C 12,9 km/h (3 Bft)
05.08.2017 23:56 19,2 °C 19,2 °C 88 % 1015,2 hPa 0,2 mm 7,4 km/h (2 Bft) W-NW 288 ° 0 min 0,000 mm 0,0 UV-I 0 W/m² 17,2 °C 19,2 °C 12,9 km/h (3 Bft)
05.08.2017 23:57 19,1 °C 19,2 °C 88 % 1015,2 hPa 0,0 mm 5,4 km/h (1 Bft) W-NW 283 ° 0 min 0,000 mm 0,0 UV-I 0 W/m² 17,1 °C 19,1 °C 9,7 km/h (2 Bft)
05.08.2017 23:58 19,1 °C 19,1 °C 88 % 1015,2 hPa 0,0 mm 7,4 km/h (2 Bft) W-NW 297 ° 0 min 0,000 mm 0,0 UV-I 0 W/m² 17,1 °C 19,1 °C 11,3 km/h (2 Bft)
05.08.2017 23:59 18,9 °C 19,1 °C 88 % 1015,2 hPa 0,0 mm 6,4 km/h (2 Bft) N-NW 330 ° 0 min 0,000 mm 0,0 UV-I 0 W/m² 16,9 °C 18,9 °C 9,7 km/h (2 Bft)
_ Min-Zeit 05:49 05:36 16:05 18:24 - 23:32 - - - - - - 05:36 05:49 23:32
Minimum _ 14,3 °C 14,3 °C 63 % 1012,4 hPa - 0,0 km/h (0 Bft) - - - - - - 13,2 °C 14,3 °C 0,0 km/h (0 Bft)
_ Max-Zeit 14:05 14:05 06:46 23:59 23:56 15:41 - - 15:54 13:01 13:56 12:16 14:03 14:03 15:40
Maximum _ 26,7 °C 26,7 °C 95 % 1015,2 hPa 0,2 mm 15,6 km/h
W-NW (3 Bft)
- - 2 min 0,483 mm 7,9 UV-I 1093 W/m² 20,7 °C 26,6 °C 22,5 km/h
W (4 Bft)
Durchschnitt _ 20,5 °C 20,5 °C 81 % 1013,2 hPa #0,2 mm 2,8 km/h (1 Bft) NW - #6:19 h #3,277 mm 3,4 UV-I 202 W/m² 16,9 °C 20,5 °C 4,7 km/h (1 Bft)